Time,TemperatureF,DewpointF,PressureIn,WindDirection,WindDirectionDegrees,WindSpeedMPH,WindSpeedGustMPH,Humidity,HourlyPrecipIn,Conditions,Clouds,dailyrainin,SolarRadiationWatts/m^2,SoftwareType,DateUTC
2013-11-05 00:00:00,56.6,52.5,30.04,SSE,167,1.3,3.5,86,0.00,RA,,0.00,0.0,WeatherDisplay:10.37,2013-11-05 06:00:00,
2013-11-05 00:01:00,56.6,52.5,30.04,SE,129,0.7,2.3,86,0.00,RA,,0.00,0.0,WeatherDisplay:10.37,2013-11-05 06:01:00,
2013-11-05 00:03:00,56.6,52.5,30.04,SSW,200,4.1,6.9,86,0.00,RA,,0.00,0.0,WeatherDisplay:10.37,2013-11-05 06:03:00,
2013-11-05 00:04:00,56.6,52.8,30.04,SSE,158,2.2,4.6,87,0.00,RA,,0.00,0.0,WeatherDisplay:10.37,2013-11-05 06:04:00,
2013-11-05 00:05:00,56.6,52.8,30.04,South,186,2.4,7.0,87,0.00,RA,,0.00,0.0,WeatherDisplay:10.37,2013-11-05 06:05:00,
2013-11-05 00:07:00,56.6,52.8,30.04,SSE,160,4.4,6.9,87,0.00,RA,,0.00,0.0,WeatherDisplay:10.37,2013-11-05 06:07:00,
2013-11-05 00:08:00,56.6,52.8,30.04,SSE,167,3.6,5.8,87,0.00,RA,,0.00,0.0,WeatherDisplay:10.37,2013-11-05 06:08:00,
2013-11-05 00:09:00,56.6,52.8,30.04,SSW,192,1.5,3.5,87,0.00,RA,,0.00,0.0,WeatherDisplay:10.37,2013-11-05 06:09:00,
2013-11-05 00:10:00,56.7,52.9,30.04,South,182,1.4,4.0,87,0.00,CLR,,0.00,0.0,WeatherDisplay:10.37,2013-11-05 06:10:00,
2013-11-05 00:12:00,56.7,52.9,30.04,SE,146,0.9,3.0,87,0.00,CLR,,0.00,0.0,WeatherDisplay:10.37,2013-11-05 06:12:00,
2013-11-05 00:14:00,56.6,52.8,30.04,SSE,157,2.0,5.8,87,0.00,CLR,,0.00,0.0,WeatherDisplay:10.37,2013-11-05 06:14:00,
2013-11-05 00:15:00,56.7,52.9,30.04,South,184,1.3,3.5,87,0.00,CLR,,0.00,0.0,WeatherDisplay:10.37,2013-11-05 06:15:00,
2013-11-05 00:17:00,56.7,52.9,30.04,South,169,2.9,4.6,87,0.00,CLR,,0.00,0.0,WeatherDisplay:10.37,2013-11-05 06:17:00,
2013-11-05 00:19:00,56.6,52.8,30.04,SSE,168,2.6,5.8,87,0.00,CLR,,0.00,0.0,WeatherDisplay:10.37,2013-11-05 06:19:00,
2013-11-05 00:20:00,56.6,52.8,30.04,SSE,168,4.6,6.9,87,0.00,CLR,,0.00,0.0,WeatherDisplay:10.37,2013-11-05 06:20:00,
2013-11-05 00:23:00,56.6,52.8,30.04,SSE,155,0.5,4.0,87,0.00,CLR,,0.00,0.0,WeatherDisplay:10.37,2013-11-05 06:23:00,
2013-11-05 00:24:00,56.7,52.9,30.04,South,186,3.1,4.6,87,0.00,CLR,,0.00,0.0,WeatherDisplay:10.37,2013-11-05 06:24:00,
2013-11-05 00:25:00,56.6,52.8,30.04,ESE,123,2.6,7.0,87,0.00,CLR,,0.00,0.0,WeatherDisplay:10.37,2013-11-05 06:25:00,
2013-11-05 00:26:00,56.6,52.8,30.04,SSE,148,2.9,6.9,87,0.00,CLR,,0.00,0.0,WeatherDisplay:10.37,2013-11-05 06:26:00,
2013-11-05 00:28:00,56.6,52.8,30.04,SSE,150,2.0,7.0,87,0.00,CLR,,0.00,0.0,WeatherDisplay:10.37,2013-11-05 06:28:00,
2013-11-05 00:29:00,56.7,52.9,30.04,SSE,157,3.0,6.9,87,0.00,CLR,,0.00,0.0,WeatherDisplay:10.37,2013-11-05 06:29:00,
2013-11-05 00:30:00,56.6,52.8,30.04,SSE,162,0.6,6.9,87,0.00,CLR,,0.00,0.0,WeatherDisplay:10.37,2013-11-05 06:30:00,
2013-11-05 00:31:00,56.7,52.9,30.04,South,184,1.1,3.5,87,0.00,CLR,,0.00,0.0,WeatherDisplay:10.37,2013-11-05 06:31:00,
2013-11-05 00:34:00,56.6,52.8,30.04,South,170,1.4,2.3,87,0.00,CLR,,0.00,0.0,WeatherDisplay:10.37,2013-11-05 06:34:00,
2013-11-05 00:35:00,56.6,52.8,30.04,South,171,1.4,3.5,87,0.00,CLR,,0.00,0.0,WeatherDisplay:10.37,2013-11-05 06:35:00,
2013-11-05 00:36:00,56.6,52.8,30.04,SE,144,1.0,3.5,87,0.00,CLR,,0.00,0.0,WeatherDisplay:10.37,2013-11-05 06:36:00,
2013-11-05 00:39:00,56.6,52.8,30.04,SSE,167,0.2,2.3,87,0.00,CLR,,0.00,0.0,WeatherDisplay:10.37,2013-11-05 06:39:00,
2013-11-05 00:40:00,56.6,52.8,30.04,SSE,163,0.8,2.3,87,0.00,CLR,,0.00,0.0,WeatherDisplay:10.37,2013-11-05 06:40:00,
2013-11-05 00:41:00,56.6,53.1,30.04,SSW,196,0.5,3.5,88,0.00,CLR,,0.00,0.0,WeatherDisplay:10.37,2013-11-05 06:41:00,
2013-11-05 00:44:00,56.6,53.1,30.04,SSE,152,2.9,3.5,88,0.00,CLR,,0.00,0.0,WeatherDisplay:10.37,2013-11-05 06:44:00,
2013-11-05 00:46:00,56.5,53.0,30.04,SSW,200,2.5,4.6,88,0.00,CLR,,0.00,0.0,WeatherDisplay:10.37,2013-11-05 06:46:00,
2013-11-05 00:50:00,56.5,53.0,30.04,SE,141,1.2,3.5,88,0.00,CLR,,0.00,0.0,WeatherDisplay:10.37,2013-11-05 06:50:00,
2013-11-05 00:51:00,56.4,52.9,30.04,SSE,159,1.4,5.0,88,0.00,CLR,,0.00,0.0,WeatherDisplay:10.37,2013-11-05 06:51:00,
2013-11-05 00:52:00,56.4,52.9,30.04,South,181,2.6,4.6,88,0.00,CLR,,0.00,0.0,WeatherDisplay:10.37,2013-11-05 06:52:00,
2013-11-05 00:55:00,56.4,53.2,30.04,South,180,0.5,2.3,89,0.00,CLR,,0.00,0.0,WeatherDisplay:10.37,2013-11-05 06:55:00,
2013-11-05 00:56:00,56.4,53.2,30.04,SSW,193,1.8,3.5,89,0.00,CLR,,0.00,0.0,WeatherDisplay:10.37,2013-11-05 06:56:00,
2013-11-05 00:58:00,56.4,53.2,30.04,SSE,154,1.7,3.5,89,0.00,CLR,,0.00,0.0,WeatherDisplay:10.37,2013-11-05 06:58:00,
2013-11-05 01:00:00,56.3,53.1,30.04,SSE,157,2.1,3.5,89,0.00,CLR,,0.00,0.0,WeatherDisplay:10.37,2013-11-05 07:00:00,
2013-11-05 01:01:00,56.2,53.3,30.04,SSE,163,1.1,6.9,90,0.00,CLR,,0.00,0.0,WeatherDisplay:10.37,2013-11-05 07:01:00,
2013-11-05 01:02:00,56.3,53.4,30.04,SSE,159,1.3,3.5,90,0.00,CLR,,0.00,0.0,WeatherDisplay:10.37,2013-11-05 07:02:00,
2013-11-05 01:03:00,56.2,53.3,30.04,SSE,164,1.8,4.6,90,0.00,CLR,,0.00,0.0,WeatherDisplay:10.37,2013-11-05 07:03:00,
2013-11-05 01:05:00,56.2,53.3,30.04,South,187,2.9,5.8,90,0.00,CLR,,0.00,0.0,WeatherDisplay:10.37,2013-11-05 07:05:00,
2013-11-05 01:07:00,56.1,53.2,30.04,South,178,1.4,3.5,90,0.00,CLR,,0.00,0.0,WeatherDisplay:10.37,2013-11-05 07:07:00,
2013-11-05 01:08:00,56.1,53.2,30.04,South,177,2.7,5.8,90,0.00,CLR,,0.00,0.0,WeatherDisplay:10.37,2013-11-05 07:08:00,
2013-11-05 01:10:00,56.1,53.2,30.04,SSE,166,0.4,2.0,90,0.00,CLR,,0.00,0.0,WeatherDisplay:10.37,2013-11-05 07:10:00,
2013-11-05 01:12:00,56.0,53.1,30.04,SE,146,2.8,6.9,90,0.00,CLR,,0.00,0.0,WeatherDisplay:10.37,2013-11-05 07:12:00,
2013-11-05 01:13:00,56.0,53.1,30.04,SSE,155,3.6,6.9,90,0.00,CLR,,0.00,0.0,WeatherDisplay:10.37,2013-11-05 07:13:00,
2013-11-05 01:15:00,56.0,53.4,30.04,South,180,0.9,3.5,91,0.00,CLR,,0.00,0.0,WeatherDisplay:10.37,2013-11-05 07:15:00,
2013-11-05 01:16:00,56.0,53.4,30.04,SSW,201,0.4,2.3,91,0.00,CLR,,0.00,0.0,WeatherDisplay:10.37,2013-11-05 07:16:00,
2013-11-05 01:17:00,56.0,53.4,30.04,SSW,201,0.0,2.3,91,0.00,CLR,,0.00,0.0,WeatherDisplay:10.37,2013-11-05 07:17:00,
2013-11-05 01:18:00,56.0,53.4,30.04,SSE,162,0.4,2.3,91,0.00,CLR,,0.00,0.0,WeatherDisplay:10.37,2013-11-05 07:18:00,
2013-11-05 01:20:00,55.9,53.3,30.04,SSE,148,1.1,3.0,91,0.00,CLR,,0.00,0.0,WeatherDisplay:10.37,2013-11-05 07:20:00,
2013-11-05 01:21:00,55.9,53.3,30.04,SSE,154,2.0,3.5,91,0.00,CLR,,0.00,0.0,WeatherDisplay:10.37,2013-11-05 07:21:00,
2013-11-05 01:22:00,55.9,53.3,30.04,SSE,154,0.9,3.5,91,0.00,CLR,,0.00,0.0,WeatherDisplay:10.37,2013-11-05 07:22:00,
2013-11-05 01:23:00,55.9,53.3,30.04,SSE,154,0.3,1.2,91,0.00,CLR,,0.00,0.0,WeatherDisplay:10.37,2013-11-05 07:23:00,
2013-11-05 01:25:00,55.9,53.3,30.04,South,184,1.5,2.3,91,0.00,CLR,,0.00,0.0,WeatherDisplay:10.37,2013-11-05 07:25:00,
2013-11-05 01:27:00,55.8,53.2,30.04,South,184,1.0,3.5,91,0.00,CLR,,0.00,0.0,WeatherDisplay:10.37,2013-11-05 07:27:00,
2013-11-05 01:28:00,55.8,53.2,30.04,SSE,165,3.2,5.8,91,0.00,CLR,,0.00,0.0,WeatherDisplay:10.37,2013-11-05 07:28:00,
2013-11-05 01:29:00,55.8,53.2,30.04,SSW,209,3.3,6.0,91,0.00,CLR,,0.00,0.0,WeatherDisplay:10.37,2013-11-05 07:29:00,
2013-11-05 01:30:00,55.8,53.2,30.04,South,180,1.2,5.8,91,0.00,CLR,,0.00,0.0,WeatherDisplay:10.37,2013-11-05 07:30:00,
2013-11-05 01:32:00,55.8,53.5,30.04,South,180,0.2,2.3,92,0.00,CLR,,0.00,0.0,WeatherDisplay:10.37,2013-11-05 07:32:00,
2013-11-05 01:33:00,55.7,53.4,30.04,South,181,0.1,1.2,92,0.00,CLR,,0.00,0.0,WeatherDisplay:10.37,2013-11-05 07:33:00,
2013-11-05 01:34:00,55.7,53.4,30.04,SSW,194,1.3,3.0,92,0.00,CLR,,0.00,0.0,WeatherDisplay:10.37,2013-11-05 07:34:00,
2013-11-05 01:36:00,55.7,53.4,30.04,South,177,1.6,3.5,92,0.00,CLR,,0.00,0.0,WeatherDisplay:10.37,2013-11-05 07:36:00,
2013-11-05 01:37:00,55.7,53.4,30.03,South,177,0.6,3.5,92,0.00,CLR,,0.00,0.0,WeatherDisplay:10.37,2013-11-05 07:37:00,
2013-11-05 01:38:00,55.7,53.4,30.03,South,177,0.0,1.2,92,0.00,CLR,,0.00,0.0,WeatherDisplay:10.37,2013-11-05 07:38:00,
2013-11-05 01:39:00,55.6,53.3,30.04,South,177,0.0,1.2,92,0.00,CLR,,0.00,0.0,WeatherDisplay:10.37,2013-11-05 07:39:00,
2013-11-05 01:40:00,55.6,53.3,30.04,SSE,155,1.1,4.0,92,0.00,CLR,,0.00,0.0,WeatherDisplay:10.37,2013-11-05 07:40:00,
2013-11-05 01:41:00,55.6,53.3,30.04,South,174,1.6,3.5,92,0.00,CLR,,0.00,0.0,WeatherDisplay:10.37,2013-11-05 07:41:00,
2013-11-05 01:42:00,55.6,53.3,30.03,South,175,0.9,3.5,92,0.00,CLR,,0.00,0.0,WeatherDisplay:10.37,2013-11-05 07:42:00,
2013-11-05 01:43:00,55.6,53.3,30.04,South,175,0.0,2.3,92,0.00,CLR,,0.00,0.0,WeatherDisplay:10.37,2013-11-05 07:43:00,
2013-11-05 01:44:00,55.5,53.2,30.03,South,174,0.3,1.2,92,0.00,CLR,,0.00,0.0,WeatherDisplay:10.37,2013-11-05 07:44:00,
2013-11-05 01:45:00,55.5,53.2,30.03,SSW,198,1.4,3.5,92,0.00,CLR,,0.00,0.0,WeatherDisplay:10.37,2013-11-05 07:45:00,
2013-11-05 01:46:00,55.5,53.5,30.03,SSE,164,0.3,3.5,93,0.00,CLR,,0.00,0.0,WeatherDisplay:10.37,2013-11-05 07:46:00,
2013-11-05 01:48:00,55.5,53.5,30.03,SSE,165,0.5,1.2,93,0.00,CLR,,0.00,0.0,WeatherDisplay:10.37,2013-11-05 07:48:00,
2013-11-05 01:49:00,55.5,53.5,30.03,SSE,165,0.0,1.2,93,0.00,CLR,,0.00,0.0,WeatherDisplay:10.37,2013-11-05 07:49:00,
2013-11-05 01:50:00,55.5,53.5,30.03,South,174,0.0,4.0,93,0.00,CLR,,0.00,0.0,WeatherDisplay:10.37,2013-11-05 07:50:00,
2013-11-05 01:51:00,55.4,53.4,30.03,SSW,196,1.0,3.5,93,0.00,CLR,,0.00,0.0,WeatherDisplay:10.37,2013-11-05 07:51:00,
2013-11-05 01:52:00,55.4,53.4,30.03,SSW,196,0.0,1.0,93,0.00,CLR,,0.00,0.0,WeatherDisplay:10.37,2013-11-05 07:52:00,
2013-11-05 01:53:00,55.4,53.4,30.03,SSW,196,0.9,3.5,93,0.00,CLR,,0.00,0.0,WeatherDisplay:10.37,2013-11-05 07:53:00,
2013-11-05 01:54:00,55.4,53.4,30.03,SSW,196,0.4,2.3,93,0.00,CLR,,0.00,0.0,WeatherDisplay:10.37,2013-11-05 07:54:00,
2013-11-05 01:55:00,55.4,53.4,30.03,SSW,196,0.7,2.3,93,0.00,CLR,,0.00,0.0,WeatherDisplay:10.37,2013-11-05 07:55:00,
2013-11-05 01:56:00,55.4,53.4,30.03,SSW,196,0.0,2.3,93,0.00,CLR,,0.00,0.0,WeatherDisplay:10.37,2013-11-05 07:56:00,
2013-11-05 01:57:00,55.3,53.3,30.03,SSW,196,0.0,0.0,93,0.00,CLR,,0.00,0.0,WeatherDisplay:10.37,2013-11-05 07:57:00,
2013-11-05 01:58:00,55.3,53.3,30.03,SSW,196,0.0,1.2,93,0.00,CLR,,0.00,0.0,WeatherDisplay:10.37,2013-11-05 07:58:00,
2013-11-05 02:00:00,55.3,53.3,30.03,SSW,196,0.1,1.0,93,0.00,CLR,,0.00,0.0,WeatherDisplay:10.37,2013-11-05 08:00:00,
2013-11-05 02:02:00,55.3,53.3,30.03,South,190,1.1,3.5,93,0.00,CLR,,0.00,0.0,WeatherDisplay:10.37,2013-11-05 08:02:00,
2013-11-05 02:03:00,55.3,53.3,30.03,South,172,0.7,3.5,93,0.00,CLR,,0.00,0.0,WeatherDisplay:10.37,2013-11-05 08:03:00,
2013-11-05 02:05:00,55.3,53.3,30.03,South,172,0.4,2.0,93,0.00,CLR,,0.00,0.0,WeatherDisplay:10.37,2013-11-05 08:05:00,
2013-11-05 02:06:00,55.3,53.3,30.03,South,172,0.2,2.3,93,0.00,CLR,,0.00,0.0,WeatherDisplay:10.37,2013-11-05 08:06:00,
2013-11-05 02:07:00,55.2,53.2,30.03,South,172,0.1,1.2,93,0.00,CLR,,0.00,0.0,WeatherDisplay:10.37,2013-11-05 08:07:00,
2013-11-05 02:08:00,55.2,53.2,30.03,South,172,0.5,1.2,93,0.00,CLR,,0.00,0.0,WeatherDisplay:10.37,2013-11-05 08:08:00,
2013-11-05 02:10:00,55.2,53.5,30.03,SSW,198,1.1,3.5,94,0.00,CLR,,0.00,0.0,WeatherDisplay:10.37,2013-11-05 08:10:00,
2013-11-05 02:11:00,55.2,53.5,30.03,SSW,198,0.4,3.5,94,0.00,CLR,,0.00,0.0,WeatherDisplay:10.37,2013-11-05 08:11:00,
2013-11-05 02:12:00,55.1,53.4,30.03,SSW,198,0.0,2.3,94,0.00,CLR,,0.00,0.0,WeatherDisplay:10.37,2013-11-05 08:12:00,
2013-11-05 02:13:00,55.1,53.4,30.03,SSW,198,0.1,1.2,94,0.00,CLR,,0.00,0.0,WeatherDisplay:10.37,2013-11-05 08:13:00,
2013-11-05 02:15:00,55.1,53.4,30.03,SSW,198,0.0,1.2,94,0.00,CLR,,0.00,0.0,WeatherDisplay:10.37,2013-11-05 08:15:00,
2013-11-05 02:16:00,55.1,53.4,30.03,SSW,198,0.2,1.2,94,0.00,CLR,,0.00,0.0,WeatherDisplay:10.37,2013-11-05 08:16:00,
2013-11-05 02:18:00,55.1,53.4,30.03,SSW,198,0.2,1.2,94,0.00,CLR,,0.00,0.0,WeatherDisplay:10.37,2013-11-05 08:18:00,
2013-11-05 02:19:00,55.1,53.4,30.03,SSW,198,0.0,1.2,94,0.00,CLR,,0.00,0.0,WeatherDisplay:10.37,2013-11-05 08:19:00,
2013-11-05 02:21:00,55.1,53.4,30.03,SSW,198,0.3,1.2,94,0.00,CLR,,0.00,0.0,WeatherDisplay:10.37,2013-11-05 08:21:00,
2013-11-05 02:22:00,55.1,53.4,30.03,SE,139,0.6,3.5,94,0.00,CLR,,0.00,0.0,WeatherDisplay:10.37,2013-11-05 08:22:00,
2013-11-05 02:23:00,55.1,53.4,30.03,South,182,1.6,3.5,94,0.00,CLR,,0.00,0.0,WeatherDisplay:10.37,2013-11-05 08:23:00,
2013-11-05 02:24:00,55.1,53.4,30.03,South,182,0.4,3.5,94,0.00,CLR,,0.00,0.0,WeatherDisplay:10.37,2013-11-05 08:24:00,
2013-11-05 02:26:00,55.0,53.3,30.03,South,182,0.1,0.0,94,0.00,CLR,,0.00,0.0,WeatherDisplay:10.37,2013-11-05 08:26:00,
2013-11-05 02:27:00,55.1,53.4,30.03,South,182,0.4,1.2,94,0.00,CLR,,0.00,0.0,WeatherDisplay:10.37,2013-11-05 08:27:00,
2013-11-05 02:28:00,55.0,53.3,30.03,South,182,0.0,1.2,94,0.00,CLR,,0.00,0.0,WeatherDisplay:10.37,2013-11-05 08:28:00,
2013-11-05 02:29:00,55.0,53.3,30.03,South,182,0.7,2.3,94,0.00,CLR,,0.00,0.0,WeatherDisplay:10.37,2013-11-05 08:29:00,
2013-11-05 02:30:00,55.0,53.3,30.03,South,184,1.3,2.3,94,0.00,CLR,,0.00,0.0,WeatherDisplay:10.37,2013-11-05 08:30:00,
2013-11-05 02:32:00,55.0,53.3,30.03,South,184,0.5,1.2,94,0.00,CLR,,0.00,0.0,WeatherDisplay:10.37,2013-11-05 08:32:00,
2013-11-05 02:33:00,55.0,53.3,30.03,SSE,164,0.4,2.3,94,0.00,CLR,,0.00,0.0,WeatherDisplay:10.37,2013-11-05 08:33:00,
2013-11-05 02:34:00,55.0,53.3,30.03,SSE,164,0.8,2.3,94,0.00,CLR,,0.01,0.0,WeatherDisplay:10.37,2013-11-05 08:34:00,
2013-11-05 02:35:00,55.0,53.6,30.03,SSE,163,1.4,4.6,95,0.01,RA,,0.01,0.0,WeatherDisplay:10.37,2013-11-05 08:35:00,
2013-11-05 02:37:00,55.0,53.6,30.03,SSE,163,0.2,2.3,95,0.01,RA,,0.01,0.0,WeatherDisplay:10.37,2013-11-05 08:37:00,
2013-11-05 02:38:00,55.0,53.6,30.03,SSW,193,0.5,4.0,95,0.01,RA,,0.01,0.0,WeatherDisplay:10.37,2013-11-05 08:38:00,
2013-11-05 02:39:00,55.0,53.6,30.03,SSE,150,1.6,3.5,95,0.01,RA,,0.01,0.0,WeatherDisplay:10.37,2013-11-05 08:39:00,
2013-11-05 02:40:00,55.0,53.6,30.03,SSE,150,0.0,3.5,95,0.01,RA,,0.01,0.0,WeatherDisplay:10.37,2013-11-05 08:40:00,
2013-11-05 02:42:00,55.0,53.6,30.03,SSE,150,0.0,0.0,95,0.01,RA,,0.01,0.0,WeatherDisplay:10.37,2013-11-05 08:42:00,
2013-11-05 02:43:00,55.0,53.6,30.03,SSE,153,0.0,1.2,95,0.01,RA,,0.01,0.0,WeatherDisplay:10.37,2013-11-05 08:43:00,
2013-11-05 02:44:00,55.0,53.6,30.03,SSE,155,1.1,1.2,95,0.01,RA,,0.01,0.0,WeatherDisplay:10.37,2013-11-05 08:44:00,
2013-11-05 02:45:00,55.0,53.6,30.03,SSE,155,0.4,3.5,95,0.01,,,0.01,0.0,WeatherDisplay:10.37,2013-11-05 08:45:00,
2013-11-05 02:46:00,54.9,53.5,30.03,SSE,155,0.5,1.2,95,0.01,CLR,,0.01,0.0,WeatherDisplay:10.37,2013-11-05 08:46:00,
2013-11-05 02:47:00,54.9,53.5,30.03,SSE,155,0.0,1.2,95,0.01,CLR,,0.01,0.0,WeatherDisplay:10.37,2013-11-05 08:47:00,
2013-11-05 02:48:00,54.9,53.5,30.03,SSE,155,0.0,0.0,95,0.01,CLR,,0.01,0.0,WeatherDisplay:10.37,2013-11-05 08:48:00,
2013-11-05 02:49:00,54.9,53.5,30.03,SSE,155,0.0,0.0,95,0.01,CLR,,0.01,0.0,WeatherDisplay:10.37,2013-11-05 08:49:00,
2013-11-05 02:51:00,54.9,53.5,30.03,SSE,155,0.0,1.2,95,0.01,CLR,,0.01,0.0,WeatherDisplay:10.37,2013-11-05 08:51:00,
2013-11-05 02:53:00,54.9,53.5,30.03,SSE,155,0.0,1.2,95,0.01,CLR,,0.02,0.0,WeatherDisplay:10.37,2013-11-05 08:53:00,
2013-11-05 02:54:00,54.9,53.5,30.03,SSE,155,0.0,0.0,95,0.02,RA,,0.02,0.0,WeatherDisplay:10.37,2013-11-05 08:54:00,
2013-11-05 02:56:00,54.9,53.5,30.03,SSE,155,0.0,1.2,95,0.02,RA,,0.02,0.0,WeatherDisplay:10.37,2013-11-05 08:56:00,
2013-11-05 02:58:00,54.9,53.5,30.03,SSE,155,0.0,0.0,95,0.02,RA,,0.02,0.0,WeatherDisplay:10.37,2013-11-05 08:58:00,
2013-11-05 02:59:00,54.9,53.5,30.03,SSE,155,0.0,0.0,95,0.02,RA,,0.02,0.0,WeatherDisplay:10.37,2013-11-05 08:59:00,
2013-11-05 03:01:00,54.9,53.5,30.03,SSE,155,0.0,1.2,95,0.02,RA,,0.02,0.0,WeatherDisplay:10.37,2013-11-05 09:01:00,
2013-11-05 03:03:00,54.9,53.5,30.03,SSE,155,0.0,0.0,95,0.02,RA,,0.02,0.0,WeatherDisplay:10.37,2013-11-05 09:03:00,
2013-11-05 03:04:00,54.9,53.5,30.03,SSE,155,0.0,0.0,95,0.02,,,0.02,0.0,WeatherDisplay:10.37,2013-11-05 09:04:00,
2013-11-05 03:06:00,54.9,53.5,30.02,SSE,155,0.3,1.2,95,0.02,CLR,,0.02,0.0,WeatherDisplay:10.37,2013-11-05 09:06:00,
2013-11-05 03:07:00,54.9,53.5,30.03,SSE,155,0.0,1.2,95,0.02,CLR,,0.02,0.0,WeatherDisplay:10.37,2013-11-05 09:07:00,
2013-11-05 03:08:00,54.8,53.4,30.03,SSE,155,0.0,1.2,95,0.02,CLR,,0.02,0.0,WeatherDisplay:10.37,2013-11-05 09:08:00,
2013-11-05 03:09:00,54.8,53.4,30.02,SSE,155,0.0,1.2,95,0.02,CLR,,0.02,0.0,WeatherDisplay:10.37,2013-11-05 09:09:00,
2013-11-05 03:11:00,54.8,53.4,30.02,SSE,155,0.1,1.2,95,0.02,CLR,,0.02,0.0,WeatherDisplay:10.37,2013-11-05 09:11:00,
2013-11-05 03:12:00,54.8,53.4,30.02,SSE,155,0.0,1.2,95,0.02,CLR,,0.02,0.0,WeatherDisplay:10.37,2013-11-05 09:12:00,
2013-11-05 03:14:00,54.8,53.4,30.02,SSE,155,0.0,0.0,95,0.02,CLR,,0.02,0.0,WeatherDisplay:10.37,2013-11-05 09:14:00,
2013-11-05 03:15:00,54.8,53.4,30.02,SSE,155,0.0,0.0,95,0.02,CLR,,0.02,0.0,WeatherDisplay:10.37,2013-11-05 09:15:00,
2013-11-05 03:17:00,54.8,53.4,30.02,SSE,155,0.2,1.2,95,0.02,CLR,,0.02,0.0,WeatherDisplay:10.37,2013-11-05 09:17:00,
2013-11-05 03:18:00,54.8,53.4,30.02,SSE,148,1.1,3.0,95,0.02,CLR,,0.02,0.0,WeatherDisplay:10.37,2013-11-05 09:18:00,
2013-11-05 03:19:00,54.8,53.4,30.02,SSE,163,1.8,3.5,95,0.02,CLR,,0.02,0.0,WeatherDisplay:10.37,2013-11-05 09:19:00,
2013-11-05 03:20:00,54.8,53.4,30.02,SSE,162,0.5,2.3,95,0.02,CLR,,0.02,0.0,WeatherDisplay:10.37,2013-11-05 09:20:00,
2013-11-05 03:22:00,54.8,53.4,30.02,SSE,162,0.2,0.0,95,0.02,CLR,,0.02,0.0,WeatherDisplay:10.37,2013-11-05 09:22:00,
2013-11-05 03:24:00,54.8,53.4,30.02,SSE,163,0.3,1.2,95,0.02,CLR,,0.02,0.0,WeatherDisplay:10.37,2013-11-05 09:24:00,
2013-11-05 03:25:00,54.8,53.4,30.02,South,189,2.1,3.5,95,0.02,CLR,,0.02,0.0,WeatherDisplay:10.37,2013-11-05 09:25:00,
2013-11-05 03:27:00,54.8,53.7,30.02,South,189,0.0,1.2,96,0.02,CLR,,0.02,0.0,WeatherDisplay:10.37,2013-11-05 09:27:00,
2013-11-05 03:29:00,54.8,53.7,30.02,South,188,0.7,2.0,96,0.02,CLR,,0.02,0.0,WeatherDisplay:10.37,2013-11-05 09:29:00,
2013-11-05 03:30:00,54.7,53.6,30.02,South,188,0.8,1.2,96,0.02,CLR,,0.02,0.0,WeatherDisplay:10.37,2013-11-05 09:30:00,
2013-11-05 03:31:00,54.7,53.6,30.02,South,188,0.1,1.2,96,0.02,CLR,,0.02,0.0,WeatherDisplay:10.37,2013-11-05 09:31:00,
2013-11-05 03:33:00,54.7,53.6,30.02,South,189,0.6,3.5,96,0.02,CLR,,0.02,0.0,WeatherDisplay:10.37,2013-11-05 09:33:00,
2013-11-05 03:34:00,54.7,53.6,30.02,South,189,0.0,0.0,96,0.01,CLR,,0.02,0.0,WeatherDisplay:10.37,2013-11-05 09:34:00,
2013-11-05 03:35:00,54.7,53.6,30.02,South,189,0.0,0.0,96,0.01,CLR,,0.02,0.0,WeatherDisplay:10.37,2013-11-05 09:35:00,
2013-11-05 03:36:00,54.7,53.6,30.02,South,189,0.0,0.0,96,0.01,CLR,,0.02,0.0,WeatherDisplay:10.37,2013-11-05 09:36:00,
2013-11-05 03:39:00,54.7,53.6,30.02,South,188,0.1,0.0,96,0.01,CLR,,0.02,0.0,WeatherDisplay:10.37,2013-11-05 09:39:00,
2013-11-05 03:40:00,54.7,53.6,30.02,South,188,0.1,1.2,96,0.01,CLR,,0.02,0.0,WeatherDisplay:10.37,2013-11-05 09:40:00,
2013-11-05 03:41:00,54.7,53.6,30.02,South,188,0.0,0.0,96,0.01,CLR,,0.02,0.0,WeatherDisplay:10.37,2013-11-05 09:41:00,
2013-11-05 03:42:00,54.7,53.6,30.02,South,178,0.5,2.3,96,0.02,RA,,0.03,0.0,WeatherDisplay:10.37,2013-11-05 09:42:00,
2013-11-05 03:44:00,54.7,53.6,30.02,SSE,156,0.2,1.2,96,0.02,RA,,0.03,0.0,WeatherDisplay:10.37,2013-11-05 09:44:00,
2013-11-05 03:45:00,54.7,53.6,30.02,SSE,156,0.2,1.2,96,0.02,RA,,0.03,0.0,WeatherDisplay:10.37,2013-11-05 09:45:00,
2013-11-05 03:46:00,54.7,53.6,30.02,SSE,156,0.1,2.0,96,0.02,RA,,0.03,0.0,WeatherDisplay:10.37,2013-11-05 09:46:00,
2013-11-05 03:47:00,54.7,53.6,30.02,SSE,157,0.8,3.5,96,0.02,RA,,0.03,0.0,WeatherDisplay:10.37,2013-11-05 09:47:00,
2013-11-05 03:49:00,54.7,53.6,30.02,SSE,157,0.0,1.2,96,0.02,RA,,0.03,0.0,WeatherDisplay:10.37,2013-11-05 09:49:00,
2013-11-05 03:50:00,54.7,53.6,30.02,SSE,157,0.0,0.0,96,0.02,RA,,0.03,0.0,WeatherDisplay:10.37,2013-11-05 09:50:00,
2013-11-05 03:51:00,54.7,53.6,30.02,SSE,157,0.2,1.0,96,0.02,RA,,0.03,0.0,WeatherDisplay:10.37,2013-11-05 09:51:00,
2013-11-05 03:52:00,54.6,53.5,30.02,SSE,164,0.2,1.2,96,0.02,,,0.03,0.0,WeatherDisplay:10.37,2013-11-05 09:52:00,
2013-11-05 03:54:00,54.6,53.5,30.03,SSE,158,0.2,2.3,96,0.01,CLR,,0.03,0.0,WeatherDisplay:10.37,2013-11-05 09:54:00,
2013-11-05 03:55:00,54.6,53.5,30.03,SSE,158,0.1,1.2,96,0.01,CLR,,0.03,0.0,WeatherDisplay:10.37,2013-11-05 09:55:00,
2013-11-05 03:56:00,54.6,53.5,30.03,SSW,198,1.2,3.5,96,0.01,CLR,,0.03,0.0,WeatherDisplay:10.37,2013-11-05 09:56:00,
2013-11-05 03:57:00,54.6,53.5,30.03,South,191,0.4,3.5,96,0.01,CLR,,0.03,0.0,WeatherDisplay:10.37,2013-11-05 09:57:00,
2013-11-05 04:00:00,54.6,53.5,30.03,South,186,0.3,1.2,96,0.01,CLR,,0.03,0.0,WeatherDisplay:10.37,2013-11-05 10:00:00,
2013-11-05 04:01:00,54.6,53.5,30.03,South,184,0.7,3.5,96,0.01,CLR,,0.03,0.0,WeatherDisplay:10.37,2013-11-05 10:01:00,
2013-11-05 04:03:00,54.6,53.5,30.03,South,175,0.9,3.5,96,0.02,RA,,0.04,0.0,WeatherDisplay:10.37,2013-11-05 10:03:00,
2013-11-05 04:05:00,54.6,53.5,30.03,South,175,0.0,1.2,96,0.02,RA,,0.04,0.0,WeatherDisplay:10.37,2013-11-05 10:05:00,
2013-11-05 04:06:00,54.6,53.5,30.03,South,175,0.0,0.0,96,0.02,RA,,0.04,0.0,WeatherDisplay:10.37,2013-11-05 10:06:00,
2013-11-05 04:08:00,54.6,53.5,30.03,South,173,0.0,2.3,96,0.02,RA,,0.04,0.0,WeatherDisplay:10.37,2013-11-05 10:08:00,
2013-11-05 04:10:00,54.6,53.5,30.03,South,173,0.0,1.2,96,0.02,RA,,0.04,0.0,WeatherDisplay:10.37,2013-11-05 10:10:00,
2013-11-05 04:11:00,54.6,53.5,30.03,South,173,0.1,1.2,96,0.02,RA,,0.04,0.0,WeatherDisplay:10.37,2013-11-05 10:11:00,
2013-11-05 04:12:00,54.6,53.5,30.03,South,178,1.1,2.3,96,0.02,RA,,0.04,0.0,WeatherDisplay:10.37,2013-11-05 10:12:00,
2013-11-05 04:13:00,54.6,53.5,30.03,South,178,0.5,3.5,96,0.02,,,0.04,0.0,WeatherDisplay:10.37,2013-11-05 10:13:00,
2013-11-05 04:15:00,54.6,53.5,30.03,South,178,0.3,1.2,96,0.02,CLR,,0.04,0.0,WeatherDisplay:10.37,2013-11-05 10:15:00,
2013-11-05 04:16:00,54.6,53.5,30.03,South,178,0.2,1.2,96,0.02,CLR,,0.04,0.0,WeatherDisplay:10.37,2013-11-05 10:16:00,
2013-11-05 04:17:00,54.6,53.5,30.03,South,178,0.0,0.0,96,0.02,CLR,,0.04,0.0,WeatherDisplay:10.37,2013-11-05 10:17:00,
2013-11-05 04:19:00,54.5,53.4,30.03,South,178,0.8,2.3,96,0.02,CLR,,0.05,0.0,WeatherDisplay:10.37,2013-11-05 10:19:00,
2013-11-05 04:21:00,54.5,53.4,30.03,South,178,0.0,2.0,96,0.03,RA,,0.05,0.0,WeatherDisplay:10.37,2013-11-05 10:21:00,
2013-11-05 04:22:00,54.5,53.4,30.03,South,178,0.1,2.3,96,0.03,RA,,0.05,0.0,WeatherDisplay:10.37,2013-11-05 10:22:00,
2013-11-05 04:23:00,54.5,53.4,30.03,South,178,0.0,0.0,96,0.03,RA,,0.05,0.0,WeatherDisplay:10.37,2013-11-05 10:23:00,
2013-11-05 04:24:00,54.5,53.4,30.02,South,178,0.2,1.2,96,0.03,RA,,0.05,0.0,WeatherDisplay:10.37,2013-11-05 10:24:00,
2013-11-05 04:26:00,54.5,53.4,30.02,South,178,0.1,1.2,96,0.03,RA,,0.05,0.0,WeatherDisplay:10.37,2013-11-05 10:26:00,
2013-11-05 04:27:00,54.5,53.4,30.02,South,178,0.1,1.2,96,0.03,RA,,0.05,0.0,WeatherDisplay:10.37,2013-11-05 10:27:00,
2013-11-05 04:28:00,54.5,53.4,30.02,South,178,0.1,1.2,96,0.03,RA,,0.05,0.0,WeatherDisplay:10.37,2013-11-05 10:28:00,
2013-11-05 04:29:00,54.5,53.4,30.02,South,178,0.1,1.2,96,0.03,RA,,0.05,0.0,WeatherDisplay:10.37,2013-11-05 10:29:00,
2013-11-05 04:31:00,54.5,53.4,30.02,South,178,0.2,1.2,96,0.03,,,0.05,0.0,WeatherDisplay:10.37,2013-11-05 10:31:00,
2013-11-05 04:32:00,54.5,53.4,30.02,South,178,0.2,1.2,96,0.03,CLR,,0.05,0.0,WeatherDisplay:10.37,2013-11-05 10:32:00,
2013-11-05 04:33:00,54.5,53.4,30.02,South,174,0.3,2.3,96,0.03,CLR,,0.05,0.0,WeatherDisplay:10.37,2013-11-05 10:33:00,
2013-11-05 04:34:00,54.5,53.4,30.02,South,175,1.5,2.3,96,0.03,CLR,,0.05,0.0,WeatherDisplay:10.37,2013-11-05 10:34:00,
2013-11-05 04:36:00,54.5,53.4,30.02,South,175,0.3,3.5,96,0.03,CLR,,0.05,0.0,WeatherDisplay:10.37,2013-11-05 10:36:00,
2013-11-05 04:38:00,54.5,53.4,30.02,South,175,0.0,1.2,96,0.03,CLR,,0.05,0.0,WeatherDisplay:10.37,2013-11-05 10:38:00,
2013-11-05 04:39:00,54.5,53.4,30.02,South,175,0.0,3.0,96,0.00,CLR,,0.05,0.0,WeatherDisplay:10.37,2013-11-05 10:39:00,
2013-11-05 04:41:00,54.5,53.4,30.02,South,175,0.6,2.3,96,0.03,CLR,,0.05,0.0,WeatherDisplay:10.37,2013-11-05 10:41:00,
2013-11-05 04:43:00,54.4,53.3,30.02,South,173,0.2,2.3,96,0.02,CLR,,0.05,0.0,WeatherDisplay:10.37,2013-11-05 10:43:00,
2013-11-05 04:44:00,54.4,53.3,30.02,South,177,0.1,3.5,96,0.02,CLR,,0.05,0.0,WeatherDisplay:10.37,2013-11-05 10:44:00,
2013-11-05 04:45:00,54.4,53.3,30.02,South,177,0.2,1.2,96,0.02,CLR,,0.05,0.0,WeatherDisplay:10.37,2013-11-05 10:45:00,
2013-11-05 04:46:00,54.4,53.3,30.02,South,177,0.5,1.2,96,0.02,CLR,,0.05,0.0,WeatherDisplay:10.37,2013-11-05 10:46:00,
2013-11-05 04:48:00,54.4,53.3,30.02,South,177,0.1,1.2,96,0.02,CLR,,0.05,0.0,WeatherDisplay:10.37,2013-11-05 10:48:00,
2013-11-05 04:50:00,54.4,53.3,30.02,South,177,0.5,2.3,96,0.02,CLR,,0.06,0.0,WeatherDisplay:10.37,2013-11-05 10:50:00,
2013-11-05 04:51:00,54.4,53.3,30.02,South,189,1.8,1.8,96,0.03,RA,,0.06,0.0,WeatherDisplay:10.37,2013-11-05 10:51:00,
2013-11-05 04:52:00,54.4,53.3,30.02,South,189,1.7,3.5,96,0.03,RA,,0.06,0.0,WeatherDisplay:10.37,2013-11-05 10:52:00,
2013-11-05 04:53:00,54.4,53.3,30.02,South,189,0.2,1.2,96,0.03,RA,,0.06,0.0,WeatherDisplay:10.37,2013-11-05 10:53:00,
2013-11-05 04:55:00,54.4,53.3,30.02,South,189,0.0,0.0,96,0.03,RA,,0.06,0.0,WeatherDisplay:10.37,2013-11-05 10:55:00,
2013-11-05 04:56:00,54.4,53.3,30.02,South,189,0.0,0.0,96,0.03,RA,,0.06,0.0,WeatherDisplay:10.37,2013-11-05 10:56:00,
2013-11-05 04:57:00,54.4,53.3,30.02,South,182,1.3,2.3,96,0.03,RA,,0.06,0.0,WeatherDisplay:10.37,2013-11-05 10:57:00,
2013-11-05 04:58:00,54.4,53.3,30.02,South,182,0.0,3.5,96,0.03,RA,,0.06,0.0,WeatherDisplay:10.37,2013-11-05 10:58:00,
2013-11-05 05:00:00,54.4,53.6,30.02,South,182,0.3,1.2,97,0.03,RA,,0.06,0.0,WeatherDisplay:10.37,2013-11-05 11:00:00,
2013-11-05 05:01:00,54.4,53.3,30.02,South,182,0.1,1.2,96,0.03,,,0.06,0.0,WeatherDisplay:10.37,2013-11-05 11:01:00,
2013-11-05 05:02:00,54.4,53.3,30.02,South,182,0.0,1.2,96,0.03,,,0.06,0.0,WeatherDisplay:10.37,2013-11-05 11:02:00,
2013-11-05 05:03:00,54.4,53.3,30.02,South,182,0.2,1.2,96,0.02,CLR,,0.06,0.0,WeatherDisplay:10.37,2013-11-05 11:03:00,
2013-11-05 05:05:00,54.4,53.6,30.02,South,183,0.4,3.5,97,0.02,CLR,,0.06,0.0,WeatherDisplay:10.37,2013-11-05 11:05:00,
2013-11-05 05:07:00,54.4,53.6,30.02,ESE,123,1.4,3.5,97,0.02,CLR,,0.06,0.0,WeatherDisplay:10.37,2013-11-05 11:07:00,
2013-11-05 05:08:00,54.4,53.6,30.02,SSE,167,1.2,3.5,97,0.02,CLR,,0.06,0.0,WeatherDisplay:10.37,2013-11-05 11:08:00,
2013-11-05 05:09:00,54.4,53.6,30.02,South,184,0.8,3.0,97,0.02,CLR,,0.06,0.0,WeatherDisplay:10.37,2013-11-05 11:09:00,
2013-11-05 05:11:00,54.3,53.5,30.02,South,178,0.8,2.3,97,0.02,CLR,,0.06,0.0,WeatherDisplay:10.37,2013-11-05 11:11:00,
2013-11-05 05:12:00,54.3,53.5,30.02,South,178,0.4,2.3,97,0.02,CLR,,0.06,0.0,WeatherDisplay:10.37,2013-11-05 11:12:00,
2013-11-05 05:13:00,54.3,53.5,30.02,South,178,0.3,2.3,97,0.02,CLR,,0.06,0.0,WeatherDisplay:10.37,2013-11-05 11:13:00,
2013-11-05 05:14:00,54.3,53.5,30.02,SSE,162,1.0,2.3,97,0.02,CLR,,0.06,0.0,WeatherDisplay:10.37,2013-11-05 11:14:00,
2013-11-05 05:16:00,54.3,53.5,30.02,SSE,157,0.8,2.3,97,0.02,CLR,,0.06,0.0,WeatherDisplay:10.37,2013-11-05 11:16:00,
2013-11-05 05:18:00,54.3,53.5,30.02,South,186,0.4,3.5,97,0.02,CLR,,0.06,0.0,WeatherDisplay:10.37,2013-11-05 11:18:00,
2013-11-05 05:19:00,54.3,53.5,30.02,South,181,1.0,4.6,97,0.02,CLR,,0.06,0.0,WeatherDisplay:10.37,2013-11-05 11:19:00,
2013-11-05 05:20:00,54.3,53.2,30.03,South,181,0.0,1.2,96,0.01,CLR,,0.06,0.0,WeatherDisplay:10.37,2013-11-05 11:20:00,
2013-11-05 05:21:00,54.3,53.2,30.02,South,181,0.0,0.0,96,0.01,CLR,,0.06,0.0,WeatherDisplay:10.37,2013-11-05 11:21:00,
2013-11-05 05:23:00,54.3,53.5,30.02,South,181,0.7,2.3,97,0.01,CLR,,0.06,0.0,WeatherDisplay:10.37,2013-11-05 11:23:00,
2013-11-05 05:24:00,54.3,53.2,30.02,South,177,0.9,2.3,96,0.01,CLR,,0.06,0.0,WeatherDisplay:10.37,2013-11-05 11:24:00,
2013-11-05 05:26:00,54.3,53.2,30.02,South,176,0.2,1.2,96,0.01,CLR,,0.06,0.0,WeatherDisplay:10.37,2013-11-05 11:26:00,
2013-11-05 05:28:00,54.3,53.2,30.02,South,179,0.7,2.3,96,0.01,CLR,,0.06,0.0,WeatherDisplay:10.37,2013-11-05 11:28:00,
2013-11-05 05:29:00,54.3,53.2,30.02,South,178,0.2,1.2,96,0.01,CLR,,0.06,0.0,WeatherDisplay:10.37,2013-11-05 11:29:00,
2013-11-05 05:30:00,54.3,53.2,30.02,South,178,0.2,1.2,96,0.01,CLR,,0.06,0.0,WeatherDisplay:10.37,2013-11-05 11:30:00,
2013-11-05 05:31:00,54.3,53.2,30.02,South,181,0.8,2.3,96,0.01,CLR,,0.06,0.0,WeatherDisplay:10.37,2013-11-05 11:31:00,
2013-11-05 05:33:00,54.2,53.4,30.02,South,184,0.4,3.5,97,0.01,CLR,,0.06,0.0,WeatherDisplay:10.37,2013-11-05 11:33:00,
2013-11-05 05:34:00,54.2,53.4,30.02,South,184,0.1,2.3,97,0.01,CLR,,0.06,0.0,WeatherDisplay:10.37,2013-11-05 11:34:00,
2013-11-05 05:36:00,54.2,53.4,30.02,South,184,0.4,1.2,97,0.01,CLR,,0.06,0.0,WeatherDisplay:10.37,2013-11-05 11:36:00,
2013-11-05 05:38:00,54.2,53.4,30.02,South,169,1.4,3.5,97,0.01,CLR,,0.06,0.0,WeatherDisplay:10.37,2013-11-05 11:38:00,
2013-11-05 05:39:00,54.2,53.4,30.02,South,169,1.4,3.5,97,0.01,CLR,,0.06,0.0,WeatherDisplay:10.37,2013-11-05 11:39:00,
2013-11-05 05:40:00,54.2,53.4,30.02,South,180,1.8,3.5,97,0.01,CLR,,0.06,0.0,WeatherDisplay:10.37,2013-11-05 11:40:00,
2013-11-05 05:41:00,54.2,53.4,30.02,South,180,0.2,3.5,97,0.01,CLR,,0.06,0.0,WeatherDisplay:10.37,2013-11-05 11:41:00,
2013-11-05 05:44:00,54.2,53.4,30.02,South,180,0.0,1.2,97,0.01,CLR,,0.06,0.0,WeatherDisplay:10.37,2013-11-05 11:44:00,
2013-11-05 05:45:00,54.2,53.4,30.02,South,180,0.3,1.2,97,0.01,CLR,,0.06,0.0,WeatherDisplay:10.37,2013-11-05 11:45:00,
2013-11-05 05:46:00,54.2,53.4,30.02,South,182,0.7,2.3,97,0.01,CLR,,0.06,0.0,WeatherDisplay:10.37,2013-11-05 11:46:00,
2013-11-05 05:47:00,54.2,53.4,30.02,South,182,0.5,2.3,97,0.01,CLR,,0.06,0.0,WeatherDisplay:10.37,2013-11-05 11:47:00,
2013-11-05 05:49:00,54.2,53.4,30.02,South,181,0.4,2.3,97,0.01,CLR,,0.06,0.0,WeatherDisplay:10.37,2013-11-05 11:49:00,
2013-11-05 05:50:00,54.2,53.4,30.02,South,181,0.2,1.2,97,0.01,CLR,,0.06,0.0,WeatherDisplay:10.37,2013-11-05 11:50:00,
2013-11-05 05:51:00,54.2,53.4,30.02,South,172,1.5,3.5,97,0.00,CLR,,0.06,0.0,WeatherDisplay:10.37,2013-11-05 11:51:00,
2013-11-05 05:52:00,54.2,53.4,30.02,South,172,0.4,2.3,97,0.00,CLR,,0.06,0.0,WeatherDisplay:10.37,2013-11-05 11:52:00,
2013-11-05 05:53:00,54.2,53.4,30.02,South,172,0.0,0.0,97,0.00,CLR,,0.06,0.0,WeatherDisplay:10.37,2013-11-05 11:53:00,
2013-11-05 05:54:00,54.2,53.4,30.02,SW,224,0.2,2.0,97,0.00,CLR,,0.06,0.0,WeatherDisplay:10.37,2013-11-05 11:54:00,
2013-11-05 05:55:00,54.1,53.3,30.02,SW,223,0.2,2.3,97,0.00,CLR,,0.06,0.0,WeatherDisplay:10.37,2013-11-05 11:55:00,
2013-11-05 05:56:00,54.2,53.4,30.02,South,183,0.4,2.3,97,0.00,CLR,,0.06,0.0,WeatherDisplay:10.37,2013-11-05 11:56:00,
2013-11-05 05:57:00,54.1,53.3,30.02,South,171,0.1,2.3,97,0.00,CLR,,0.06,0.0,WeatherDisplay:10.37,2013-11-05 11:57:00,
2013-11-05 05:58:00,54.1,53.3,30.02,South,175,0.6,2.3,97,0.01,RA,,0.07,0.0,WeatherDisplay:10.37,2013-11-05 11:58:00,
2013-11-05 05:59:00,54.1,53.3,30.02,South,175,0.2,1.2,97,0.01,RA,,0.07,0.0,WeatherDisplay:10.37,2013-11-05 11:59:00,
2013-11-05 06:00:00,54.1,53.3,30.02,SSE,160,0.8,3.5,97,0.01,RA,,0.07,0.0,WeatherDisplay:10.37,2013-11-05 12:00:00,
2013-11-05 06:01:00,54.1,53.3,30.02,SSE,160,0.0,2.3,97,0.01,RA,,0.07,0.0,WeatherDisplay:10.37,2013-11-05 12:01:00,
2013-11-05 06:02:00,54.1,53.3,30.02,SSE,160,0.4,1.2,97,0.01,RA,,0.07,0.0,WeatherDisplay:10.37,2013-11-05 12:02:00,
2013-11-05 06:03:00,54.1,53.3,30.02,SSE,160,0.4,2.3,97,0.01,RA,,0.07,0.0,WeatherDisplay:10.37,2013-11-05 12:03:00,
2013-11-05 06:04:00,54.1,53.3,30.02,South,177,1.5,4.6,97,0.01,RA,,0.07,0.0,WeatherDisplay:10.37,2013-11-05 12:04:00,
2013-11-05 06:05:00,54.1,53.3,30.02,South,177,0.0,0.0,97,0.01,RA,,0.07,0.0,WeatherDisplay:10.37,2013-11-05 12:05:00,
2013-11-05 06:06:00,54.1,53.3,30.02,South,177,0.2,0.0,97,0.01,RA,,0.07,0.0,WeatherDisplay:10.37,2013-11-05 12:06:00,
2013-11-05 06:08:00,54.0,53.2,30.02,South,177,0.2,1.2,97,0.01,,,0.07,0.0,WeatherDisplay:10.37,2013-11-05 12:08:00,
2013-11-05 06:09:00,54.0,53.2,30.02,South,177,0.1,1.2,97,0.01,,,0.07,0.0,WeatherDisplay:10.37,2013-11-05 12:09:00,
2013-11-05 06:10:00,54.0,53.2,30.02,South,177,0.7,3.5,97,0.01,CLR,,0.07,0.0,WeatherDisplay:10.37,2013-11-05 12:10:00,
2013-11-05 06:11:00,54.0,53.2,30.02,South,177,0.8,2.3,97,0.01,CLR,,0.07,0.0,WeatherDisplay:10.37,2013-11-05 12:11:00,
2013-11-05 06:12:00,53.9,53.1,30.02,South,177,0.4,2.3,97,0.01,CLR,,0.07,0.0,WeatherDisplay:10.37,2013-11-05 12:12:00,
2013-11-05 06:13:00,54.0,53.2,30.02,South,175,0.9,1.2,97,0.01,CLR,,0.07,0.0,WeatherDisplay:10.37,2013-11-05 12:13:00,
2013-11-05 06:14:00,53.9,53.1,30.02,South,175,0.8,3.0,97,0.01,CLR,,0.07,0.0,WeatherDisplay:10.37,2013-11-05 12:14:00,
2013-11-05 06:16:00,53.9,53.1,30.02,South,186,0.5,2.3,97,0.01,CLR,,0.07,0.0,WeatherDisplay:10.37,2013-11-05 12:16:00,
2013-11-05 06:17:00,53.9,53.1,30.02,South,186,0.0,1.0,97,0.01,CLR,,0.07,0.0,WeatherDisplay:10.37,2013-11-05 12:17:00,
2013-11-05 06:18:00,53.8,53.0,30.01,South,182,0.2,1.2,97,0.01,CLR,,0.07,0.0,WeatherDisplay:10.37,2013-11-05 12:18:00,
2013-11-05 06:19:00,53.8,53.0,30.01,South,182,0.0,1.2,97,0.01,CLR,,0.07,0.0,WeatherDisplay:10.37,2013-11-05 12:19:00,
2013-11-05 06:21:00,53.8,53.0,30.01,South,182,0.0,1.2,97,0.01,CLR,,0.07,0.0,WeatherDisplay:10.37,2013-11-05 12:21:00,
2013-11-05 06:22:00,53.8,53.0,30.01,South,182,0.0,0.0,97,0.01,CLR,,0.07,0.0,WeatherDisplay:10.37,2013-11-05 12:22:00,
2013-11-05 06:23:00,53.7,52.9,30.01,SSE,167,1.4,3.0,97,0.01,CLR,,0.07,0.0,WeatherDisplay:10.37,2013-11-05 12:23:00,
2013-11-05 06:24:00,53.7,52.9,30.01,SSE,159,2.2,4.6,97,0.01,CLR,,0.07,0.0,WeatherDisplay:10.37,2013-11-05 12:24:00,
2013-11-05 06:26:00,53.7,52.9,30.01,South,177,0.1,3.0,97,0.01,CLR,,0.07,0.0,WeatherDisplay:10.37,2013-11-05 12:26:00,
2013-11-05 06:27:00,53.7,52.9,30.01,South,177,1.5,3.5,97,0.01,CLR,,0.07,0.0,WeatherDisplay:10.37,2013-11-05 12:27:00,
2013-11-05 06:29:00,53.6,52.8,30.01,South,178,0.7,3.0,97,0.01,CLR,,0.07,0.0,WeatherDisplay:10.37,2013-11-05 12:29:00,
2013-11-05 06:30:00,53.6,52.8,30.01,South,178,0.9,2.3,97,0.01,CLR,,0.07,0.0,WeatherDisplay:10.37,2013-11-05 12:30:00,
2013-11-05 06:31:00,53.6,52.8,30.01,South,178,0.5,2.3,97,0.01,CLR,,0.07,0.0,WeatherDisplay:10.37,2013-11-05 12:31:00,
2013-11-05 06:32:00,53.6,52.8,30.01,South,178,0.5,1.2,97,0.01,CLR,,0.07,0.0,WeatherDisplay:10.37,2013-11-05 12:32:00,
2013-11-05 06:34:00,53.6,52.8,30.01,South,182,1.2,3.5,97,0.01,CLR,,0.07,0.0,WeatherDisplay:10.37,2013-11-05 12:34:00,
2013-11-05 06:35:00,53.6,52.8,30.01,South,182,0.9,2.3,97,0.01,CLR,,0.07,0.0,WeatherDisplay:10.37,2013-11-05 12:35:00,
2013-11-05 06:36:00,53.6,52.8,30.01,SSW,197,2.3,5.8,97,0.01,CLR,,0.07,0.0,WeatherDisplay:10.37,2013-11-05 12:36:00,
2013-11-05 06:37:00,53.6,52.8,30.01,South,175,1.1,3.5,97,0.01,CLR,,0.07,0.0,WeatherDisplay:10.37,2013-11-05 12:37:00,
2013-11-05 06:38:00,53.6,52.8,30.01,South,175,0.8,3.5,97,0.01,CLR,,0.07,0.0,WeatherDisplay:10.37,2013-11-05 12:38:00,
2013-11-05 06:40:00,53.6,52.8,30.01,South,174,1.3,3.5,97,0.01,CLR,,0.07,0.0,WeatherDisplay:10.37,2013-11-05 12:40:00,
2013-11-05 06:41:00,53.6,52.8,30.01,SSW,199,0.5,3.5,97,0.01,CLR,,0.07,0.0,WeatherDisplay:10.37,2013-11-05 12:41:00,
2013-11-05 06:43:00,53.6,52.8,30.01,South,187,1.3,3.5,97,0.01,CLR,,0.07,0.0,WeatherDisplay:10.37,2013-11-05 12:43:00,
2013-11-05 06:45:00,53.5,52.7,30.01,South,175,0.6,2.3,97,0.01,CLR,,0.07,0.0,WeatherDisplay:10.37,2013-11-05 12:45:00,
2013-11-05 06:46:00,53.5,52.7,30.01,South,175,0.5,1.2,97,0.01,CLR,,0.07,0.0,WeatherDisplay:10.37,2013-11-05 12:46:00,
2013-11-05 06:48:00,53.5,52.7,30.01,South,178,1.2,2.3,97,0.02,RA,,0.08,0.0,WeatherDisplay:10.37,2013-11-05 12:48:00,
2013-11-05 06:51:00,53.5,52.7,30.01,South,183,0.2,2.3,97,0.02,RA,,0.08,0.0,WeatherDisplay:10.37,2013-11-05 12:51:00,
2013-11-05 06:52:00,53.5,52.7,30.01,South,183,0.7,3.5,97,0.02,RA,,0.08,0.0,WeatherDisplay:10.37,2013-11-05 12:52:00,
2013-11-05 06:53:00,53.5,52.7,30.01,South,183,0.5,1.2,97,0.02,RA,,0.08,0.0,WeatherDisplay:10.37,2013-11-05 12:53:00,
2013-11-05 06:54:00,53.5,52.7,30.01,South,183,0.1,2.3,97,0.02,RA,,0.08,0.0,WeatherDisplay:10.37,2013-11-05 12:54:00,
2013-11-05 06:56:00,53.5,52.7,30.01,South,180,0.8,3.5,97,0.02,RA,,0.08,0.0,WeatherDisplay:10.37,2013-11-05 12:56:00,
2013-11-05 06:57:00,53.5,52.7,30.01,South,180,0.3,1.2,97,0.02,RA,,0.08,0.0,WeatherDisplay:10.37,2013-11-05 12:57:00,
2013-11-05 06:58:00,53.5,52.7,30.01,South,177,0.0,3.5,97,0.01,,,0.08,0.0,WeatherDisplay:10.37,2013-11-05 12:58:00,
2013-11-05 06:59:00,53.5,52.7,30.01,South,177,0.0,1.2,97,0.01,,,0.08,0.0,WeatherDisplay:10.37,2013-11-05 12:59:00,
2013-11-05 07:01:00,53.5,52.7,30.01,South,187,1.0,3.5,97,0.01,CLR,,0.08,0.0,WeatherDisplay:10.37,2013-11-05 13:01:00,
2013-11-05 07:02:00,53.5,52.7,30.01,South,187,0.5,2.3,97,0.01,CLR,,0.08,0.0,WeatherDisplay:10.37,2013-11-05 13:02:00,
2013-11-05 07:03:00,53.5,52.7,30.01,South,187,0.1,2.3,97,0.01,CLR,,0.08,0.0,WeatherDisplay:10.37,2013-11-05 13:03:00,
2013-11-05 07:04:00,53.5,52.7,30.01,South,187,0.0,1.2,97,0.01,CLR,,0.08,0.0,WeatherDisplay:10.37,2013-11-05 13:04:00,
2013-11-05 07:05:00,53.5,52.7,30.01,South,187,0.0,0.0,97,0.01,CLR,,0.08,0.0,WeatherDisplay:10.37,2013-11-05 13:05:00,
2013-11-05 07:06:00,53.5,52.7,30.01,South,187,0.0,0.0,97,0.01,CLR,,0.08,0.0,WeatherDisplay:10.37,2013-11-05 13:06:00,
2013-11-05 07:07:00,53.5,52.7,30.01,South,171,0.9,0.0,97,0.01,CLR,,0.08,0.0,WeatherDisplay:10.37,2013-11-05 13:07:00,
2013-11-05 07:08:00,53.5,52.7,30.01,South,171,1.1,3.5,97,0.01,CLR,,0.08,0.0,WeatherDisplay:10.37,2013-11-05 13:08:00,
2013-11-05 07:09:00,53.5,52.7,30.01,South,174,1.5,4.6,97,0.01,CLR,,0.08,0.0,WeatherDisplay:10.37,2013-11-05 13:09:00,
2013-11-05 07:10:00,53.5,52.7,30.01,SW,214,1.9,4.6,97,0.01,CLR,,0.08,0.0,WeatherDisplay:10.37,2013-11-05 13:10:00,
2013-11-05 07:11:00,53.5,52.7,30.01,SW,214,0.0,3.5,97,0.01,CLR,,0.08,0.0,WeatherDisplay:10.37,2013-11-05 13:11:00,
2013-11-05 07:12:00,53.5,52.7,30.01,South,171,0.3,0.0,97,0.01,CLR,,0.08,0.0,WeatherDisplay:10.37,2013-11-05 13:12:00,
2013-11-05 07:13:00,53.5,52.7,30.01,SSW,205,0.3,4.0,97,0.01,CLR,,0.08,0.0,WeatherDisplay:10.37,2013-11-05 13:13:00,
2013-11-05 07:14:00,53.5,52.7,30.01,South,188,0.9,3.5,97,0.01,CLR,,0.08,0.0,WeatherDisplay:10.37,2013-11-05 13:14:00,
2013-11-05 07:16:00,53.5,52.7,30.01,South,186,0.1,1.2,97,0.01,CLR,,0.08,0.0,WeatherDisplay:10.37,2013-11-05 13:16:00,
2013-11-05 07:17:00,53.5,52.7,30.01,South,186,0.0,0.0,97,0.01,CLR,,0.08,0.0,WeatherDisplay:10.37,2013-11-05 13:17:00,
2013-11-05 07:19:00,53.5,52.7,30.01,South,186,0.4,2.3,97,0.01,CLR,,0.08,0.0,WeatherDisplay:10.37,2013-11-05 13:19:00,
2013-11-05 07:21:00,53.5,52.7,30.01,South,186,0.2,2.3,97,0.01,CLR,,0.08,0.0,WeatherDisplay:10.37,2013-11-05 13:21:00,
2013-11-05 07:22:00,53.5,52.7,30.01,South,186,0.2,1.2,97,0.01,CLR,,0.08,0.0,WeatherDisplay:10.37,2013-11-05 13:22:00,
2013-11-05 07:24:00,53.5,52.7,30.01,South,182,0.4,2.3,97,0.01,CLR,,0.08,0.0,WeatherDisplay:10.37,2013-11-05 13:24:00,
2013-11-05 07:25:00,53.5,52.7,30.01,South,182,0.1,1.2,97,0.01,CLR,,0.08,0.0,WeatherDisplay:10.37,2013-11-05 13:25:00,
2013-11-05 07:26:00,53.6,52.8,30.01,South,182,0.3,1.2,97,0.01,CLR,,0.08,0.0,WeatherDisplay:10.37,2013-11-05 13:26:00,
2013-11-05 07:27:00,53.5,52.7,30.01,South,179,0.5,2.3,97,0.01,CLR,,0.08,0.0,WeatherDisplay:10.37,2013-11-05 13:27:00,
2013-11-05 07:29:00,53.6,52.8,30.01,SSE,168,1.4,1.4,97,0.01,CLR,,0.08,0.0,WeatherDisplay:10.37,2013-11-05 13:29:00,
2013-11-05 07:30:00,53.6,52.8,30.01,SSE,168,0.6,3.5,97,0.01,CLR,,0.08,0.0,WeatherDisplay:10.37,2013-11-05 13:30:00,
2013-11-05 07:31:00,53.6,52.8,30.01,South,173,0.0,1.2,97,0.01,CLR,,0.08,5.0,WeatherDisplay:10.37,2013-11-05 13:31:00,
2013-11-05 07:32:00,53.6,52.8,30.01,South,173,0.0,0.0,97,0.01,CLR,,0.08,5.0,WeatherDisplay:10.37,2013-11-05 13:32:00,
2013-11-05 07:33:00,53.6,52.8,30.01,South,173,0.4,2.0,97,0.01,CLR,,0.08,5.0,WeatherDisplay:10.37,2013-11-05 13:33:00,
2013-11-05 07:34:00,53.6,52.8,30.01,SSE,157,1.0,4.0,97,0.00,CLR,,0.08,0.0,WeatherDisplay:10.37,2013-11-05 13:34:00,
2013-11-05 07:35:00,53.6,52.8,30.01,SSE,164,0.9,3.5,97,0.01,CLR,,0.08,0.0,WeatherDisplay:10.37,2013-11-05 13:35:00,
2013-11-05 07:37:00,53.6,52.8,30.01,SSW,200,1.3,4.0,97,0.01,CLR,,0.08,0.0,WeatherDisplay:10.37,2013-11-05 13:37:00,
2013-11-05 07:38:00,53.7,52.9,30.01,SSW,196,0.7,4.6,97,0.01,CLR,,0.08,0.0,WeatherDisplay:10.37,2013-11-05 13:38:00,
2013-11-05 07:40:00,53.7,52.9,30.01,SSW,193,0.6,3.5,97,0.01,CLR,,0.08,0.0,WeatherDisplay:10.37,2013-11-05 13:40:00,
2013-11-05 07:42:00,53.7,52.9,30.01,SSW,193,0.0,0.0,97,0.01,CLR,,0.08,5.0,WeatherDisplay:10.37,2013-11-05 13:42:00,
2013-11-05 07:43:00,53.7,52.9,30.01,SSW,192,0.0,0.0,97,0.01,CLR,,0.08,5.0,WeatherDisplay:10.37,2013-11-05 13:43:00,
2013-11-05 07:45:00,53.7,52.9,30.01,SSE,157,0.9,2.3,97,0.01,CLR,,0.08,5.0,WeatherDisplay:10.37,2013-11-05 13:45:00,
2013-11-05 07:47:00,53.7,52.9,30.01,South,170,0.0,1.2,97,0.01,CLR,,0.08,5.0,WeatherDisplay:10.37,2013-11-05 13:47:00,
2013-11-05 07:48:00,53.7,52.9,30.01,South,170,0.0,0.0,97,0.00,CLR,,0.08,7.0,WeatherDisplay:10.37,2013-11-05 13:48:00,
2013-11-05 07:50:00,53.7,52.9,30.01,South,170,0.1,1.2,97,0.00,CLR,,0.08,11.0,WeatherDisplay:10.37,2013-11-05 13:50:00,
2013-11-05 07:52:00,53.8,53.0,30.01,South,170,0.1,1.2,97,0.00,CLR,,0.08,12.0,WeatherDisplay:10.37,2013-11-05 13:52:00,
2013-11-05 07:53:00,53.8,53.0,30.00,SSW,198,0.8,2.0,97,0.00,CLR,,0.08,12.0,WeatherDisplay:10.37,2013-11-05 13:53:00,
2013-11-05 07:55:00,53.8,53.0,30.01,SSW,198,0.8,3.5,97,0.00,CLR,,0.08,14.0,WeatherDisplay:10.37,2013-11-05 13:55:00,
2013-11-05 07:56:00,53.8,53.0,30.01,SSE,166,0.4,3.5,97,0.00,CLR,,0.08,16.0,WeatherDisplay:10.37,2013-11-05 13:56:00,
2013-11-05 07:58:00,53.8,53.0,30.00,South,173,0.5,2.3,97,0.00,CLR,,0.08,16.0,WeatherDisplay:10.37,2013-11-05 13:58:00,
2013-11-05 07:59:00,53.9,53.1,30.00,South,173,0.5,1.2,97,0.00,CLR,,0.08,14.0,WeatherDisplay:10.37,2013-11-05 13:59:00,
2013-11-05 08:00:00,53.9,53.1,30.01,South,173,0.4,2.3,97,0.00,OVC,,0.08,14.0,WeatherDisplay:10.37,2013-11-05 14:00:00,
2013-11-05 08:02:00,53.9,53.1,30.00,South,175,0.6,2.3,97,0.00,OVC,,0.08,16.0,WeatherDisplay:10.37,2013-11-05 14:02:00,
2013-11-05 08:03:00,53.9,53.1,30.01,South,180,0.2,3.5,97,0.00,OVC,,0.08,19.0,WeatherDisplay:10.37,2013-11-05 14:03:00,
2013-11-05 08:04:00,53.9,53.1,30.00,South,180,0.0,0.0,97,0.00,OVC,,0.08,19.0,WeatherDisplay:10.37,2013-11-05 14:04:00,
2013-11-05 08:06:00,53.9,53.1,30.00,South,173,0.4,3.0,97,0.00,OVC,,0.08,18.0,WeatherDisplay:10.37,2013-11-05 14:06:00,
2013-11-05 08:07:00,53.9,53.1,30.00,South,171,1.4,3.5,97,0.00,OVC,,0.08,18.0,WeatherDisplay:10.37,2013-11-05 14:07:00,
2013-11-05 08:08:00,53.9,53.1,30.00,South,190,0.9,3.5,97,0.00,OVC,,0.08,16.0,WeatherDisplay:10.37,2013-11-05 14:08:00,
2013-11-05 08:11:00,54.0,53.2,30.00,South,188,0.6,3.5,97,0.00,OVC,,0.08,16.0,WeatherDisplay:10.37,2013-11-05 14:11:00,
2013-11-05 08:12:00,54.0,53.2,30.01,South,169,1.6,2.3,97,0.00,OVC,,0.08,16.0,WeatherDisplay:10.37,2013-11-05 14:12:00,
2013-11-05 08:13:00,54.0,53.2,30.01,South,175,1.2,3.5,97,0.00,OVC,,0.08,14.0,WeatherDisplay:10.37,2013-11-05 14:13:00,
2013-11-05 08:14:00,54.0,53.2,30.01,South,182,1.3,3.5,97,0.00,OVC,,0.08,14.0,WeatherDisplay:10.37,2013-11-05 14:14:00,
2013-11-05 08:16:00,54.0,53.2,30.01,South,181,0.1,1.2,97,0.00,OVC,,0.08,12.0,WeatherDisplay:10.37,2013-11-05 14:16:00,
2013-11-05 08:18:00,54.0,53.4,30.01,South,183,0.0,1.2,98,0.00,OVC,,0.08,14.0,WeatherDisplay:10.37,2013-11-05 14:18:00,
2013-11-05 08:19:00,54.0,53.4,30.00,South,182,0.7,2.3,98,0.00,OVC,,0.08,16.0,WeatherDisplay:10.37,2013-11-05 14:19:00,
2013-11-05 08:21:00,54.1,53.3,30.00,South,182,0.8,2.3,97,0.00,OVC,,0.09,16.0,WeatherDisplay:10.37,2013-11-05 14:21:00,
2013-11-05 08:22:00,54.0,53.2,30.00,South,184,0.7,4.0,97,0.01,RA,,0.09,16.0,WeatherDisplay:10.37,2013-11-05 14:22:00,
2013-11-05 08:23:00,54.1,53.5,30.00,SSE,154,1.7,4.6,98,0.01,RA,,0.09,16.0,WeatherDisplay:10.37,2013-11-05 14:23:00,
2013-11-05 08:24:00,54.1,53.5,30.00,SSE,159,0.4,3.5,98,0.01,RA,,0.09,18.0,WeatherDisplay:10.37,2013-11-05 14:24:00,
2013-11-05 08:25:00,54.1,53.5,30.00,SSW,198,1.0,3.5,98,0.01,RA,,0.09,18.0,WeatherDisplay:10.37,2013-11-05 14:25:00,
2013-11-05 08:27:00,54.1,53.5,30.00,South,178,0.1,1.2,98,0.01,RA,,0.09,18.0,WeatherDisplay:10.37,2013-11-05 14:27:00,
2013-11-05 08:28:00,54.1,53.5,30.00,South,178,0.0,1.2,98,0.01,RA,,0.09,19.0,WeatherDisplay:10.37,2013-11-05 14:28:00,
2013-11-05 08:29:00,54.1,53.5,30.00,South,178,0.1,1.0,98,0.01,RA,,0.09,19.0,WeatherDisplay:10.37,2013-11-05 14:29:00,
2013-11-05 08:30:00,54.2,53.6,30.00,South,175,1.7,4.0,98,0.01,RA,,0.09,21.0,WeatherDisplay:10.37,2013-11-05 14:30:00,
2013-11-05 08:32:00,54.2,53.6,30.00,South,188,0.4,4.6,98,0.01,OVC,,0.09,23.0,WeatherDisplay:10.37,2013-11-05 14:32:00,
2013-11-05 08:33:00,54.2,53.6,30.00,South,190,0.2,1.2,98,0.01,OVC,,0.09,26.0,WeatherDisplay:10.37,2013-11-05 14:33:00,
2013-11-05 08:34:00,54.2,53.6,30.00,South,188,0.1,1.2,98,0.01,OVC,,0.09,28.0,WeatherDisplay:10.37,2013-11-05 14:34:00,
2013-11-05 08:35:00,54.2,53.6,30.00,South,175,0.6,2.3,98,0.01,OVC,,0.09,28.0,WeatherDisplay:10.37,2013-11-05 14:35:00,
2013-11-05 08:37:00,54.2,53.6,30.00,South,175,0.0,1.2,98,0.01,OVC,,0.09,30.0,WeatherDisplay:10.37,2013-11-05 14:37:00,
2013-11-05 08:38:00,54.2,53.6,30.00,South,175,0.3,1.2,98,0.01,OVC,,0.09,35.0,WeatherDisplay:10.37,2013-11-05 14:38:00,
2013-11-05 08:39:00,54.2,53.6,30.00,South,175,0.2,1.2,98,0.01,OVC,,0.09,39.0,WeatherDisplay:10.37,2013-11-05 14:39:00,
2013-11-05 08:41:00,54.3,53.5,30.00,SSE,163,1.8,4.6,97,0.01,OVC,,0.10,46.0,WeatherDisplay:10.37,2013-11-05 14:41:00,
2013-11-05 08:42:00,54.3,53.5,29.99,South,182,1.1,4.6,97,0.02,RA,,0.10,49.0,WeatherDisplay:10.37,2013-11-05 14:42:00,
2013-11-05 08:44:00,54.4,53.6,29.99,SSW,195,1.5,3.5,97,0.02,RA,,0.10,56.0,WeatherDisplay:10.37,2013-11-05 14:44:00,
2013-11-05 08:45:00,54.4,53.6,29.99,SSE,164,0.6,3.5,97,0.02,RA,,0.10,58.0,WeatherDisplay:10.37,2013-11-05 14:45:00,
2013-11-05 08:47:00,54.5,53.9,29.99,South,169,1.1,3.5,98,0.02,RA,,0.10,51.0,WeatherDisplay:10.37,2013-11-05 14:47:00,
2013-11-05 08:49:00,54.5,53.7,29.99,South,185,0.9,4.6,97,0.02,RA,,0.10,44.0,WeatherDisplay:10.37,2013-11-05 14:49:00,
2013-11-05 08:50:00,54.5,53.7,29.99,South,186,2.3,4.6,97,0.02,RA,,0.10,40.0,WeatherDisplay:10.37,2013-11-05 14:50:00,
2013-11-05 08:51:00,54.5,53.7,29.99,South,190,1.3,3.5,97,0.02,RA,,0.10,40.0,WeatherDisplay:10.37,2013-11-05 14:51:00,
2013-11-05 08:52:00,54.5,53.7,29.99,SSE,158,0.7,3.5,97,0.02,OVC,,0.10,44.0,WeatherDisplay:10.37,2013-11-05 14:52:00,
2013-11-05 08:54:00,54.6,53.8,29.99,SSE,159,1.1,3.5,97,0.02,OVC,,0.10,28.0,WeatherDisplay:10.37,2013-11-05 14:54:00,
2013-11-05 08:55:00,54.6,53.8,29.99,South,186,1.7,3.5,97,0.02,OVC,,0.10,28.0,WeatherDisplay:10.37,2013-11-05 14:55:00,
2013-11-05 08:57:00,54.6,54.0,29.99,SSE,160,0.8,3.5,98,0.02,OVC,,0.10,23.0,WeatherDisplay:10.37,2013-11-05 14:57:00,
2013-11-05 08:59:00,54.7,54.1,29.99,South,169,0.3,2.3,98,0.02,OVC,,0.10,25.0,WeatherDisplay:10.37,2013-11-05 14:59:00,
2013-11-05 09:00:00,54.7,54.1,29.99,SSE,161,0.4,3.0,98,0.02,OVC,,0.10,25.0,WeatherDisplay:10.37,2013-11-05 15:00:00,
2013-11-05 09:02:00,54.7,54.1,29.99,South,173,0.0,1.2,98,0.02,OVC,,0.10,23.0,WeatherDisplay:10.37,2013-11-05 15:02:00,
2013-11-05 09:05:00,54.7,54.1,29.99,South,181,0.5,3.5,98,0.02,OVC,,0.10,21.0,WeatherDisplay:10.37,2013-11-05 15:05:00,
2013-11-05 09:06:00,54.7,54.1,29.99,South,178,1.8,2.3,98,0.02,OVC,,0.10,21.0,WeatherDisplay:10.37,2013-11-05 15:06:00,
2013-11-05 09:07:00,54.8,54.2,29.99,SSE,159,2.1,3.5,98,0.02,OVC,,0.10,21.0,WeatherDisplay:10.37,2013-11-05 15:07:00,
2013-11-05 09:08:00,54.8,54.2,29.99,SSE,160,2.0,4.0,98,0.03,RA,,0.11,23.0,WeatherDisplay:10.37,2013-11-05 15:08:00,
2013-11-05 09:10:00,54.8,54.2,29.99,South,177,0.4,2.3,98,0.03,RA,,0.11,30.0,WeatherDisplay:10.37,2013-11-05 15:10:00,
2013-11-05 09:11:00,54.8,54.2,29.99,South,177,0.4,2.3,98,0.03,RA,,0.11,30.0,WeatherDisplay:10.37,2013-11-05 15:11:00,
2013-11-05 09:12:00,54.8,54.2,29.99,South,183,0.9,3.5,98,0.03,RA,,0.11,30.0,WeatherDisplay:10.37,2013-11-05 15:12:00,
2013-11-05 09:13:00,54.8,54.2,29.99,South,178,4.4,9.2,98,0.03,RA,,0.11,39.0,WeatherDisplay:10.37,2013-11-05 15:13:00,
2013-11-05 09:14:00,54.9,54.3,29.99,South,171,1.4,9.2,98,0.03,RA,,0.11,35.0,WeatherDisplay:10.37,2013-11-05 15:14:00,
2013-11-05 09:16:00,54.9,54.3,29.99,South,172,0.5,3.5,98,0.03,RA,,0.11,35.0,WeatherDisplay:10.37,2013-11-05 15:16:00,
2013-11-05 09:17:00,54.9,54.3,29.99,South,172,0.2,1.2,98,0.03,RA,,0.11,35.0,WeatherDisplay:10.37,2013-11-05 15:17:00,
2013-11-05 09:19:00,54.9,54.3,29.98,South,189,0.2,2.3,98,0.03,OVC,,0.11,37.0,WeatherDisplay:10.37,2013-11-05 15:19:00,
2013-11-05 09:21:00,54.9,54.3,29.98,South,185,3.1,7.0,98,0.03,OVC,,0.11,35.0,WeatherDisplay:10.37,2013-11-05 15:21:00,
2013-11-05 09:22:00,54.9,54.3,29.99,South,180,4.9,6.9,98,0.02,OVC,,0.11,35.0,WeatherDisplay:10.37,2013-11-05 15:22:00,
2013-11-05 09:23:00,55.0,54.4,29.99,South,175,1.5,6.9,98,0.02,OVC,,0.11,39.0,WeatherDisplay:10.37,2013-11-05 15:23:00,
2013-11-05 09:24:00,55.0,54.2,29.99,South,177,2.8,8.1,97,0.02,OVC,,0.11,33.0,WeatherDisplay:10.37,2013-11-05 15:24:00,
2013-11-05 09:26:00,55.0,54.2,29.99,SSW,209,2.8,6.0,97,0.02,OVC,,0.11,32.0,WeatherDisplay:10.37,2013-11-05 15:26:00,
2013-11-05 09:27:00,55.0,54.2,29.98,South,169,2.7,5.8,97,0.02,OVC,,0.11,32.0,WeatherDisplay:10.37,2013-11-05 15:27:00,
2013-11-05 09:28:00,55.0,54.2,29.98,SSW,207,1.7,5.8,97,0.02,OVC,,0.12,35.0,WeatherDisplay:10.37,2013-11-05 15:28:00,
2013-11-05 09:29:00,55.0,54.2,29.98,SSW,207,1.6,3.5,97,0.03,RA,,0.12,35.0,WeatherDisplay:10.37,2013-11-05 15:29:00,
2013-11-05 09:32:00,55.1,54.3,29.98,SSE,160,1.9,3.5,97,0.03,RA,,0.12,35.0,WeatherDisplay:10.37,2013-11-05 15:32:00,
2013-11-05 09:33:00,55.1,54.3,29.98,SSE,167,1.2,3.5,97,0.03,RA,,0.12,39.0,WeatherDisplay:10.37,2013-11-05 15:33:00,
2013-11-05 09:35:00,55.1,54.3,29.98,South,190,0.7,3.0,97,0.03,RA,,0.13,40.0,WeatherDisplay:10.37,2013-11-05 15:35:00,
2013-11-05 09:37:00,55.1,54.3,29.98,SSW,213,2.1,4.6,97,0.04,RA,,0.13,44.0,WeatherDisplay:10.37,2013-11-05 15:37:00,
2013-11-05 09:38:00,55.1,54.5,29.98,SSE,165,2.2,5.8,98,0.04,RA,,0.13,46.0,WeatherDisplay:10.37,2013-11-05 15:38:00,
2013-11-05 09:40:00,55.2,54.6,29.98,SSW,209,0.8,3.5,98,0.04,RA,,0.13,44.0,WeatherDisplay:10.37,2013-11-05 15:40:00,
2013-11-05 09:43:00,55.3,54.7,29.98,South,180,2.5,5.8,98,0.03,RA,,0.13,40.0,WeatherDisplay:10.37,2013-11-05 15:43:00,
2013-11-05 09:44:00,55.3,54.7,29.98,South,172,2.5,5.8,98,0.03,RA,,0.13,42.0,WeatherDisplay:10.37,2013-11-05 15:44:00,
2013-11-05 09:45:00,55.3,54.7,29.98,SSE,164,3.0,6.9,98,0.03,RA,,0.13,40.0,WeatherDisplay:10.37,2013-11-05 15:45:00,
2013-11-05 09:46:00,55.3,54.7,29.98,South,173,2.2,4.6,98,0.03,OVC,,0.13,42.0,WeatherDisplay:10.37,2013-11-05 15:46:00,
2013-11-05 09:48:00,55.3,54.7,29.98,SSE,151,2.4,6.9,98,0.03,OVC,,0.13,47.0,WeatherDisplay:10.37,2013-11-05 15:48:00,
2013-11-05 09:49:00,55.3,54.7,29.98,SSE,161,3.3,4.6,98,0.03,OVC,,0.13,54.0,WeatherDisplay:10.37,2013-11-05 15:49:00,
2013-11-05 09:50:00,55.4,54.8,29.98,SE,136,3.8,11.5,98,0.03,OVC,,0.13,49.0,WeatherDisplay:10.37,2013-11-05 15:50:00,
2013-11-05 09:51:00,55.4,54.8,29.98,South,187,4.3,7.0,98,0.03,OVC,,0.13,46.0,WeatherDisplay:10.37,2013-11-05 15:51:00,
2013-11-05 09:53:00,55.4,54.6,29.98,ESE,113,0.9,3.5,97,0.03,OVC,,0.13,46.0,WeatherDisplay:10.37,2013-11-05 15:53:00,
2013-11-05 09:54:00,55.4,54.8,29.98,South,170,2.4,4.6,98,0.03,OVC,,0.13,40.0,WeatherDisplay:10.37,2013-11-05 15:54:00,
2013-11-05 09:55:00,55.4,54.6,29.98,SSW,202,2.4,4.6,97,0.03,OVC,,0.13,49.0,WeatherDisplay:10.37,2013-11-05 15:55:00,
2013-11-05 09:57:00,55.5,54.7,29.98,SSE,157,4.4,8.1,97,0.03,OVC,,0.13,62.0,WeatherDisplay:10.37,2013-11-05 15:57:00,
2013-11-05 09:58:00,55.5,54.7,29.97,South,172,4.1,6.9,97,0.03,OVC,,0.13,63.0,WeatherDisplay:10.37,2013-11-05 15:58:00,
2013-11-05 09:59:00,55.5,54.7,29.97,SSW,206,3.2,8.1,97,0.03,OVC,,0.13,53.0,WeatherDisplay:10.37,2013-11-05 15:59:00,
2013-11-05 10:00:00,55.5,54.7,29.97,South,178,1.1,5.8,97,0.03,OVC,,0.13,49.0,WeatherDisplay:10.37,2013-11-05 16:00:00,
2013-11-05 10:02:00,55.5,54.7,29.97,South,171,2.2,6.9,97,0.03,OVC,,0.13,47.0,WeatherDisplay:10.37,2013-11-05 16:02:00,
2013-11-05 10:04:00,55.6,54.8,29.97,SSW,196,2.5,6.9,97,0.03,OVC,,0.13,42.0,WeatherDisplay:10.37,2013-11-05 16:04:00,
2013-11-05 10:05:00,55.6,54.8,29.97,South,175,1.8,6.9,97,0.03,OVC,,0.13,44.0,WeatherDisplay:10.37,2013-11-05 16:05:00,
2013-11-05 10:07:00,55.7,54.9,29.97,South,184,3.7,9.2,97,0.03,OVC,,0.13,60.0,WeatherDisplay:10.37,2013-11-05 16:07:00,
2013-11-05 10:09:00,55.7,54.9,29.97,South,181,3.7,9.2,97,0.02,OVC,,0.13,65.0,WeatherDisplay:10.37,2013-11-05 16:09:00,
2013-11-05 10:10:00,55.7,54.9,29.97,South,188,1.3,9.2,97,0.02,OVC,,0.13,67.0,WeatherDisplay:10.37,2013-11-05 16:10:00,
2013-11-05 10:11:00,55.7,54.9,29.96,South,180,2.4,10.0,97,0.02,OVC,,0.13,58.0,WeatherDisplay:10.37,2013-11-05 16:11:00,
2013-11-05 10:13:00,55.8,55.0,29.97,SSE,151,1.8,4.6,97,0.02,OVC,,0.13,62.0,WeatherDisplay:10.37,2013-11-05 16:13:00,
2013-11-05 10:14:00,55.8,55.0,29.97,SE,131,2.2,3.5,97,0.02,OVC,,0.13,53.0,WeatherDisplay:10.37,2013-11-05 16:14:00,
2013-11-05 10:15:00,55.8,55.0,29.96,SSE,158,2.1,3.5,97,0.02,OVC,,0.13,53.0,WeatherDisplay:10.37,2013-11-05 16:15:00,
2013-11-05 10:16:00,55.8,55.0,29.96,SSE,161,1.1,4.6,97,0.02,OVC,,0.13,56.0,WeatherDisplay:10.37,2013-11-05 16:16:00,
2013-11-05 10:18:00,55.9,55.1,29.96,SSE,150,3.2,4.6,97,0.02,OVC,,0.13,67.0,WeatherDisplay:10.37,2013-11-05 16:18:00,
2013-11-05 10:19:00,55.9,55.1,29.96,South,190,4.3,7.0,97,0.02,OVC,,0.13,65.0,WeatherDisplay:10.37,2013-11-05 16:19:00,
2013-11-05 10:20:00,55.9,55.1,29.96,South,184,4.4,5.8,97,0.02,OVC,,0.13,65.0,WeatherDisplay:10.37,2013-11-05 16:20:00,
2013-11-05 10:21:00,55.9,55.1,29.96,NE,39,3.1,8.1,97,0.02,OVC,,0.13,88.0,WeatherDisplay:10.37,2013-11-05 16:21:00,
2013-11-05 10:24:00,56.0,55.2,29.96,SE,137,2.2,3.5,97,0.02,OVC,,0.14,62.0,WeatherDisplay:10.37,2013-11-05 16:24:00,
2013-11-05 10:25:00,56.0,55.2,29.96,South,185,3.8,4.6,97,0.03,RA,,0.14,62.0,WeatherDisplay:10.37,2013-11-05 16:25:00,
2013-11-05 10:26:00,56.1,55.3,29.96,South,186,3.4,6.9,97,0.03,RA,,0.14,69.0,WeatherDisplay:10.37,2013-11-05 16:26:00,
2013-11-05 10:29:00,56.1,55.3,29.96,SSE,147,3.0,8.0,97,0.00,RA,,0.14,60.0,WeatherDisplay:10.37,2013-11-05 16:29:00,
2013-11-05 10:30:00,56.2,55.4,29.96,South,170,3.7,6.9,97,0.02,RA,,0.14,60.0,WeatherDisplay:10.37,2013-11-05 16:30:00,
2013-11-05 10:31:00,56.2,55.4,29.96,South,188,2.2,6.9,97,0.02,RA,,0.14,60.0,WeatherDisplay:10.37,2013-11-05 16:31:00,
2013-11-05 10:32:00,56.2,55.4,29.95,SSW,208,3.6,5.8,97,0.02,RA,,0.14,53.0,WeatherDisplay:10.37,2013-11-05 16:32:00,
2013-11-05 10:35:00,56.2,55.4,29.96,SE,125,3.7,11.0,97,0.02,OVC,,0.14,47.0,WeatherDisplay:10.37,2013-11-05 16:35:00,
2013-11-05 10:37:00,56.2,55.4,29.96,South,169,4.8,11.5,97,0.01,OVC,,0.14,47.0,WeatherDisplay:10.37,2013-11-05 16:37:00,
2013-11-05 10:38:00,56.2,55.4,29.96,South,190,3.6,6.9,97,0.01,OVC,,0.14,46.0,WeatherDisplay:10.37,2013-11-05 16:38:00,
2013-11-05 10:40:00,56.2,55.4,29.96,SSE,153,4.1,11.5,97,0.01,OVC,,0.14,54.0,WeatherDisplay:10.37,2013-11-05 16:40:00,
2013-11-05 10:42:00,56.2,55.4,29.95,South,186,1.0,4.6,97,0.01,OVC,,0.14,54.0,WeatherDisplay:10.37,2013-11-05 16:42:00,
2013-11-05 10:43:00,56.2,55.4,29.95,South,184,0.7,3.5,97,0.01,OVC,,0.14,51.0,WeatherDisplay:10.37,2013-11-05 16:43:00,
2013-11-05 10:45:00,56.3,55.5,29.95,SSE,157,4.3,8.1,97,0.01,OVC,,0.14,49.0,WeatherDisplay:10.37,2013-11-05 16:45:00,
2013-11-05 10:46:00,56.3,55.5,29.95,SSE,161,2.5,4.6,97,0.01,OVC,,0.14,49.0,WeatherDisplay:10.37,2013-11-05 16:46:00,
2013-11-05 10:47:00,56.3,55.5,29.95,South,173,1.2,3.5,97,0.01,OVC,,0.14,47.0,WeatherDisplay:10.37,2013-11-05 16:47:00,
2013-11-05 10:48:00,56.3,55.5,29.96,SW,223,2.8,5.8,97,0.01,OVC,,0.14,46.0,WeatherDisplay:10.37,2013-11-05 16:48:00,
2013-11-05 10:49:00,56.3,55.5,29.96,SSE,155,3.6,5.8,97,0.01,OVC,,0.14,46.0,WeatherDisplay:10.37,2013-11-05 16:49:00,
2013-11-05 10:50:00,56.4,55.6,29.95,SSW,213,4.1,6.9,97,0.01,OVC,,0.14,51.0,WeatherDisplay:10.37,2013-11-05 16:50:00,
2013-11-05 10:51:00,56.4,55.6,29.95,SSW,210,1.8,5.8,97,0.01,OVC,,0.14,51.0,WeatherDisplay:10.37,2013-11-05 16:51:00,
2013-11-05 10:52:00,56.4,55.6,29.95,South,175,3.2,4.6,97,0.01,OVC,,0.14,60.0,WeatherDisplay:10.37,2013-11-05 16:52:00,
2013-11-05 10:53:00,56.4,55.3,29.95,South,190,2.5,7.0,96,0.01,OVC,,0.14,62.0,WeatherDisplay:10.37,2013-11-05 16:53:00,
2013-11-05 10:54:00,56.4,55.3,29.95,SSE,159,3.2,6.9,96,0.01,OVC,,0.14,72.0,WeatherDisplay:10.37,2013-11-05 16:54:00,
2013-11-05 10:55:00,56.4,55.3,29.95,SSW,202,2.8,5.8,96,0.01,OVC,,0.14,97.0,WeatherDisplay:10.37,2013-11-05 16:55:00,
2013-11-05 10:56:00,56.4,55.3,29.95,SSW,202,4.7,8.0,96,0.01,OVC,,0.14,102.0,WeatherDisplay:10.37,2013-11-05 16:56:00,
2013-11-05 10:57:00,56.5,55.4,29.95,South,190,4.4,15.0,96,0.01,OVC,,0.14,105.0,WeatherDisplay:10.37,2013-11-05 16:57:00,
2013-11-05 10:58:00,56.5,55.4,29.95,South,190,0.9,4.6,96,0.01,OVC,,0.14,116.0,WeatherDisplay:10.37,2013-11-05 16:58:00,
2013-11-05 10:59:00,56.6,55.5,29.95,SE,142,2.6,5.8,96,0.01,OVC,,0.14,114.0,WeatherDisplay:10.37,2013-11-05 16:59:00,
2013-11-05 11:01:00,56.6,55.5,29.95,SSW,196,2.5,9.0,96,0.01,OVC,,0.14,74.0,WeatherDisplay:10.37,2013-11-05 17:01:00,
2013-11-05 11:02:00,56.7,55.6,29.95,South,174,0.6,9.2,96,0.01,OVC,,0.14,77.0,WeatherDisplay:10.37,2013-11-05 17:02:00,
2013-11-05 11:03:00,56.7,55.6,29.95,SSE,156,1.0,7.0,96,0.01,OVC,,0.14,69.0,WeatherDisplay:10.37,2013-11-05 17:03:00,
2013-11-05 11:04:00,56.7,55.6,29.95,South,169,2.4,10.4,96,0.01,OVC,,0.14,69.0,WeatherDisplay:10.37,2013-11-05 17:04:00,
2013-11-05 11:06:00,56.7,55.6,29.94,SSW,212,2.6,7.0,96,0.01,OVC,,0.14,72.0,WeatherDisplay:10.37,2013-11-05 17:06:00,
2013-11-05 11:07:00,56.7,55.6,29.94,South,182,6.2,11.5,96,0.01,OVC,,0.14,67.0,WeatherDisplay:10.37,2013-11-05 17:07:00,
2013-11-05 11:08:00,56.8,55.7,29.95,South,178,3.4,11.5,96,0.01,OVC,,0.14,74.0,WeatherDisplay:10.37,2013-11-05 17:08:00,
2013-11-05 11:09:00,56.7,55.6,29.95,SSE,165,3.1,4.6,96,0.01,OVC,,0.14,74.0,WeatherDisplay:10.37,2013-11-05 17:09:00,
2013-11-05 11:11:00,56.8,55.7,29.94,SSE,163,2.3,7.0,96,0.01,OVC,,0.14,83.0,WeatherDisplay:10.37,2013-11-05 17:11:00,
2013-11-05 11:12:00,56.8,55.7,29.94,SSW,202,4.6,8.1,96,0.01,OVC,,0.14,88.0,WeatherDisplay:10.37,2013-11-05 17:12:00,
2013-11-05 11:13:00,56.8,55.7,29.94,South,179,2.9,5.8,96,0.01,OVC,,0.14,90.0,WeatherDisplay:10.37,2013-11-05 17:13:00,
2013-11-05 11:14:00,56.8,55.7,29.94,South,174,2.3,11.0,96,0.01,OVC,,0.14,74.0,WeatherDisplay:10.37,2013-11-05 17:14:00,
2013-11-05 11:15:00,56.8,55.7,29.94,South,174,2.3,11.0,96,0.01,OVC,,0.14,74.0,WeatherDisplay:10.37,2013-11-05 17:15:00,
2013-11-05 11:16:00,56.9,55.8,29.94,SSE,147,3.5,11.5,96,0.01,OVC,,0.14,58.0,WeatherDisplay:10.37,2013-11-05 17:16:00,
2013-11-05 11:17:00,56.9,55.8,29.94,South,169,1.9,3.5,96,0.01,OVC,,0.14,74.0,WeatherDisplay:10.37,2013-11-05 17:17:00,
2013-11-05 11:18:00,56.9,55.8,29.94,SSE,150,2.9,5.8,96,0.01,OVC,,0.14,79.0,WeatherDisplay:10.37,2013-11-05 17:18:00,
2013-11-05 11:20:00,56.9,55.8,29.93,SSE,153,3.5,5.8,96,0.01,OVC,,0.14,90.0,WeatherDisplay:10.37,2013-11-05 17:20:00,
2013-11-05 11:21:00,57.0,55.9,29.93,SE,143,4.0,5.8,96,0.01,OVC,,0.14,109.0,WeatherDisplay:10.37,2013-11-05 17:21:00,
2013-11-05 11:22:00,57.0,55.9,29.93,SSE,159,3.5,8.1,96,0.01,OVC,,0.14,127.0,WeatherDisplay:10.37,2013-11-05 17:22:00,
2013-11-05 11:23:00,57.0,55.9,29.93,South,181,5.4,15.0,96,0.01,OVC,,0.14,144.0,WeatherDisplay:10.37,2013-11-05 17:23:00,
2013-11-05 11:25:00,57.1,56.0,29.93,South,169,2.8,5.8,96,0.00,OVC,,0.14,125.0,WeatherDisplay:10.37,2013-11-05 17:25:00,
2013-11-05 11:26:00,57.1,56.0,29.93,South,172,3.4,6.9,96,0.00,OVC,,0.14,123.0,WeatherDisplay:10.37,2013-11-05 17:26:00,
2013-11-05 11:27:00,57.2,56.1,29.93,South,180,3.9,8.1,96,0.00,OVC,,0.14,100.0,WeatherDisplay:10.37,2013-11-05 17:27:00,
2013-11-05 11:28:00,57.2,56.1,29.93,SSE,163,3.3,5.8,96,0.00,OVC,,0.14,105.0,WeatherDisplay:10.37,2013-11-05 17:28:00,
2013-11-05 11:30:00,57.2,56.1,29.93,SSW,200,3.3,4.6,96,0.00,OVC,,0.14,104.0,WeatherDisplay:10.37,2013-11-05 17:30:00,
2013-11-05 11:31:00,57.3,56.2,29.93,SSE,149,3.9,10.4,96,0.00,OVC,,0.14,121.0,WeatherDisplay:10.37,2013-11-05 17:31:00,
2013-11-05 11:33:00,57.3,56.2,29.92,South,171,4.0,8.1,96,0.00,OVC,,0.14,114.0,WeatherDisplay:10.37,2013-11-05 17:33:00,
2013-11-05 11:35:00,57.3,56.2,29.92,SSE,158,2.2,6.0,96,0.00,OVC,,0.14,93.0,WeatherDisplay:10.37,2013-11-05 17:35:00,
2013-11-05 11:37:00,57.3,56.2,29.92,SSW,202,3.6,6.9,96,0.00,OVC,,0.14,141.0,WeatherDisplay:10.37,2013-11-05 17:37:00,
2013-11-05 11:38:00,57.4,56.3,29.92,SSE,162,5.1,8.0,96,0.00,OVC,,0.14,83.0,WeatherDisplay:10.37,2013-11-05 17:38:00,
2013-11-05 11:40:00,57.4,56.3,29.92,South,170,4.7,6.9,96,0.00,OVC,,0.14,88.0,WeatherDisplay:10.37,2013-11-05 17:40:00,
2013-11-05 11:41:00,57.5,56.4,29.92,South,177,5.7,11.5,96,0.00,OVC,,0.14,95.0,WeatherDisplay:10.37,2013-11-05 17:41:00,
2013-11-05 11:42:00,57.4,56.3,29.92,SSE,151,1.5,11.5,96,0.00,OVC,,0.14,90.0,WeatherDisplay:10.37,2013-11-05 17:42:00,
2013-11-05 11:43:00,57.4,56.3,29.92,SE,136,3.1,3.5,96,0.00,OVC,,0.14,120.0,WeatherDisplay:10.37,2013-11-05 17:43:00,
2013-11-05 11:45:00,57.5,56.4,29.91,SSE,158,2.7,10.4,96,0.00,OVC,,0.14,135.0,WeatherDisplay:10.37,2013-11-05 17:45:00,
2013-11-05 11:46:00,57.5,56.4,29.91,South,171,3.2,6.0,96,0.00,OVC,,0.14,123.0,WeatherDisplay:10.37,2013-11-05 17:46:00,
2013-11-05 11:47:00,57.5,56.4,29.91,SE,137,2.1,5.8,96,0.00,OVC,,0.14,125.0,WeatherDisplay:10.37,2013-11-05 17:47:00,
2013-11-05 11:48:00,57.5,56.4,29.91,SSE,162,2.9,5.0,96,0.00,OVC,,0.14,104.0,WeatherDisplay:10.37,2013-11-05 17:48:00,
2013-11-05 11:49:00,57.5,56.4,29.91,SE,134,3.1,5.8,96,0.00,OVC,,0.14,104.0,WeatherDisplay:10.37,2013-11-05 17:49:00,
2013-11-05 11:51:00,57.5,56.4,29.91,SE,132,2.2,4.6,96,0.00,OVC,,0.14,58.0,WeatherDisplay:10.37,2013-11-05 17:51:00,
2013-11-05 11:52:00,57.5,56.4,29.91,ESE,117,2.2,3.5,96,0.00,OVC,,0.14,51.0,WeatherDisplay:10.37,2013-11-05 17:52:00,
2013-11-05 11:54:00,57.5,56.4,29.91,SSE,155,2.2,6.9,96,0.00,OVC,,0.14,62.0,WeatherDisplay:10.37,2013-11-05 17:54:00,
2013-11-05 11:57:00,57.5,56.4,29.91,South,175,3.7,6.9,96,0.00,OVC,,0.14,77.0,WeatherDisplay:10.37,2013-11-05 17:57:00,
2013-11-05 11:59:00,57.5,56.4,29.91,West,280,5.0,10.4,96,0.00,OVC,,0.14,56.0,WeatherDisplay:10.37,2013-11-05 17:59:00,
2013-11-05 12:00:00,57.5,56.4,29.91,South,185,4.4,10.4,96,0.00,OVC,,0.14,53.0,WeatherDisplay:10.37,2013-11-05 18:00:00,
2013-11-05 12:02:00,57.5,56.4,29.91,South,179,6.4,12.7,96,0.00,OVC,,0.14,39.0,WeatherDisplay:10.37,2013-11-05 18:02:00,
2013-11-05 12:03:00,57.5,56.4,29.91,South,186,6.5,11.5,96,0.00,OVC,,0.14,44.0,WeatherDisplay:10.37,2013-11-05 18:03:00,
2013-11-05 12:04:00,57.5,56.1,29.91,SSW,198,3.2,11.5,95,0.00,OVC,,0.14,51.0,WeatherDisplay:10.37,2013-11-05 18:04:00,
2013-11-05 12:05:00,57.5,56.1,29.91,SSE,163,5.0,11.5,95,0.00,OVC,,0.14,58.0,WeatherDisplay:10.37,2013-11-05 18:05:00,
2013-11-05 12:07:00,57.6,56.2,29.90,South,171,1.8,6.0,95,0.00,OVC,,0.14,65.0,WeatherDisplay:10.37,2013-11-05 18:07:00,
2013-11-05 12:08:00,57.6,56.2,29.90,South,188,3.0,6.9,95,0.00,OVC,,0.14,56.0,WeatherDisplay:10.37,2013-11-05 18:08:00,
2013-11-05 12:09:00,57.6,56.2,29.90,SSE,153,4.7,10.4,95,0.00,OVC,,0.14,46.0,WeatherDisplay:10.37,2013-11-05 18:09:00,
2013-11-05 12:10:00,57.6,56.2,29.90,SSE,150,4.6,8.0,95,0.00,OVC,,0.14,46.0,WeatherDisplay:10.37,2013-11-05 18:10:00,
2013-11-05 12:11:00,57.6,56.2,29.90,SSW,192,5.9,11.5,95,0.00,OVC,,0.14,54.0,WeatherDisplay:10.37,2013-11-05 18:11:00,
2013-11-05 12:12:00,57.6,56.2,29.90,SSW,193,4.3,8.1,95,0.00,OVC,,0.14,70.0,WeatherDisplay:10.37,2013-11-05 18:12:00,
2013-11-05 12:13:00,57.6,56.2,29.90,SE,129,3.5,7.0,95,0.00,OVC,,0.14,79.0,WeatherDisplay:10.37,2013-11-05 18:13:00,
2013-11-05 12:15:00,57.7,56.3,29.90,South,175,4.8,9.2,95,0.00,OVC,,0.14,90.0,WeatherDisplay:10.37,2013-11-05 18:15:00,
2013-11-05 12:16:00,57.7,56.3,29.90,South,180,3.9,9.2,95,0.00,OVC,,0.14,91.0,WeatherDisplay:10.37,2013-11-05 18:16:00,
2013-11-05 12:17:00,57.7,56.3,29.90,South,169,5.1,13.8,95,0.00,OVC,,0.14,74.0,WeatherDisplay:10.37,2013-11-05 18:17:00,
2013-11-05 12:18:00,57.8,56.4,29.90,SSE,155,5.2,13.8,95,0.00,OVC,,0.14,60.0,WeatherDisplay:10.37,2013-11-05 18:18:00,
2013-11-05 12:20:00,57.8,56.4,29.90,South,173,7.5,13.8,95,0.00,OVC,,0.14,47.0,WeatherDisplay:10.37,2013-11-05 18:20:00,
2013-11-05 12:21:00,57.8,56.4,29.90,SW,215,6.2,13.8,95,0.00,OVC,,0.14,62.0,WeatherDisplay:10.37,2013-11-05 18:21:00,
2013-11-05 12:22:00,57.8,56.4,29.90,South,173,4.0,9.2,95,0.00,OVC,,0.14,123.0,WeatherDisplay:10.37,2013-11-05 18:22:00,
2013-11-05 12:23:00,57.8,56.4,29.89,ESE,119,3.8,11.5,95,0.00,OVC,,0.14,123.0,WeatherDisplay:10.37,2013-11-05 18:23:00,
2013-11-05 12:25:00,57.9,56.5,29.89,SSE,154,3.2,9.2,95,0.00,OVC,,0.14,58.0,WeatherDisplay:10.37,2013-11-05 18:25:00,
2013-11-05 12:26:00,58.0,56.6,29.89,ENE,63,1.3,4.6,95,0.00,OVC,,0.14,42.0,WeatherDisplay:10.37,2013-11-05 18:26:00,
2013-11-05 12:27:00,58.0,56.6,29.89,SSW,195,1.9,3.5,95,0.00,OVC,,0.14,37.0,WeatherDisplay:10.37,2013-11-05 18:27:00,
2013-11-05 12:28:00,58.0,56.6,29.89,SSE,165,1.9,5.0,95,0.00,OVC,,0.14,42.0,WeatherDisplay:10.37,2013-11-05 18:28:00,
2013-11-05 12:30:00,58.0,56.6,29.89,SSE,157,3.5,6.9,95,0.00,OVC,,0.14,116.0,WeatherDisplay:10.37,2013-11-05 18:30:00,
2013-11-05 12:31:00,58.0,56.6,29.89,SE,146,3.8,10.4,95,0.00,OVC,,0.14,107.0,WeatherDisplay:10.37,2013-11-05 18:31:00,
2013-11-05 12:32:00,58.1,56.7,29.89,SE,130,4.5,11.5,95,0.00,OVC,,0.14,98.0,WeatherDisplay:10.37,2013-11-05 18:32:00,
2013-11-05 12:33:00,58.1,56.7,29.89,SSW,207,5.5,11.5,95,0.00,OVC,,0.14,84.0,WeatherDisplay:10.37,2013-11-05 18:33:00,
2013-11-05 12:34:00,58.1,56.7,29.88,SSE,165,2.5,11.5,95,0.00,OVC,,0.14,90.0,WeatherDisplay:10.37,2013-11-05 18:34:00,
2013-11-05 12:36:00,58.1,56.4,29.88,South,190,4.8,8.1,94,0.00,OVC,,0.14,67.0,WeatherDisplay:10.37,2013-11-05 18:36:00,
2013-11-05 12:38:00,58.2,56.5,29.88,South,180,5.9,12.7,94,0.00,OVC,,0.14,67.0,WeatherDisplay:10.37,2013-11-05 18:38:00,
2013-11-05 12:39:00,58.2,56.5,29.88,South,188,2.5,6.9,94,0.00,OVC,,0.14,81.0,WeatherDisplay:10.37,2013-11-05 18:39:00,
2013-11-05 12:41:00,58.2,56.5,29.88,SSW,192,3.5,9.2,94,0.00,OVC,,0.14,86.0,WeatherDisplay:10.37,2013-11-05 18:41:00,
2013-11-05 12:42:00,58.2,56.5,29.88,SE,142,2.2,4.0,94,0.00,OVC,,0.14,84.0,WeatherDisplay:10.37,2013-11-05 18:42:00,
2013-11-05 12:43:00,58.3,56.6,29.88,East,84,4.0,8.0,94,0.00,OVC,,0.14,100.0,WeatherDisplay:10.37,2013-11-05 18:43:00,
2013-11-05 12:44:00,58.3,56.6,29.88,South,178,4.6,9.2,94,0.00,OVC,,0.14,135.0,WeatherDisplay:10.37,2013-11-05 18:44:00,
2013-11-05 12:46:00,58.4,56.7,29.88,South,178,2.7,5.8,94,0.00,OVC,,0.14,141.0,WeatherDisplay:10.37,2013-11-05 18:46:00,
2013-11-05 12:47:00,58.4,56.7,29.88,ESE,120,2.2,9.2,94,0.00,OVC,,0.14,127.0,WeatherDisplay:10.37,2013-11-05 18:47:00,
2013-11-05 12:48:00,58.4,56.7,29.88,South,187,2.6,7.0,94,0.00,OVC,,0.14,127.0,WeatherDisplay:10.37,2013-11-05 18:48:00,
2013-11-05 12:49:00,58.5,56.8,29.88,SSE,165,2.4,8.1,94,0.00,OVC,,0.14,81.0,WeatherDisplay:10.37,2013-11-05 18:49:00,
2013-11-05 12:50:00,58.5,56.8,29.88,SSE,165,2.4,8.1,94,0.00,OVC,,0.14,81.0,WeatherDisplay:10.37,2013-11-05 18:50:00,
2013-11-05 12:51:00,58.5,56.8,29.88,SSE,148,3.5,9.0,94,0.00,OVC,,0.14,70.0,WeatherDisplay:10.37,2013-11-05 18:51:00,
2013-11-05 12:53:00,58.5,56.8,29.88,SE,144,3.4,10.4,94,0.00,OVC,,0.14,51.0,WeatherDisplay:10.37,2013-11-05 18:53:00,
2013-11-05 12:55:00,58.6,56.6,29.88,SSE,160,5.6,9.2,93,0.00,OVC,,0.14,47.0,WeatherDisplay:10.37,2013-11-05 18:55:00,
2013-11-05 12:56:00,58.6,56.6,29.88,SSW,196,5.8,15.0,93,0.00,OVC,,0.14,49.0,WeatherDisplay:10.37,2013-11-05 18:56:00,
2013-11-05 12:58:00,58.6,56.6,29.88,South,181,3.1,3.5,93,0.00,OVC,,0.14,56.0,WeatherDisplay:10.37,2013-11-05 18:58:00,
2013-11-05 13:00:00,58.6,56.6,29.87,SSW,205,5.1,14.0,93,0.00,OVC,,0.14,88.0,WeatherDisplay:10.37,2013-11-05 19:00:00,
2013-11-05 13:01:00,58.6,56.6,29.87,SSE,149,3.4,13.8,93,0.00,OVC,,0.14,72.0,WeatherDisplay:10.37,2013-11-05 19:01:00,
2013-11-05 13:03:00,58.6,56.6,29.87,SSE,153,5.9,17.3,93,0.00,OVC,,0.14,74.0,WeatherDisplay:10.37,2013-11-05 19:03:00,
2013-11-05 13:04:00,58.6,56.6,29.87,ESE,107,6.9,12.7,93,0.00,OVC,,0.14,74.0,WeatherDisplay:10.37,2013-11-05 19:04:00,
2013-11-05 13:05:00,58.6,56.6,29.87,SSE,156,3.6,12.7,93,0.00,OVC,,0.14,70.0,WeatherDisplay:10.37,2013-11-05 19:05:00,
2013-11-05 13:07:00,58.7,56.7,29.87,SSE,161,1.7,4.6,93,0.00,OVC,,0.14,104.0,WeatherDisplay:10.37,2013-11-05 19:07:00,
2013-11-05 13:08:00,58.7,56.7,29.87,SSE,167,2.7,8.1,93,0.00,OVC,,0.14,123.0,WeatherDisplay:10.37,2013-11-05 19:08:00,
2013-11-05 13:09:00,58.7,56.7,29.87,SSE,159,2.3,3.5,93,0.00,OVC,,0.14,123.0,WeatherDisplay:10.37,2013-11-05 19:09:00,
2013-11-05 13:10:00,58.8,56.8,29.87,South,186,5.4,11.5,93,0.00,OVC,,0.14,98.0,WeatherDisplay:10.37,2013-11-05 19:10:00,
2013-11-05 13:12:00,58.8,56.8,29.86,SE,129,4.6,11.5,93,0.00,OVC,,0.14,95.0,WeatherDisplay:10.37,2013-11-05 19:12:00,
2013-11-05 13:14:00,58.8,56.8,29.86,SE,140,4.4,8.1,93,0.00,OVC,,0.14,79.0,WeatherDisplay:10.37,2013-11-05 19:14:00,
2013-11-05 13:15:00,58.8,56.8,29.86,SSE,159,3.1,5.8,93,0.00,OVC,,0.14,74.0,WeatherDisplay:10.37,2013-11-05 19:15:00,
2013-11-05 13:16:00,58.8,56.8,29.86,South,189,5.2,10.4,93,0.00,OVC,,0.14,62.0,WeatherDisplay:10.37,2013-11-05 19:16:00,
2013-11-05 13:17:00,58.8,56.8,29.86,SSE,165,6.5,12.7,93,0.00,OVC,,0.14,58.0,WeatherDisplay:10.37,2013-11-05 19:17:00,
2013-11-05 13:18:00,58.8,56.8,29.86,SE,132,4.2,9.2,93,0.00,OVC,,0.14,47.0,WeatherDisplay:10.37,2013-11-05 19:18:00,
2013-11-05 13:19:00,58.8,56.8,29.86,SSE,167,3.4,9.2,93,0.00,OVC,,0.14,47.0,WeatherDisplay:10.37,2013-11-05 19:19:00,
2013-11-05 13:20:00,58.8,56.8,29.86,SSE,160,4.0,4.6,93,0.00,OVC,,0.14,47.0,WeatherDisplay:10.37,2013-11-05 19:20:00,
2013-11-05 13:21:00,58.8,56.8,29.86,SSE,157,3.8,6.9,93,0.00,OVC,,0.14,40.0,WeatherDisplay:10.37,2013-11-05 19:21:00,
2013-11-05 13:22:00,58.8,56.8,29.86,SSE,155,2.4,5.8,93,0.00,OVC,,0.14,47.0,WeatherDisplay:10.37,2013-11-05 19:22:00,
2013-11-05 13:24:00,58.8,56.8,29.86,SE,138,3.4,5.8,93,0.00,OVC,,0.14,53.0,WeatherDisplay:10.37,2013-11-05 19:24:00,
2013-11-05 13:25:00,58.8,56.8,29.86,WSW,244,3.6,5.8,93,0.00,OVC,,0.14,53.0,WeatherDisplay:10.37,2013-11-05 19:25:00,
2013-11-05 13:26:00,58.8,56.8,29.86,SE,129,4.6,9.2,93,0.00,OVC,,0.14,42.0,WeatherDisplay:10.37,2013-11-05 19:26:00,
2013-11-05 13:27:00,58.8,56.8,29.86,SSW,203,7.1,12.7,93,0.00,OVC,,0.14,46.0,WeatherDisplay:10.37,2013-11-05 19:27:00,
2013-11-05 13:29:00,58.7,56.7,29.86,South,175,4.3,5.8,93,0.00,OVC,,0.14,49.0,WeatherDisplay:10.37,2013-11-05 19:29:00,
2013-11-05 13:30:00,58.7,56.7,29.86,East,88,3.9,6.9,93,0.00,OVC,,0.14,49.0,WeatherDisplay:10.37,2013-11-05 19:30:00,
2013-11-05 13:31:00,58.7,56.7,29.86,SE,140,2.3,5.8,93,0.00,OVC,,0.14,44.0,WeatherDisplay:10.37,2013-11-05 19:31:00,
2013-11-05 13:33:00,58.7,56.7,29.86,South,175,4.1,6.0,93,0.00,OVC,,0.14,40.0,WeatherDisplay:10.37,2013-11-05 19:33:00,
2013-11-05 13:34:00,58.7,56.7,29.86,SE,140,3.4,9.2,93,0.00,OVC,,0.14,37.0,WeatherDisplay:10.37,2013-11-05 19:34:00,
2013-11-05 13:35:00,58.7,56.7,29.86,SSE,162,3.4,8.1,93,0.00,OVC,,0.14,37.0,WeatherDisplay:10.37,2013-11-05 19:35:00,
2013-11-05 13:36:00,58.7,56.7,29.86,SSW,200,4.7,9.2,93,0.00,OVC,,0.14,44.0,WeatherDisplay:10.37,2013-11-05 19:36:00,
2013-11-05 13:37:00,58.7,56.7,29.86,WNW,283,3.5,6.9,93,0.00,OVC,,0.14,39.0,WeatherDisplay:10.37,2013-11-05 19:37:00,
2013-11-05 13:38:00,58.7,56.7,29.86,SE,140,3.9,12.7,93,0.00,OVC,,0.14,37.0,WeatherDisplay:10.37,2013-11-05 19:38:00,
2013-11-05 13:39:00,58.7,56.7,29.86,South,186,6.7,10.0,93,0.00,OVC,,0.14,33.0,WeatherDisplay:10.37,2013-11-05 19:39:00,
2013-11-05 13:40:00,58.7,56.7,29.86,South,188,6.5,12.7,93,0.00,OVC,,0.14,30.0,WeatherDisplay:10.37,2013-11-05 19:40:00,
2013-11-05 13:41:00,58.7,56.7,29.86,South,187,5.2,10.4,93,0.00,OVC,,0.14,28.0,WeatherDisplay:10.37,2013-11-05 19:41:00,
2013-11-05 13:42:00,58.7,56.7,29.86,SE,138,3.5,6.9,93,0.00,OVC,,0.14,32.0,WeatherDisplay:10.37,2013-11-05 19:42:00,
2013-11-05 13:44:00,58.7,56.7,29.85,South,169,3.3,9.2,93,0.00,OVC,,0.14,42.0,WeatherDisplay:10.37,2013-11-05 19:44:00,
2013-11-05 13:45:00,58.7,56.7,29.85,ESE,123,4.3,9.2,93,0.00,OVC,,0.14,46.0,WeatherDisplay:10.37,2013-11-05 19:45:00,
2013-11-05 13:46:00,58.7,56.7,29.85,SE,124,6.1,11.5,93,0.00,OVC,,0.14,37.0,WeatherDisplay:10.37,2013-11-05 19:46:00,
2013-11-05 13:47:00,58.7,56.7,29.85,SSE,160,5.7,11.5,93,0.00,OVC,,0.14,47.0,WeatherDisplay:10.37,2013-11-05 19:47:00,
2013-11-05 13:49:00,58.7,56.7,29.85,SSW,202,6.2,10.4,93,0.00,OVC,,0.14,47.0,WeatherDisplay:10.37,2013-11-05 19:49:00,
2013-11-05 13:50:00,58.6,56.6,29.85,SSE,160,6.2,11.5,93,0.00,OVC,,0.14,46.0,WeatherDisplay:10.37,2013-11-05 19:50:00,
2013-11-05 13:51:00,58.7,56.7,29.85,SSE,165,5.0,13.8,93,0.00,OVC,,0.14,42.0,WeatherDisplay:10.37,2013-11-05 19:51:00,
2013-11-05 13:52:00,58.7,56.7,29.85,SE,128,5.7,11.5,93,0.00,OVC,,0.14,42.0,WeatherDisplay:10.37,2013-11-05 19:52:00,
2013-11-05 13:54:00,58.7,56.7,29.85,SSE,167,4.5,10.4,93,0.00,OVC,,0.14,56.0,WeatherDisplay:10.37,2013-11-05 19:54:00,
2013-11-05 13:55:00,58.7,56.7,29.84,SSE,153,3.1,8.1,93,0.00,OVC,,0.14,70.0,WeatherDisplay:10.37,2013-11-05 19:55:00,
2013-11-05 13:56:00,58.7,56.7,29.84,SSE,161,3.7,8.1,93,0.00,OVC,,0.14,58.0,WeatherDisplay:10.37,2013-11-05 19:56:00,
2013-11-05 13:57:00,58.6,56.6,29.84,South,182,3.8,5.8,93,0.00,OVC,,0.14,56.0,WeatherDisplay:10.37,2013-11-05 19:57:00,
2013-11-05 13:59:00,58.7,56.7,29.84,South,169,1.4,3.5,93,0.00,OVC,,0.14,49.0,WeatherDisplay:10.37,2013-11-05 19:59:00,
2013-11-05 14:01:00,58.7,56.7,29.84,SSW,207,4.3,10.4,93,0.00,OVC,,0.14,40.0,WeatherDisplay:10.37,2013-11-05 20:01:00,
2013-11-05 14:02:00,58.7,56.7,29.84,South,184,5.9,9.2,93,0.00,OVC,,0.14,40.0,WeatherDisplay:10.37,2013-11-05 20:02:00,
2013-11-05 14:04:00,58.7,56.7,29.84,SSW,196,4.4,12.7,93,0.00,OVC,,0.14,30.0,WeatherDisplay:10.37,2013-11-05 20:04:00,
2013-11-05 14:06:00,58.7,56.7,29.84,SSE,162,4.2,8.1,93,0.00,OVC,,0.14,32.0,WeatherDisplay:10.37,2013-11-05 20:06:00,
2013-11-05 14:07:00,58.7,56.7,29.84,SSE,164,4.6,11.5,93,0.00,OVC,,0.14,46.0,WeatherDisplay:10.37,2013-11-05 20:07:00,
2013-11-05 14:08:00,58.7,56.7,29.84,SSW,192,2.6,8.1,93,0.00,OVC,,0.14,39.0,WeatherDisplay:10.37,2013-11-05 20:08:00,
2013-11-05 14:09:00,58.7,56.7,29.84,ESE,120,2.4,8.1,93,0.00,OVC,,0.14,26.0,WeatherDisplay:10.37,2013-11-05 20:09:00,
2013-11-05 14:11:00,58.7,56.7,29.84,SSE,161,4.1,6.9,93,0.00,OVC,,0.14,23.0,WeatherDisplay:10.37,2013-11-05 20:11:00,
2013-11-05 14:12:00,58.7,56.7,29.84,SSE,148,2.4,6.9,93,0.00,OVC,,0.14,25.0,WeatherDisplay:10.37,2013-11-05 20:12:00,
2013-11-05 14:13:00,58.7,56.7,29.84,SSE,154,4.7,6.0,93,0.00,OVC,,0.14,25.0,WeatherDisplay:10.37,2013-11-05 20:13:00,
2013-11-05 14:14:00,58.7,56.7,29.84,SSE,167,5.0,14.0,93,0.00,OVC,,0.14,16.0,WeatherDisplay:10.37,2013-11-05 20:14:00,
2013-11-05 14:16:00,58.7,56.7,29.84,South,180,1.5,11.5,93,0.00,OVC,,0.14,16.0,WeatherDisplay:10.37,2013-11-05 20:16:00,
2013-11-05 14:17:00,58.7,56.7,29.84,SSW,196,1.9,6.0,93,0.00,OVC,,0.14,14.0,WeatherDisplay:10.37,2013-11-05 20:17:00,
2013-11-05 14:18:00,58.7,56.7,29.84,SE,146,2.4,5.8,93,0.00,OVC,,0.14,14.0,WeatherDisplay:10.37,2013-11-05 20:18:00,
2013-11-05 14:19:00,58.7,56.7,29.84,ESE,121,2.3,6.0,93,0.00,OVC,,0.14,14.0,WeatherDisplay:10.37,2013-11-05 20:19:00,
2013-11-05 14:20:00,58.7,57.0,29.84,SSE,162,4.6,10.0,94,0.00,OVC,,0.14,12.0,WeatherDisplay:10.37,2013-11-05 20:20:00,
2013-11-05 14:22:00,58.6,56.9,29.84,South,182,2.0,4.6,94,0.00,OVC,,0.14,21.0,WeatherDisplay:10.37,2013-11-05 20:22:00,
2013-11-05 14:23:00,58.6,56.9,29.84,SSE,154,3.5,5.8,94,0.00,OVC,,0.14,18.0,WeatherDisplay:10.37,2013-11-05 20:23:00,
2013-11-05 14:24:00,58.6,56.9,29.84,SSE,147,4.4,6.9,94,0.00,OVC,,0.14,18.0,WeatherDisplay:10.37,2013-11-05 20:24:00,
2013-11-05 14:25:00,58.6,56.9,29.84,SSE,150,3.7,9.2,94,0.00,OVC,,0.14,16.0,WeatherDisplay:10.37,2013-11-05 20:25:00,
2013-11-05 14:27:00,58.6,56.9,29.84,SE,136,3.6,11.5,94,0.00,OVC,,0.14,18.0,WeatherDisplay:10.37,2013-11-05 20:27:00,
2013-11-05 14:28:00,58.6,56.9,29.84,SE,125,2.2,8.1,94,0.00,OVC,,0.14,16.0,WeatherDisplay:10.37,2013-11-05 20:28:00,
2013-11-05 14:29:00,58.5,56.8,29.84,SSE,164,3.4,8.1,94,0.00,OVC,,0.14,18.0,WeatherDisplay:10.37,2013-11-05 20:29:00,
2013-11-05 14:30:00,58.5,56.8,29.84,SSE,153,2.7,5.8,94,0.00,OVC,,0.15,19.0,WeatherDisplay:10.37,2013-11-05 20:30:00,
2013-11-05 14:32:00,58.5,56.8,29.83,SSE,157,4.8,9.0,94,0.01,RA,,0.15,21.0,WeatherDisplay:10.37,2013-11-05 20:32:00,
2013-11-05 14:33:00,58.5,56.8,29.83,South,169,3.0,9.2,94,0.01,RA,,0.15,26.0,WeatherDisplay:10.37,2013-11-05 20:33:00,
2013-11-05 14:34:00,58.5,56.8,29.83,SSE,162,3.4,4.6,94,0.01,RA,,0.15,30.0,WeatherDisplay:10.37,2013-11-05 20:34:00,
2013-11-05 14:35:00,58.5,56.8,29.83,South,177,3.2,6.9,94,0.01,RA,,0.15,30.0,WeatherDisplay:10.37,2013-11-05 20:35:00,
2013-11-05 14:37:00,58.4,57.0,29.83,South,175,3.4,6.9,95,0.01,RA,,0.15,23.0,WeatherDisplay:10.37,2013-11-05 20:37:00,
2013-11-05 14:38:00,58.4,57.0,29.83,SW,221,2.2,5.8,95,0.01,RA,,0.15,25.0,WeatherDisplay:10.37,2013-11-05 20:38:00,
2013-11-05 14:39:00,58.4,57.0,29.83,SE,131,3.2,8.1,95,0.01,RA,,0.15,25.0,WeatherDisplay:10.37,2013-11-05 20:39:00,
2013-11-05 14:40:00,58.4,57.0,29.83,SSE,165,1.9,3.5,95,0.01,RA,,0.15,23.0,WeatherDisplay:10.37,2013-11-05 20:40:00,
2013-11-05 14:41:00,58.4,57.0,29.83,South,180,1.7,3.5,95,0.01,OVC,,0.15,23.0,WeatherDisplay:10.37,2013-11-05 20:41:00,
2013-11-05 14:42:00,58.4,57.0,29.83,SW,229,5.5,9.2,95,0.01,OVC,,0.15,25.0,WeatherDisplay:10.37,2013-11-05 20:42:00,
2013-11-05 14:43:00,58.4,57.0,29.83,SSE,166,5.1,8.1,95,0.01,OVC,,0.15,30.0,WeatherDisplay:10.37,2013-11-05 20:43:00,
2013-11-05 14:44:00,58.4,57.0,29.83,SSW,213,4.3,8.1,95,0.01,OVC,,0.15,35.0,WeatherDisplay:10.37,2013-11-05 20:44:00,
2013-11-05 14:45:00,58.4,57.0,29.83,SW,215,3.2,8.1,95,0.01,OVC,,0.15,35.0,WeatherDisplay:10.37,2013-11-05 20:45:00,
2013-11-05 14:46:00,58.4,57.0,29.83,SSW,194,4.6,8.1,95,0.01,OVC,,0.15,30.0,WeatherDisplay:10.37,2013-11-05 20:46:00,
2013-11-05 14:47:00,58.4,57.0,29.83,South,190,4.6,10.4,95,0.01,OVC,,0.15,30.0,WeatherDisplay:10.37,2013-11-05 20:47:00,
2013-11-05 14:48:00,58.4,57.0,29.83,SSE,166,3.7,8.1,95,0.01,OVC,,0.15,32.0,WeatherDisplay:10.37,2013-11-05 20:48:00,
2013-11-05 14:49:00,58.4,57.0,29.83,South,190,3.3,4.6,95,0.01,OVC,,0.15,28.0,WeatherDisplay:10.37,2013-11-05 20:49:00,
2013-11-05 14:50:00,58.4,57.0,29.83,SSE,150,3.5,9.2,95,0.01,OVC,,0.15,30.0,WeatherDisplay:10.37,2013-11-05 20:50:00,
2013-11-05 14:51:00,58.4,57.0,29.83,SSE,160,3.6,5.8,95,0.01,OVC,,0.15,32.0,WeatherDisplay:10.37,2013-11-05 20:51:00,
2013-11-05 14:52:00,58.4,57.0,29.83,South,189,3.0,8.1,95,0.01,OVC,,0.15,30.0,WeatherDisplay:10.37,2013-11-05 20:52:00,
2013-11-05 14:53:00,58.4,57.0,29.83,ESE,121,2.8,3.5,95,0.01,OVC,,0.15,35.0,WeatherDisplay:10.37,2013-11-05 20:53:00,
2013-11-05 14:54:00,58.4,57.0,29.83,SE,132,4.2,6.9,95,0.01,OVC,,0.15,47.0,WeatherDisplay:10.37,2013-11-05 20:54:00,
2013-11-05 14:55:00,58.4,57.0,29.83,South,189,4.5,8.1,95,0.01,OVC,,0.15,49.0,WeatherDisplay:10.37,2013-11-05 20:55:00,
2013-11-05 14:57:00,58.5,57.1,29.83,SSE,150,2.8,4.0,95,0.01,OVC,,0.15,44.0,WeatherDisplay:10.37,2013-11-05 20:57:00,
2013-11-05 14:58:00,58.5,57.1,29.83,SSE,165,2.6,6.9,95,0.01,OVC,,0.15,37.0,WeatherDisplay:10.37,2013-11-05 20:58:00,
2013-11-05 14:59:00,58.5,57.1,29.83,SSE,158,3.1,5.8,95,0.01,OVC,,0.15,44.0,WeatherDisplay:10.37,2013-11-05 20:59:00,
2013-11-05 15:01:00,58.5,57.1,29.83,SE,144,2.8,8.1,95,0.01,OVC,,0.15,44.0,WeatherDisplay:10.37,2013-11-05 21:01:00,
2013-11-05 15:02:00,58.5,57.1,29.83,SSE,163,5.1,6.9,95,0.01,OVC,,0.15,53.0,WeatherDisplay:10.37,2013-11-05 21:02:00,
2013-11-05 15:03:00,58.5,57.1,29.83,SSE,167,4.9,11.5,95,0.01,OVC,,0.15,47.0,WeatherDisplay:10.37,2013-11-05 21:03:00,
2013-11-05 15:05:00,58.6,57.2,29.83,SW,223,3.6,9.2,95,0.01,OVC,,0.15,40.0,WeatherDisplay:10.37,2013-11-05 21:05:00,
2013-11-05 15:06:00,58.6,57.2,29.83,SSW,200,1.9,4.6,95,0.01,OVC,,0.15,21.0,WeatherDisplay:10.37,2013-11-05 21:06:00,
2013-11-05 15:07:00,58.6,57.2,29.83,South,182,3.6,9.2,95,0.01,OVC,,0.15,19.0,WeatherDisplay:10.37,2013-11-05 21:07:00,
2013-11-05 15:08:00,58.6,57.2,29.83,SSE,150,2.8,9.2,95,0.01,OVC,,0.15,19.0,WeatherDisplay:10.37,2013-11-05 21:08:00,
2013-11-05 15:09:00,58.6,57.2,29.82,SE,140,6.9,11.5,95,0.01,OVC,,0.15,40.0,WeatherDisplay:10.37,2013-11-05 21:09:00,
2013-11-05 15:10:00,58.6,57.2,29.82,SE,124,6.6,11.5,95,0.01,OVC,,0.15,40.0,WeatherDisplay:10.37,2013-11-05 21:10:00,
2013-11-05 15:11:00,58.7,57.3,29.83,SE,139,3.2,11.5,95,0.01,OVC,,0.15,37.0,WeatherDisplay:10.37,2013-11-05 21:11:00,
2013-11-05 15:12:00,58.7,57.3,29.82,SSW,210,2.6,4.0,95,0.01,OVC,,0.15,30.0,WeatherDisplay:10.37,2013-11-05 21:12:00,
2013-11-05 15:13:00,58.7,57.3,29.83,SSE,163,4.1,6.9,95,0.01,OVC,,0.15,33.0,WeatherDisplay:10.37,2013-11-05 21:13:00,
2013-11-05 15:14:00,58.7,57.3,29.83,SSE,151,2.9,6.9,95,0.01,OVC,,0.15,44.0,WeatherDisplay:10.37,2013-11-05 21:14:00,
2013-11-05 15:15:00,58.7,57.3,29.83,SSE,166,2.1,5.8,95,0.01,OVC,,0.15,44.0,WeatherDisplay:10.37,2013-11-05 21:15:00,
2013-11-05 15:17:00,58.7,57.3,29.83,SW,216,5.4,11.5,95,0.01,OVC,,0.15,42.0,WeatherDisplay:10.37,2013-11-05 21:17:00,
2013-11-05 15:18:00,58.7,57.3,29.83,SSE,158,5.6,9.2,95,0.01,OVC,,0.15,44.0,WeatherDisplay:10.37,2013-11-05 21:18:00,
2013-11-05 15:19:00,58.7,57.3,29.83,SE,146,6.8,9.2,95,0.01,OVC,,0.15,51.0,WeatherDisplay:10.37,2013-11-05 21:19:00,
2013-11-05 15:20:00,58.7,57.3,29.83,SE,146,6.8,9.2,95,0.01,OVC,,0.15,51.0,WeatherDisplay:10.37,2013-11-05 21:20:00,
2013-11-05 15:23:00,58.8,57.4,29.82,SSW,194,3.5,6.9,95,0.01,OVC,,0.15,40.0,WeatherDisplay:10.37,2013-11-05 21:23:00,
2013-11-05 15:25:00,58.9,57.5,29.82,SSE,163,3.3,10.4,95,0.01,OVC,,0.15,37.0,WeatherDisplay:10.37,2013-11-05 21:25:00,
2013-11-05 15:28:00,58.9,57.5,29.82,South,181,2.6,5.8,95,0.01,OVC,,0.15,19.0,WeatherDisplay:10.37,2013-11-05 21:28:00,
2013-11-05 15:29:00,58.9,57.5,29.82,SSE,148,2.0,4.6,95,0.01,OVC,,0.15,18.0,WeatherDisplay:10.37,2013-11-05 21:29:00,
2013-11-05 15:30:00,58.9,57.5,29.83,South,191,4.1,8.0,95,0.01,OVC,,0.15,14.0,WeatherDisplay:10.37,2013-11-05 21:30:00,
2013-11-05 15:33:00,58.9,57.5,29.83,South,190,4.5,8.1,95,0.00,OVC,,0.15,21.0,WeatherDisplay:10.37,2013-11-05 21:33:00,
2013-11-05 15:34:00,59.0,57.6,29.82,SW,218,2.1,4.6,95,0.00,OVC,,0.15,19.0,WeatherDisplay:10.37,2013-11-05 21:34:00,
2013-11-05 15:35:00,59.0,57.6,29.82,SSW,197,2.8,6.9,95,0.00,OVC,,0.15,14.0,WeatherDisplay:10.37,2013-11-05 21:35:00,
2013-11-05 15:36:00,59.0,57.6,29.82,SE,139,3.8,6.9,95,0.00,OVC,,0.15,12.0,WeatherDisplay:10.37,2013-11-05 21:36:00,
2013-11-05 15:38:00,59.0,57.6,29.83,SSE,163,4.9,12.7,95,0.00,OVC,,0.15,18.0,WeatherDisplay:10.37,2013-11-05 21:38:00,
2013-11-05 15:39:00,59.0,57.6,29.82,South,180,1.4,6.9,95,0.00,OVC,,0.15,18.0,WeatherDisplay:10.37,2013-11-05 21:39:00,
2013-11-05 15:40:00,59.0,57.6,29.83,SSE,153,1.5,3.5,95,0.00,OVC,,0.15,14.0,WeatherDisplay:10.37,2013-11-05 21:40:00,
2013-11-05 15:41:00,59.0,57.6,29.83,SSE,153,3.4,7.0,95,0.00,OVC,,0.15,12.0,WeatherDisplay:10.37,2013-11-05 21:41:00,
2013-11-05 15:43:00,59.0,57.6,29.83,SE,145,3.1,5.8,95,0.00,OVC,,0.15,11.0,WeatherDisplay:10.37,2013-11-05 21:43:00,
2013-11-05 15:44:00,59.0,57.6,29.82,ESE,119,2.8,4.6,95,0.00,OVC,,0.15,11.0,WeatherDisplay:10.37,2013-11-05 21:44:00,
2013-11-05 15:45:00,59.0,57.6,29.82,SSE,165,6.2,13.8,95,0.00,OVC,,0.15,11.0,WeatherDisplay:10.37,2013-11-05 21:45:00,
2013-11-05 15:46:00,59.0,57.6,29.82,SSE,165,3.8,9.2,95,0.00,OVC,,0.15,9.0,WeatherDisplay:10.37,2013-11-05 21:46:00,
2013-11-05 15:49:00,59.0,57.6,29.82,SE,142,2.7,9.2,95,0.00,OVC,,0.15,7.0,WeatherDisplay:10.37,2013-11-05 21:49:00,
2013-11-05 15:50:00,59.0,57.6,29.82,SSE,163,2.9,4.6,95,0.00,OVC,,0.15,7.0,WeatherDisplay:10.37,2013-11-05 21:50:00,
2013-11-05 15:51:00,59.0,57.6,29.82,SW,225,2.7,6.9,95,0.00,OVC,,0.15,7.0,WeatherDisplay:10.37,2013-11-05 21:51:00,
2013-11-05 15:54:00,59.1,57.7,29.82,South,185,5.2,10.0,95,0.00,OVC,,0.15,7.0,WeatherDisplay:10.37,2013-11-05 21:54:00,
2013-11-05 15:55:00,59.1,57.7,29.82,SSE,149,6.5,11.5,95,0.00,OVC,,0.15,7.0,WeatherDisplay:10.37,2013-11-05 21:55:00,
2013-11-05 15:56:00,59.1,57.7,29.82,SSE,155,4.4,6.9,95,0.00,OVC,,0.15,7.0,WeatherDisplay:10.37,2013-11-05 21:56:00,
2013-11-05 15:59:00,59.1,57.7,29.82,SE,146,4.9,10.4,95,0.00,OVC,,0.15,7.0,WeatherDisplay:10.37,2013-11-05 21:59:00,
2013-11-05 16:00:00,59.1,57.7,29.82,South,173,2.7,5.8,95,0.00,CLR,,0.15,7.0,WeatherDisplay:10.37,2013-11-05 22:00:00,
2013-11-05 16:01:00,59.1,57.7,29.82,SSE,157,5.5,5.8,95,0.00,CLR,,0.15,5.0,WeatherDisplay:10.37,2013-11-05 22:01:00,
2013-11-05 16:02:00,59.1,57.7,29.82,SSE,155,4.8,11.5,95,0.00,CLR,,0.15,5.0,WeatherDisplay:10.37,2013-11-05 22:02:00,
2013-11-05 16:04:00,59.1,57.7,29.82,SSW,193,2.8,12.7,95,0.00,CLR,,0.15,11.0,WeatherDisplay:10.37,2013-11-05 22:04:00,
2013-11-05 16:06:00,59.2,57.8,29.81,SSW,202,1.1,3.5,95,0.00,CLR,,0.15,11.0,WeatherDisplay:10.37,2013-11-05 22:06:00,
2013-11-05 16:07:00,59.2,57.8,29.81,SSE,167,2.6,4.6,95,0.00,CLR,,0.15,11.0,WeatherDisplay:10.37,2013-11-05 22:07:00,
2013-11-05 16:09:00,59.2,57.8,29.81,South,178,2.0,6.0,95,0.00,CLR,,0.15,11.0,WeatherDisplay:10.37,2013-11-05 22:09:00,
2013-11-05 16:11:00,59.2,57.8,29.81,South,178,1.4,4.6,95,0.00,CLR,,0.15,12.0,WeatherDisplay:10.37,2013-11-05 22:11:00,
2013-11-05 16:12:00,59.2,57.8,29.81,South,174,3.6,6.9,95,0.00,CLR,,0.15,11.0,WeatherDisplay:10.37,2013-11-05 22:12:00,
2013-11-05 16:15:00,59.2,57.8,29.81,South,175,3.9,4.6,95,0.00,CLR,,0.15,11.0,WeatherDisplay:10.37,2013-11-05 22:15:00,
2013-11-05 16:16:00,59.3,57.9,29.81,South,182,3.4,5.8,95,0.00,CLR,,0.15,11.0,WeatherDisplay:10.37,2013-11-05 22:16:00,
2013-11-05 16:17:00,59.2,57.8,29.81,SSE,157,2.4,5.8,95,0.00,CLR,,0.15,7.0,WeatherDisplay:10.37,2013-11-05 22:17:00,
2013-11-05 16:21:00,59.3,57.9,29.81,SSW,198,1.3,3.5,95,0.00,CLR,,0.15,7.0,WeatherDisplay:10.37,2013-11-05 22:21:00,
2013-11-05 16:22:00,59.3,57.9,29.81,SSW,207,1.8,9.0,95,0.00,CLR,,0.15,7.0,WeatherDisplay:10.37,2013-11-05 22:22:00,
2013-11-05 16:23:00,59.3,57.9,29.81,SSW,203,2.3,9.2,95,0.00,CLR,,0.15,7.0,WeatherDisplay:10.37,2013-11-05 22:23:00,
2013-11-05 16:26:00,59.3,58.2,29.81,SSE,148,4.5,9.2,96,0.00,CLR,,0.15,7.0,WeatherDisplay:10.37,2013-11-05 22:26:00,
2013-11-05 16:27:00,59.3,58.2,29.81,SSE,155,2.4,9.2,96,0.00,CLR,,0.15,5.0,WeatherDisplay:10.37,2013-11-05 22:27:00,
2013-11-05 16:29:00,59.3,57.9,29.81,South,171,1.0,10.0,95,0.00,CLR,,0.15,0.0,WeatherDisplay:10.37,2013-11-05 22:29:00,
2013-11-05 16:31:00,59.4,58.0,29.81,South,185,2.4,10.4,95,0.00,CLR,,0.15,0.0,WeatherDisplay:10.37,2013-11-05 22:31:00,
2013-11-05 16:32:00,59.3,57.9,29.81,South,175,3.3,5.8,95,0.00,CLR,,0.15,0.0,WeatherDisplay:10.37,2013-11-05 22:32:00,
2013-11-05 16:35:00,59.4,58.0,29.81,SSW,211,2.0,4.0,95,0.00,CLR,,0.15,0.0,WeatherDisplay:10.37,2013-11-05 22:35:00,
2013-11-05 16:36:00,59.4,58.0,29.81,SE,133,4.2,4.6,95,0.00,CLR,,0.15,0.0,WeatherDisplay:10.37,2013-11-05 22:36:00,
2013-11-05 16:37:00,59.4,58.0,29.81,SE,134,2.3,9.2,95,0.00,CLR,,0.15,0.0,WeatherDisplay:10.37,2013-11-05 22:37:00,
2013-11-05 16:38:00,59.4,58.0,29.81,SE,136,2.3,8.1,95,0.00,CLR,,0.15,0.0,WeatherDisplay:10.37,2013-11-05 22:38:00,
2013-11-05 16:41:00,59.4,58.0,29.81,SSE,162,1.0,5.8,95,0.00,CLR,,0.15,0.0,WeatherDisplay:10.37,2013-11-05 22:41:00,
2013-11-05 16:42:00,59.4,58.0,29.81,South,186,1.2,3.5,95,0.00,CLR,,0.15,0.0,WeatherDisplay:10.37,2013-11-05 22:42:00,
2013-11-05 16:43:00,59.4,58.0,29.81,SSE,155,2.1,9.2,95,0.00,CLR,,0.15,0.0,WeatherDisplay:10.37,2013-11-05 22:43:00,
2013-11-05 16:46:00,59.4,58.0,29.82,South,175,3.5,6.9,95,0.00,CLR,,0.15,0.0,WeatherDisplay:10.37,2013-11-05 22:46:00,
2013-11-05 16:47:00,59.5,58.1,29.82,SSE,157,4.1,10.4,95,0.00,CLR,,0.15,0.0,WeatherDisplay:10.37,2013-11-05 22:47:00,
2013-11-05 16:48:00,59.5,58.1,29.82,SE,143,2.5,10.4,95,0.00,CLR,,0.15,0.0,WeatherDisplay:10.37,2013-11-05 22:48:00,
2013-11-05 16:49:00,59.5,58.1,29.82,SSE,165,1.0,4.0,95,0.00,CLR,,0.15,0.0,WeatherDisplay:10.37,2013-11-05 22:49:00,
2013-11-05 16:52:00,59.5,58.1,29.82,SE,140,3.1,9.0,95,0.00,CLR,,0.15,0.0,WeatherDisplay:10.37,2013-11-05 22:52:00,
2013-11-05 16:53:00,59.5,58.1,29.82,SSE,165,2.7,9.2,95,0.00,CLR,,0.15,0.0,WeatherDisplay:10.37,2013-11-05 22:53:00,
2013-11-05 16:54:00,59.5,58.1,29.82,SSE,166,3.6,6.9,95,0.00,CLR,,0.15,0.0,WeatherDisplay:10.37,2013-11-05 22:54:00,
2013-11-05 16:57:00,59.5,58.1,29.82,WSW,257,3.3,6.9,95,0.00,CLR,,0.15,0.0,WeatherDisplay:10.37,2013-11-05 22:57:00,
2013-11-05 16:58:00,59.5,58.1,29.82,SSW,196,3.0,9.0,95,0.00,CLR,,0.15,0.0,WeatherDisplay:10.37,2013-11-05 22:58:00,
2013-11-05 16:59:00,59.5,58.1,29.82,South,175,3.4,9.2,95,0.00,CLR,,0.15,0.0,WeatherDisplay:10.37,2013-11-05 22:59:00,
2013-11-05 17:02:00,59.6,58.2,29.82,SSE,162,1.7,5.0,95,0.00,CLR,,0.15,0.0,WeatherDisplay:10.37,2013-11-05 23:02:00,
2013-11-05 17:03:00,59.6,58.2,29.81,SSE,162,4.3,5.0,95,0.00,CLR,,0.15,0.0,WeatherDisplay:10.37,2013-11-05 23:03:00,
2013-11-05 17:04:00,59.6,58.2,29.82,SE,146,4.8,9.2,95,0.00,CLR,,0.15,0.0,WeatherDisplay:10.37,2013-11-05 23:04:00,
2013-11-05 17:08:00,59.6,58.2,29.81,SSE,157,3.9,4.0,95,0.00,CLR,,0.15,0.0,WeatherDisplay:10.37,2013-11-05 23:08:00,
2013-11-05 17:09:00,59.6,58.2,29.81,SE,144,4.1,10.4,95,0.00,CLR,,0.15,0.0,WeatherDisplay:10.37,2013-11-05 23:09:00,
2013-11-05 17:10:00,59.6,58.2,29.81,SSW,194,2.1,5.0,95,0.00,CLR,,0.15,0.0,WeatherDisplay:10.37,2013-11-05 23:10:00,
2013-11-05 17:13:00,59.7,58.3,29.81,South,173,4.7,8.1,95,0.00,CLR,,0.15,0.0,WeatherDisplay:10.37,2013-11-05 23:13:00,
2013-11-05 17:14:00,59.7,58.3,29.81,SSW,206,4.4,8.1,95,0.00,CLR,,0.15,0.0,WeatherDisplay:10.37,2013-11-05 23:14:00,
2013-11-05 17:15:00,59.7,58.3,29.81,South,180,4.7,6.9,95,0.00,CLR,,0.15,0.0,WeatherDisplay:10.37,2013-11-05 23:15:00,
2013-11-05 17:18:00,59.7,58.3,29.81,SSE,159,2.9,8.1,95,0.00,CLR,,0.15,0.0,WeatherDisplay:10.37,2013-11-05 23:18:00,
2013-11-05 17:19:00,59.7,58.3,29.81,South,175,3.0,9.2,95,0.00,CLR,,0.15,0.0,WeatherDisplay:10.37,2013-11-05 23:19:00,
2013-11-05 17:20:00,59.7,58.3,29.81,SSE,150,3.9,6.9,95,0.00,CLR,,0.15,0.0,WeatherDisplay:10.37,2013-11-05 23:20:00,
2013-11-05 17:24:00,59.8,58.4,29.81,SSE,147,2.8,5.0,95,0.00,CLR,,0.15,0.0,WeatherDisplay:10.37,2013-11-05 23:24:00,
2013-11-05 17:25:00,59.8,58.4,29.81,SSE,163,1.7,8.1,95,0.00,CLR,,0.15,0.0,WeatherDisplay:10.37,2013-11-05 23:25:00,
2013-11-05 17:29:00,59.8,58.4,29.81,SE,134,3.0,6.0,95,0.00,CLR,,0.15,0.0,WeatherDisplay:10.37,2013-11-05 23:29:00,
2013-11-05 17:30:00,59.8,58.4,29.81,South,189,2.8,6.9,95,0.00,CLR,,0.15,0.0,WeatherDisplay:10.37,2013-11-05 23:30:00,
2013-11-05 17:34:00,59.8,58.4,29.81,West,261,3.2,5.8,95,0.00,CLR,,0.15,0.0,WeatherDisplay:10.37,2013-11-05 23:34:00,
2013-11-05 17:35:00,59.8,58.4,29.81,SE,132,3.2,5.8,95,0.00,CLR,,0.15,0.0,WeatherDisplay:10.37,2013-11-05 23:35:00,
2013-11-05 17:36:00,59.8,58.4,29.81,SE,140,2.1,5.8,95,0.00,CLR,,0.15,0.0,WeatherDisplay:10.37,2013-11-05 23:36:00,
2013-11-05 17:39:00,59.8,58.4,29.81,South,173,3.1,6.9,95,0.00,CLR,,0.15,0.0,WeatherDisplay:10.37,2013-11-05 23:39:00,
2013-11-05 17:40:00,59.8,58.4,29.81,SW,231,3.2,8.1,95,0.00,CLR,,0.15,0.0,WeatherDisplay:10.37,2013-11-05 23:40:00,
2013-11-05 17:41:00,59.8,58.4,29.81,SE,146,5.6,10.4,95,0.00,CLR,,0.15,0.0,WeatherDisplay:10.37,2013-11-05 23:41:00,
2013-11-05 17:45:00,59.8,58.4,29.81,SSE,167,1.3,2.3,95,0.00,CLR,,0.15,0.0,WeatherDisplay:10.37,2013-11-05 23:45:00,
2013-11-05 17:46:00,59.8,58.4,29.81,South,184,3.9,4.6,95,0.00,CLR,,0.15,0.0,WeatherDisplay:10.37,2013-11-05 23:46:00,
2013-11-05 17:47:00,59.8,58.4,29.81,SSW,205,2.7,8.1,95,0.00,CLR,,0.15,0.0,WeatherDisplay:10.37,2013-11-05 23:47:00,
2013-11-05 17:50:00,59.8,58.4,29.81,South,182,4.6,6.9,95,0.00,CLR,,0.15,0.0,WeatherDisplay:10.37,2013-11-05 23:50:00,
2013-11-05 17:51:00,59.8,58.4,29.81,SSE,164,2.3,6.9,95,0.00,CLR,,0.15,0.0,WeatherDisplay:10.37,2013-11-05 23:51:00,
2013-11-05 17:53:00,59.8,58.4,29.81,South,181,1.5,3.5,95,0.00,CLR,,0.15,0.0,WeatherDisplay:10.37,2013-11-05 23:53:00,
2013-11-05 17:55:00,59.8,58.4,29.81,SSW,193,3.4,6.9,95,0.00,CLR,,0.15,0.0,WeatherDisplay:10.37,2013-11-05 23:55:00,
2013-11-05 17:56:00,59.8,58.4,29.81,South,180,5.7,11.5,95,0.00,CLR,,0.15,0.0,WeatherDisplay:10.37,2013-11-05 23:56:00,
2013-11-05 17:57:00,59.8,58.4,29.81,South,186,5.8,11.5,95,0.00,CLR,,0.15,0.0,WeatherDisplay:10.37,2013-11-05 23:57:00,
2013-11-05 17:58:00,59.8,58.4,29.81,SSW,204,4.8,11.5,95,0.00,CLR,,0.15,0.0,WeatherDisplay:10.37,2013-11-05 23:58:00,
2013-11-05 18:00:00,59.8,58.4,29.81,SW,217,2.2,4.0,95,0.00,CLR,,0.15,0.0,WeatherDisplay:10.37,2013-11-06 00:00:00,
2013-11-05 18:01:00,59.8,58.4,29.81,South,172,4.4,11.5,95,0.00,CLR,,0.15,0.0,WeatherDisplay:10.37,2013-11-06 00:01:00,
2013-11-05 18:02:00,59.8,58.4,29.81,SSE,150,4.3,11.5,95,0.00,CLR,,0.15,0.0,WeatherDisplay:10.37,2013-11-06 00:02:00,
2013-11-05 18:03:00,59.8,58.4,29.81,South,171,3.0,6.9,95,0.00,CLR,,0.15,0.0,WeatherDisplay:10.37,2013-11-06 00:03:00,
2013-11-05 18:04:00,59.8,58.4,29.81,SSW,198,4.6,4.6,95,0.00,CLR,,0.15,0.0,WeatherDisplay:10.37,2013-11-06 00:04:00,
2013-11-05 18:05:00,59.8,58.4,29.81,SSE,149,4.3,8.1,95,0.00,CLR,,0.15,0.0,WeatherDisplay:10.37,2013-11-06 00:05:00,
2013-11-05 18:06:00,59.8,58.4,29.81,South,182,4.1,8.1,95,0.00,CLR,,0.15,0.0,WeatherDisplay:10.37,2013-11-06 00:06:00,
2013-11-05 18:07:00,59.8,58.4,29.81,South,180,1.7,4.6,95,0.00,CLR,,0.15,0.0,WeatherDisplay:10.37,2013-11-06 00:07:00,
2013-11-05 18:08:00,59.8,58.4,29.81,South,184,3.6,6.9,95,0.00,CLR,,0.15,0.0,WeatherDisplay:10.37,2013-11-06 00:08:00,
2013-11-05 18:09:00,59.7,58.3,29.81,SSE,158,0.6,6.9,95,0.00,CLR,,0.15,0.0,WeatherDisplay:10.37,2013-11-06 00:09:00,
2013-11-05 18:10:00,59.8,58.7,29.81,SSE,148,2.4,3.5,96,0.00,CLR,,0.15,0.0,WeatherDisplay:10.37,2013-11-06 00:10:00,
2013-11-05 18:11:00,59.8,58.7,29.81,SSE,168,2.6,4.6,96,0.00,CLR,,0.15,0.0,WeatherDisplay:10.37,2013-11-06 00:11:00,
2013-11-05 18:12:00,59.7,58.6,29.81,SSW,193,3.3,5.8,96,0.00,CLR,,0.15,0.0,WeatherDisplay:10.37,2013-11-06 00:12:00,
2013-11-05 18:13:00,59.8,58.7,29.81,SSW,207,4.4,8.1,96,0.00,CLR,,0.15,0.0,WeatherDisplay:10.37,2013-11-06 00:13:00,
2013-11-05 18:14:00,59.8,58.7,29.81,SW,215,3.7,6.9,96,0.00,CLR,,0.15,0.0,WeatherDisplay:10.37,2013-11-06 00:14:00,
2013-11-05 18:15:00,59.7,58.6,29.81,SSE,164,2.9,10.4,96,0.00,CLR,,0.15,0.0,WeatherDisplay:10.37,2013-11-06 00:15:00,
2013-11-05 18:16:00,59.8,58.7,29.81,South,180,2.3,4.6,96,0.00,CLR,,0.15,0.0,WeatherDisplay:10.37,2013-11-06 00:16:00,
2013-11-05 18:17:00,59.8,58.7,29.81,SE,143,2.5,4.6,96,0.00,CLR,,0.15,0.0,WeatherDisplay:10.37,2013-11-06 00:17:00,
2013-11-05 18:19:00,59.7,58.6,29.81,SE,140,2.6,11.5,96,0.00,CLR,,0.15,0.0,WeatherDisplay:10.37,2013-11-06 00:19:00,
2013-11-05 18:20:00,59.8,58.7,29.81,South,175,5.6,8.1,96,0.00,CLR,,0.15,0.0,WeatherDisplay:10.37,2013-11-06 00:20:00,
2013-11-05 18:21:00,59.8,58.7,29.81,SSE,167,2.6,8.1,96,0.00,CLR,,0.15,0.0,WeatherDisplay:10.37,2013-11-06 00:21:00,
2013-11-05 18:22:00,59.8,58.7,29.81,South,179,1.1,3.5,96,0.00,CLR,,0.15,0.0,WeatherDisplay:10.37,2013-11-06 00:22:00,
2013-11-05 18:24:00,59.8,58.7,29.81,SSW,207,2.8,8.1,96,0.00,CLR,,0.15,0.0,WeatherDisplay:10.37,2013-11-06 00:24:00,
2013-11-05 18:25:00,59.8,58.7,29.81,SSE,166,3.1,6.0,96,0.00,CLR,,0.15,0.0,WeatherDisplay:10.37,2013-11-06 00:25:00,
2013-11-05 18:26:00,59.8,58.7,29.81,South,175,2.5,5.8,96,0.00,CLR,,0.15,0.0,WeatherDisplay:10.37,2013-11-06 00:26:00,
2013-11-05 18:27:00,59.8,58.7,29.81,South,186,2.6,10.4,96,0.00,CLR,,0.15,0.0,WeatherDisplay:10.37,2013-11-06 00:27:00,
2013-11-05 18:29:00,59.8,58.7,29.81,South,179,4.4,8.1,96,0.00,CLR,,0.15,0.0,WeatherDisplay:10.37,2013-11-06 00:29:00,
2013-11-05 18:30:00,59.8,58.7,29.81,SSW,195,4.3,8.1,96,0.00,CLR,,0.15,0.0,WeatherDisplay:10.37,2013-11-06 00:30:00,
2013-11-05 18:31:00,59.8,58.7,29.81,SW,221,5.6,8.1,96,0.00,CLR,,0.15,0.0,WeatherDisplay:10.37,2013-11-06 00:31:00,
2013-11-05 18:32:00,59.8,58.7,29.81,SSE,153,3.8,11.5,96,0.00,CLR,,0.15,0.0,WeatherDisplay:10.37,2013-11-06 00:32:00,
2013-11-05 18:34:00,59.8,58.7,29.81,SSW,196,2.3,7.0,96,0.00,CLR,,0.15,0.0,WeatherDisplay:10.37,2013-11-06 00:34:00,
2013-11-05 18:35:00,59.8,58.7,29.81,SSW,196,2.3,7.0,96,0.00,CLR,,0.15,0.0,WeatherDisplay:10.37,2013-11-06 00:35:00,
2013-11-05 18:36:00,59.8,58.7,29.81,South,175,4.0,6.9,96,0.00,CLR,,0.15,0.0,WeatherDisplay:10.37,2013-11-06 00:36:00,
2013-11-05 18:37:00,59.8,58.7,29.81,SE,144,5.5,7.0,96,0.00,CLR,,0.15,0.0,WeatherDisplay:10.37,2013-11-06 00:37:00,
2013-11-05 18:40:00,59.8,58.7,29.81,SSW,200,3.6,9.0,96,0.00,CLR,,0.15,0.0,WeatherDisplay:10.37,2013-11-06 00:40:00,
2013-11-05 18:41:00,59.8,58.7,29.81,South,174,4.6,12.7,96,0.00,CLR,,0.15,0.0,WeatherDisplay:10.37,2013-11-06 00:41:00,
2013-11-05 18:42:00,59.8,58.7,29.81,South,170,1.8,4.6,96,0.00,CLR,,0.15,0.0,WeatherDisplay:10.37,2013-11-06 00:42:00,
2013-11-05 18:46:00,59.8,58.7,29.81,SE,140,5.3,12.7,96,0.00,CLR,,0.15,0.0,WeatherDisplay:10.37,2013-11-06 00:46:00,
2013-11-05 18:48:00,59.8,58.7,29.81,SW,223,3.9,8.1,96,0.00,CLR,,0.15,0.0,WeatherDisplay:10.37,2013-11-06 00:48:00,
2013-11-05 18:51:00,59.8,58.7,29.81,SSE,158,2.0,4.6,96,0.00,CLR,,0.15,0.0,WeatherDisplay:10.37,2013-11-06 00:51:00,
2013-11-05 18:52:00,59.8,58.7,29.81,SSE,162,3.4,8.1,96,0.00,CLR,,0.15,0.0,WeatherDisplay:10.37,2013-11-06 00:52:00,
2013-11-05 18:53:00,59.8,58.7,29.81,South,190,4.3,8.1,96,0.00,CLR,,0.15,0.0,WeatherDisplay:10.37,2013-11-06 00:53:00,
2013-11-05 18:56:00,59.9,58.8,29.80,South,188,4.5,6.9,96,0.00,CLR,,0.15,0.0,WeatherDisplay:10.37,2013-11-06 00:56:00,
2013-11-05 18:57:00,59.9,58.8,29.81,South,173,4.8,8.1,96,0.01,RA,,0.16,0.0,WeatherDisplay:10.37,2013-11-06 00:57:00,
2013-11-05 18:58:00,59.9,58.8,29.81,SSE,163,3.8,8.1,96,0.01,RA,,0.16,0.0,WeatherDisplay:10.37,2013-11-06 00:58:00,
2013-11-05 19:01:00,59.9,58.8,29.81,SSW,192,4.3,8.0,96,0.01,RA,,0.16,0.0,WeatherDisplay:10.37,2013-11-06 01:01:00,
2013-11-05 19:02:00,59.9,58.8,29.81,SSE,151,3.5,10.4,96,0.01,RA,,0.16,0.0,WeatherDisplay:10.37,2013-11-06 01:02:00,
2013-11-05 19:03:00,59.9,58.8,29.81,South,178,2.8,9.2,96,0.01,RA,,0.17,0.0,WeatherDisplay:10.37,2013-11-06 01:03:00,
2013-11-05 19:06:00,59.9,58.8,29.81,SSE,153,5.3,5.3,96,0.03,RA,,0.18,0.0,WeatherDisplay:10.37,2013-11-06 01:06:00,
2013-11-05 19:07:00,59.9,58.8,29.81,South,170,3.1,10.4,96,0.03,RA,,0.18,0.0,WeatherDisplay:10.37,2013-11-06 01:07:00,
2013-11-05 19:08:00,59.9,58.8,29.81,SSW,205,2.8,9.2,96,0.03,RA,,0.18,0.0,WeatherDisplay:10.37,2013-11-06 01:08:00,
2013-11-05 19:12:00,59.9,58.8,29.81,SSE,153,3.3,5.8,96,0.04,RA,,0.19,0.0,WeatherDisplay:10.37,2013-11-06 01:12:00,
2013-11-05 19:13:00,59.9,58.8,29.80,SSW,196,3.1,5.8,96,0.04,RA,,0.19,0.0,WeatherDisplay:10.37,2013-11-06 01:13:00,
2013-11-05 19:14:00,59.9,58.8,29.81,SSE,166,1.7,4.6,96,0.04,RA,,0.19,0.0,WeatherDisplay:10.37,2013-11-06 01:14:00,
2013-11-05 19:17:00,59.9,58.8,29.80,SSE,165,2.2,9.2,96,0.04,RA,,0.19,0.0,WeatherDisplay:10.37,2013-11-06 01:17:00,
2013-11-05 19:18:00,59.9,58.8,29.81,South,169,3.7,6.9,96,0.04,RA,,0.19,0.0,WeatherDisplay:10.37,2013-11-06 01:18:00,
2013-11-05 19:19:00,59.9,58.8,29.81,SSE,149,4.0,8.1,96,0.04,RA,,0.19,0.0,WeatherDisplay:10.37,2013-11-06 01:19:00,
2013-11-05 19:22:00,59.9,58.8,29.81,SE,141,3.6,6.9,96,0.04,,,0.19,0.0,WeatherDisplay:10.37,2013-11-06 01:22:00,
2013-11-05 19:23:00,59.9,58.8,29.81,SE,132,5.3,11.5,96,0.04,CLR,,0.19,0.0,WeatherDisplay:10.37,2013-11-06 01:23:00,
2013-11-05 19:24:00,59.9,58.8,29.80,SSW,196,6.1,11.5,96,0.04,CLR,,0.19,0.0,WeatherDisplay:10.37,2013-11-06 01:24:00,
2013-11-05 19:27:00,59.9,58.8,29.80,South,176,4.8,10.4,96,0.04,CLR,,0.19,0.0,WeatherDisplay:10.37,2013-11-06 01:27:00,
2013-11-05 19:28:00,59.9,58.8,29.80,SSE,165,2.8,5.8,96,0.04,CLR,,0.19,0.0,WeatherDisplay:10.37,2013-11-06 01:28:00,
2013-11-05 19:29:00,59.9,58.8,29.80,SE,132,1.7,7.0,96,0.04,CLR,,0.19,0.0,WeatherDisplay:10.37,2013-11-06 01:29:00,
2013-11-05 19:32:00,59.9,59.0,29.80,SSE,154,2.1,9.2,97,0.04,CLR,,0.19,0.0,WeatherDisplay:10.37,2013-11-06 01:32:00,
2013-11-05 19:33:00,59.9,59.0,29.80,SSE,149,2.3,8.0,97,0.04,CLR,,0.19,0.0,WeatherDisplay:10.37,2013-11-06 01:33:00,
2013-11-05 19:34:00,59.9,59.0,29.80,South,175,2.7,8.1,97,0.04,CLR,,0.19,0.0,WeatherDisplay:10.37,2013-11-06 01:34:00,
2013-11-05 19:35:00,59.9,58.8,29.80,SW,221,2.3,8.1,96,0.04,CLR,,0.19,0.0,WeatherDisplay:10.37,2013-11-06 01:35:00,
2013-11-05 19:37:00,59.9,59.0,29.80,East,99,0.4,5.0,97,0.05,RA,,0.20,0.0,WeatherDisplay:10.37,2013-11-06 01:37:00,
2013-11-05 19:38:00,59.9,59.0,29.80,South,176,3.3,6.0,97,0.05,RA,,0.20,0.0,WeatherDisplay:10.37,2013-11-06 01:38:00,
2013-11-05 19:39:00,59.9,59.0,29.80,South,169,2.0,6.9,97,0.05,RA,,0.20,0.0,WeatherDisplay:10.37,2013-11-06 01:39:00,
2013-11-05 19:40:00,59.9,59.0,29.80,SSW,205,2.6,5.8,97,0.05,RA,,0.20,0.0,WeatherDisplay:10.37,2013-11-06 01:40:00,
2013-11-05 19:41:00,59.9,59.0,29.80,SSW,200,2.9,5.8,97,0.05,RA,,0.20,0.0,WeatherDisplay:10.37,2013-11-06 01:41:00,
2013-11-05 19:42:00,59.9,59.0,29.80,SSE,161,2.5,5.0,97,0.05,RA,,0.20,0.0,WeatherDisplay:10.37,2013-11-06 01:42:00,
2013-11-05 19:43:00,59.9,59.0,29.80,SSE,157,4.1,9.2,97,0.05,RA,,0.20,0.0,WeatherDisplay:10.37,2013-11-06 01:43:00,
2013-11-05 19:45:00,60.0,59.1,29.80,SW,217,0.4,9.2,97,0.05,RA,,0.20,0.0,WeatherDisplay:10.37,2013-11-06 01:45:00,
2013-11-05 19:46:00,60.0,59.1,29.80,SSE,166,2.1,4.6,97,0.05,RA,,0.20,0.0,WeatherDisplay:10.37,2013-11-06 01:46:00,
2013-11-05 19:47:00,60.0,59.1,29.80,South,178,1.0,5.8,97,0.05,,,0.20,0.0,WeatherDisplay:10.37,2013-11-06 01:47:00,
2013-11-05 19:49:00,60.0,59.1,29.80,SSE,161,3.4,3.5,97,0.05,CLR,,0.20,0.0,WeatherDisplay:10.37,2013-11-06 01:49:00,
2013-11-05 19:50:00,60.0,59.1,29.80,South,185,3.6,3.6,97,0.05,CLR,,0.20,0.0,WeatherDisplay:10.37,2013-11-06 01:50:00,
2013-11-05 19:51:00,60.0,59.1,29.80,SSE,165,1.6,4.6,97,0.05,CLR,,0.20,0.0,WeatherDisplay:10.37,2013-11-06 01:51:00,
2013-11-05 19:52:00,60.0,59.1,29.80,SSE,159,1.1,3.5,97,0.05,CLR,,0.20,0.0,WeatherDisplay:10.37,2013-11-06 01:52:00,
2013-11-05 19:54:00,60.0,59.1,29.80,SSE,154,3.6,8.1,97,0.05,CLR,,0.20,0.0,WeatherDisplay:10.37,2013-11-06 01:54:00,
2013-11-05 19:55:00,60.0,59.1,29.80,SSE,153,3.0,5.8,97,0.05,CLR,,0.20,0.0,WeatherDisplay:10.37,2013-11-06 01:55:00,
2013-11-05 19:56:00,60.0,59.1,29.80,South,188,3.2,9.2,97,0.05,CLR,,0.20,0.0,WeatherDisplay:10.37,2013-11-06 01:56:00,
2013-11-05 19:57:00,60.0,59.1,29.80,South,180,4.8,11.5,97,0.04,CLR,,0.20,0.0,WeatherDisplay:10.37,2013-11-06 01:57:00,
2013-11-05 20:00:00,60.0,59.1,29.80,SSE,153,5.1,5.8,97,0.04,CLR,,0.20,0.0,WeatherDisplay:10.37,2013-11-06 02:00:00,
2013-11-05 20:01:00,60.0,59.1,29.80,South,186,0.8,4.6,97,0.04,CLR,,0.20,0.0,WeatherDisplay:10.37,2013-11-06 02:01:00,
2013-11-05 20:02:00,60.1,59.2,29.80,South,182,4.1,5.8,97,0.04,CLR,,0.20,0.0,WeatherDisplay:10.37,2013-11-06 02:02:00,
2013-11-05 20:05:00,60.1,59.2,29.80,SSE,150,2.7,6.9,97,0.03,CLR,,0.20,0.0,WeatherDisplay:10.37,2013-11-06 02:05:00,
2013-11-05 20:06:00,60.1,59.2,29.80,SSE,163,3.5,6.9,97,0.02,CLR,,0.20,0.0,WeatherDisplay:10.37,2013-11-06 02:06:00,
2013-11-05 20:07:00,60.1,59.2,29.80,SSE,167,2.9,4.6,97,0.02,CLR,,0.20,0.0,WeatherDisplay:10.37,2013-11-06 02:07:00,
2013-11-05 20:08:00,60.1,59.2,29.80,SSE,168,3.2,6.9,97,0.02,CLR,,0.20,0.0,WeatherDisplay:10.37,2013-11-06 02:08:00,
2013-11-05 20:10:00,60.1,59.2,29.80,South,186,3.4,8.1,97,0.02,CLR,,0.20,0.0,WeatherDisplay:10.37,2013-11-06 02:10:00,
2013-11-05 20:11:00,60.2,59.3,29.80,SSE,149,2.2,3.5,97,0.01,CLR,,0.20,0.0,WeatherDisplay:10.37,2013-11-06 02:11:00,
2013-11-05 20:12:00,60.2,59.3,29.80,SSE,166,2.2,4.6,97,0.01,CLR,,0.20,0.0,WeatherDisplay:10.37,2013-11-06 02:12:00,
2013-11-05 20:13:00,60.2,59.3,29.80,SW,220,2.1,3.5,97,0.01,CLR,,0.20,0.0,WeatherDisplay:10.37,2013-11-06 02:13:00,
2013-11-05 20:15:00,60.2,59.3,29.80,SSW,201,1.9,7.0,97,0.01,CLR,,0.20,0.0,WeatherDisplay:10.37,2013-11-06 02:15:00,
2013-11-05 20:16:00,60.2,59.3,29.80,SE,144,2.8,8.1,97,0.01,CLR,,0.20,0.0,WeatherDisplay:10.37,2013-11-06 02:16:00,
2013-11-05 20:17:00,60.2,59.3,29.80,SSE,161,3.1,4.6,97,0.01,CLR,,0.20,0.0,WeatherDisplay:10.37,2013-11-06 02:17:00,
2013-11-05 20:18:00,60.2,59.3,29.80,South,173,2.8,4.6,97,0.01,CLR,,0.20,0.0,WeatherDisplay:10.37,2013-11-06 02:18:00,
2013-11-05 20:20:00,60.2,59.3,29.80,SW,223,1.7,5.0,97,0.01,CLR,,0.20,0.0,WeatherDisplay:10.37,2013-11-06 02:20:00,
2013-11-05 20:21:00,60.2,59.3,29.80,SSE,153,2.6,6.9,97,0.01,CLR,,0.20,0.0,WeatherDisplay:10.37,2013-11-06 02:21:00,
2013-11-05 20:22:00,60.2,59.3,29.80,South,188,4.6,6.9,97,0.01,CLR,,0.20,0.0,WeatherDisplay:10.37,2013-11-06 02:22:00,
2013-11-05 20:23:00,60.2,59.3,29.80,SSW,207,4.2,6.9,97,0.01,CLR,,0.20,0.0,WeatherDisplay:10.37,2013-11-06 02:23:00,
2013-11-05 20:25:00,60.2,59.3,29.80,South,171,4.2,6.0,97,0.01,CLR,,0.20,0.0,WeatherDisplay:10.37,2013-11-06 02:25:00,
2013-11-05 20:26:00,60.2,59.3,29.80,SSW,198,4.5,6.9,97,0.01,CLR,,0.20,0.0,WeatherDisplay:10.37,2013-11-06 02:26:00,
2013-11-05 20:27:00,60.2,59.3,29.80,South,190,3.2,6.9,97,0.01,CLR,,0.20,0.0,WeatherDisplay:10.37,2013-11-06 02:27:00,
2013-11-05 20:28:00,60.3,59.4,29.80,South,170,2.5,5.8,97,0.01,CLR,,0.20,0.0,WeatherDisplay:10.37,2013-11-06 02:28:00,
2013-11-05 20:29:00,60.2,59.3,29.80,South,173,2.9,3.5,97,0.01,CLR,,0.20,0.0,WeatherDisplay:10.37,2013-11-06 02:29:00,
2013-11-05 20:31:00,60.3,59.4,29.80,WSW,237,2.8,5.8,97,0.01,CLR,,0.20,0.0,WeatherDisplay:10.37,2013-11-06 02:31:00,
2013-11-05 20:33:00,60.3,59.4,29.80,South,177,2.2,5.8,97,0.01,CLR,,0.20,0.0,WeatherDisplay:10.37,2013-11-06 02:33:00,
2013-11-05 20:34:00,60.3,59.4,29.80,SSW,205,3.0,4.6,97,0.01,CLR,,0.20,0.0,WeatherDisplay:10.37,2013-11-06 02:34:00,
2013-11-05 20:36:00,60.3,59.4,29.80,ESE,120,1.0,3.5,97,0.01,CLR,,0.20,0.0,WeatherDisplay:10.37,2013-11-06 02:36:00,
2013-11-05 20:38:00,60.3,59.4,29.80,SSW,192,2.5,4.6,97,0.00,CLR,,0.20,0.0,WeatherDisplay:10.37,2013-11-06 02:38:00,
2013-11-05 20:40:00,60.3,59.4,29.80,SSW,196,2.6,6.9,97,0.00,CLR,,0.20,0.0,WeatherDisplay:10.37,2013-11-06 02:40:00,
2013-11-05 20:41:00,60.3,59.4,29.80,SSE,158,2.4,4.6,97,0.00,CLR,,0.20,0.0,WeatherDisplay:10.37,2013-11-06 02:41:00,
2013-11-05 20:43:00,60.3,59.4,29.80,SE,136,3.5,6.9,97,0.00,CLR,,0.20,0.0,WeatherDisplay:10.37,2013-11-06 02:43:00,
2013-11-05 20:46:00,60.3,59.4,29.80,SSE,147,1.5,8.0,97,0.00,CLR,,0.20,0.0,WeatherDisplay:10.37,2013-11-06 02:46:00,
2013-11-05 20:47:00,60.3,59.4,29.80,South,184,2.5,10.4,97,0.00,CLR,,0.20,0.0,WeatherDisplay:10.37,2013-11-06 02:47:00,
2013-11-05 20:48:00,60.3,59.4,29.80,South,190,1.5,4.6,97,0.00,CLR,,0.20,0.0,WeatherDisplay:10.37,2013-11-06 02:48:00,
2013-11-05 20:49:00,60.3,59.4,29.80,South,190,1.1,3.5,97,0.00,CLR,,0.20,0.0,WeatherDisplay:10.37,2013-11-06 02:49:00,
2013-11-05 20:51:00,60.3,59.4,29.80,SSE,155,1.1,3.5,97,0.00,CLR,,0.20,0.0,WeatherDisplay:10.37,2013-11-06 02:51:00,
2013-11-05 20:52:00,60.3,59.4,29.81,South,187,1.2,3.5,97,0.00,CLR,,0.20,0.0,WeatherDisplay:10.37,2013-11-06 02:52:00,
2013-11-05 20:54:00,60.3,59.4,29.80,SE,136,1.7,5.0,97,0.00,CLR,,0.20,0.0,WeatherDisplay:10.37,2013-11-06 02:54:00,
2013-11-05 20:56:00,60.3,59.4,29.81,South,171,2.5,4.0,97,0.00,CLR,,0.20,0.0,WeatherDisplay:10.37,2013-11-06 02:56:00,
2013-11-05 20:57:00,60.3,59.4,29.80,South,173,2.4,6.0,97,0.00,CLR,,0.20,0.0,WeatherDisplay:10.37,2013-11-06 02:57:00,
2013-11-05 20:59:00,60.3,59.4,29.80,South,188,1.2,4.6,97,0.00,CLR,,0.20,0.0,WeatherDisplay:10.37,2013-11-06 02:59:00,
2013-11-05 21:02:00,60.3,59.4,29.80,South,190,3.3,10.0,97,0.00,CLR,,0.20,0.0,WeatherDisplay:10.37,2013-11-06 03:02:00,
2013-11-05 21:04:00,60.3,59.4,29.80,South,171,2.4,5.0,97,0.00,CLR,,0.20,0.0,WeatherDisplay:10.37,2013-11-06 03:04:00,
2013-11-05 21:05:00,60.3,59.4,29.80,South,172,4.0,4.0,97,0.00,CLR,,0.20,0.0,WeatherDisplay:10.37,2013-11-06 03:05:00,
2013-11-05 21:07:00,60.3,59.4,29.80,South,178,3.6,6.9,97,0.00,CLR,,0.20,0.0,WeatherDisplay:10.37,2013-11-06 03:07:00,
2013-11-05 21:09:00,60.3,59.4,29.80,SSE,160,2.5,3.5,97,0.00,CLR,,0.20,0.0,WeatherDisplay:10.37,2013-11-06 03:09:00,
2013-11-05 21:10:00,60.3,59.4,29.80,South,188,3.3,3.5,97,0.00,CLR,,0.20,0.0,WeatherDisplay:10.37,2013-11-06 03:10:00,
2013-11-05 21:12:00,60.3,59.4,29.80,South,188,3.8,6.9,97,0.00,CLR,,0.20,0.0,WeatherDisplay:10.37,2013-11-06 03:12:00,
2013-11-05 21:13:00,60.3,59.4,29.80,South,188,3.0,5.8,97,0.00,CLR,,0.20,0.0,WeatherDisplay:10.37,2013-11-06 03:13:00,
2013-11-05 21:14:00,60.3,59.4,29.80,South,172,2.7,5.8,97,0.00,CLR,,0.20,0.0,WeatherDisplay:10.37,2013-11-06 03:14:00,
2013-11-05 21:15:00,60.3,59.4,29.80,SSE,159,1.1,3.5,97,0.00,CLR,,0.20,0.0,WeatherDisplay:10.37,2013-11-06 03:15:00,
2013-11-05 21:17:00,60.3,59.4,29.80,SSE,149,1.1,3.5,97,0.00,CLR,,0.20,0.0,WeatherDisplay:10.37,2013-11-06 03:17:00,
2013-11-05 21:18:00,60.3,59.4,29.80,SE,135,1.3,3.5,97,0.00,CLR,,0.20,0.0,WeatherDisplay:10.37,2013-11-06 03:18:00,
2013-11-05 21:19:00,60.3,59.4,29.80,SSE,166,2.5,4.6,97,0.00,CLR,,0.20,0.0,WeatherDisplay:10.37,2013-11-06 03:19:00,
2013-11-05 21:20:00,60.3,59.4,29.80,SSE,159,1.4,4.6,97,0.00,CLR,,0.20,0.0,WeatherDisplay:10.37,2013-11-06 03:20:00,
2013-11-05 21:21:00,60.3,59.4,29.80,South,188,1.3,3.5,97,0.00,CLR,,0.20,0.0,WeatherDisplay:10.37,2013-11-06 03:21:00,
2013-11-05 21:23:00,60.3,59.4,29.80,SW,231,0.4,2.3,97,0.00,CLR,,0.20,0.0,WeatherDisplay:10.37,2013-11-06 03:23:00,
2013-11-05 21:24:00,60.3,59.4,29.80,South,173,2.0,5.0,97,0.00,CLR,,0.20,0.0,WeatherDisplay:10.37,2013-11-06 03:24:00,
2013-11-05 21:25:00,60.3,59.4,29.80,SSE,150,3.1,4.6,97,0.00,CLR,,0.20,0.0,WeatherDisplay:10.37,2013-11-06 03:25:00,
2013-11-05 21:26:00,60.3,59.4,29.80,SSW,206,1.6,5.8,97,0.00,CLR,,0.20,0.0,WeatherDisplay:10.37,2013-11-06 03:26:00,
2013-11-05 21:28:00,60.3,59.4,29.80,South,178,1.4,4.0,97,0.00,CLR,,0.20,0.0,WeatherDisplay:10.37,2013-11-06 03:28:00,
2013-11-05 21:29:00,60.3,59.4,29.80,South,184,2.4,8.1,97,0.00,CLR,,0.20,0.0,WeatherDisplay:10.37,2013-11-06 03:29:00,
2013-11-05 21:30:00,60.3,59.4,29.80,South,184,2.4,8.1,97,0.00,CLR,,0.20,0.0,WeatherDisplay:10.37,2013-11-06 03:30:00,
2013-11-05 21:33:00,60.3,59.4,29.80,SSW,196,4.9,6.9,97,0.00,CLR,,0.20,0.0,WeatherDisplay:10.37,2013-11-06 03:33:00,
2013-11-05 21:34:00,60.3,59.4,29.80,South,176,1.0,7.0,97,0.00,CLR,,0.20,0.0,WeatherDisplay:10.37,2013-11-06 03:34:00,
2013-11-05 21:35:00,60.3,59.4,29.80,South,184,2.6,3.5,97,0.00,CLR,,0.20,0.0,WeatherDisplay:10.37,2013-11-06 03:35:00,
2013-11-05 21:38:00,60.3,59.4,29.80,SSW,202,2.6,6.0,97,0.00,CLR,,0.20,0.0,WeatherDisplay:10.37,2013-11-06 03:38:00,
2013-11-05 21:39:00,60.3,59.4,29.80,SSE,164,3.0,9.0,97,0.00,CLR,,0.20,0.0,WeatherDisplay:10.37,2013-11-06 03:39:00,
2013-11-05 21:40:00,60.3,59.4,29.80,South,175,2.1,5.8,97,0.00,CLR,,0.20,0.0,WeatherDisplay:10.37,2013-11-06 03:40:00,
2013-11-05 21:41:00,60.3,59.4,29.80,SSE,159,1.9,5.8,97,0.00,CLR,,0.20,0.0,WeatherDisplay:10.37,2013-11-06 03:41:00,
2013-11-05 21:44:00,60.3,59.4,29.80,SSE,153,1.6,3.5,97,0.00,CLR,,0.20,0.0,WeatherDisplay:10.37,2013-11-06 03:44:00,
2013-11-05 21:45:00,60.3,59.4,29.80,South,190,3.1,6.9,97,0.00,CLR,,0.20,0.0,WeatherDisplay:10.37,2013-11-06 03:45:00,
2013-11-05 21:47:00,60.3,59.4,29.81,South,177,2.0,4.6,97,0.00,CLR,,0.20,0.0,WeatherDisplay:10.37,2013-11-06 03:47:00,
2013-11-05 21:49:00,60.3,59.4,29.80,SSE,167,0.8,2.3,97,0.00,CLR,,0.20,0.0,WeatherDisplay:10.37,2013-11-06 03:49:00,
2013-11-05 21:50:00,60.3,59.4,29.80,South,182,3.3,6.9,97,0.00,CLR,,0.20,0.0,WeatherDisplay:10.37,2013-11-06 03:50:00,
2013-11-05 21:52:00,60.3,59.4,29.80,South,184,0.8,4.6,97,0.00,CLR,,0.20,0.0,WeatherDisplay:10.37,2013-11-06 03:52:00,
2013-11-05 21:54:00,60.3,59.4,29.80,SSE,161,1.4,4.6,97,0.00,CLR,,0.20,0.0,WeatherDisplay:10.37,2013-11-06 03:54:00,
2013-11-05 21:55:00,60.3,59.4,29.80,South,173,2.4,4.6,97,0.00,CLR,,0.20,0.0,WeatherDisplay:10.37,2013-11-06 03:55:00,
2013-11-05 21:57:00,60.3,59.4,29.80,SSE,161,2.7,6.9,97,0.00,CLR,,0.20,0.0,WeatherDisplay:10.37,2013-11-06 03:57:00,
2013-11-05 21:59:00,60.3,59.4,29.79,South,173,2.6,6.9,97,0.00,CLR,,0.20,0.0,WeatherDisplay:10.37,2013-11-06 03:59:00,
2013-11-05 22:00:00,60.3,59.4,29.79,SE,131,2.6,4.6,97,0.00,CLR,,0.20,0.0,WeatherDisplay:10.37,2013-11-06 04:00:00,
2013-11-05 22:01:00,60.3,59.4,29.79,SSE,153,2.6,4.6,97,0.00,CLR,,0.20,0.0,WeatherDisplay:10.37,2013-11-06 04:01:00,
2013-11-05 22:03:00,60.3,59.4,29.80,SSE,161,2.2,6.9,97,0.00,CLR,,0.20,0.0,WeatherDisplay:10.37,2013-11-06 04:03:00,
2013-11-05 22:04:00,60.3,59.4,29.80,South,185,1.7,3.5,97,0.00,CLR,,0.20,0.0,WeatherDisplay:10.37,2013-11-06 04:04:00,
2013-11-05 22:05:00,60.3,59.4,29.79,South,187,2.1,5.0,97,0.00,CLR,,0.20,0.0,WeatherDisplay:10.37,2013-11-06 04:05:00,
2013-11-05 22:06:00,60.3,59.4,29.79,SE,130,2.4,4.6,97,0.00,CLR,,0.20,0.0,WeatherDisplay:10.37,2013-11-06 04:06:00,
2013-11-05 22:08:00,60.3,59.4,29.80,SSE,153,1.8,3.5,97,0.00,CLR,,0.20,0.0,WeatherDisplay:10.37,2013-11-06 04:08:00,
2013-11-05 22:09:00,60.3,59.4,29.80,South,187,1.7,4.6,97,0.00,CLR,,0.20,0.0,WeatherDisplay:10.37,2013-11-06 04:09:00,
2013-11-05 22:10:00,60.3,59.4,29.80,South,187,1.7,4.6,97,0.00,CLR,,0.20,0.0,WeatherDisplay:10.37,2013-11-06 04:10:00,
2013-11-05 22:11:00,60.3,59.4,29.80,South,187,1.9,3.5,97,0.00,CLR,,0.20,0.0,WeatherDisplay:10.37,2013-11-06 04:11:00,
2013-11-05 22:13:00,60.3,59.4,29.80,South,188,2.1,3.5,97,0.00,CLR,,0.20,0.0,WeatherDisplay:10.37,2013-11-06 04:13:00,
2013-11-05 22:15:00,60.3,59.4,29.80,South,188,1.1,3.5,97,0.00,CLR,,0.21,0.0,WeatherDisplay:10.37,2013-11-06 04:15:00,
2013-11-05 22:16:00,60.3,59.4,29.80,SSW,194,0.4,3.5,97,0.01,RA,,0.21,0.0,WeatherDisplay:10.37,2013-11-06 04:16:00,
2013-11-05 22:17:00,60.3,59.4,29.80,South,190,1.1,3.5,97,0.01,RA,,0.21,0.0,WeatherDisplay:10.37,2013-11-06 04:17:00,
2013-11-05 22:18:00,60.3,59.4,29.80,SSE,154,2.7,3.5,97,0.01,RA,,0.21,0.0,WeatherDisplay:10.37,2013-11-06 04:18:00,
2013-11-05 22:20:00,60.3,59.4,29.80,South,180,0.8,3.5,97,0.01,RA,,0.22,0.0,WeatherDisplay:10.37,2013-11-06 04:20:00,
2013-11-05 22:21:00,60.3,59.4,29.80,SSE,166,0.8,2.0,97,0.02,RA,,0.22,0.0,WeatherDisplay:10.37,2013-11-06 04:21:00,
2013-11-05 22:22:00,60.3,59.4,29.80,South,176,2.0,3.5,97,0.02,RA,,0.22,0.0,WeatherDisplay:10.37,2013-11-06 04:22:00,
2013-11-05 22:24:00,60.3,59.4,29.80,SSE,153,1.4,3.0,97,0.03,RA,,0.23,0.0,WeatherDisplay:10.37,2013-11-06 04:24:00,
2013-11-05 22:25:00,60.3,59.4,29.80,South,175,3.2,4.6,97,0.03,RA,,0.23,0.0,WeatherDisplay:10.37,2013-11-06 04:25:00,
2013-11-05 22:26:00,60.3,59.4,29.80,South,175,1.0,5.8,97,0.03,RA,,0.24,0.0,WeatherDisplay:10.37,2013-11-06 04:26:00,
2013-11-05 22:27:00,60.3,59.4,29.80,South,169,0.8,2.3,97,0.04,RA,,0.25,0.0,WeatherDisplay:10.37,2013-11-06 04:27:00,
2013-11-05 22:28:00,60.3,59.4,29.80,SSE,156,1.5,3.5,97,0.05,RA,,0.25,0.0,WeatherDisplay:10.37,2013-11-06 04:28:00,
2013-11-05 22:29:00,60.3,59.4,29.80,SSE,160,0.6,3.5,97,0.05,RA,,0.25,0.0,WeatherDisplay:10.37,2013-11-06 04:29:00,
2013-11-05 22:30:00,60.3,59.4,29.80,SSE,161,2.7,3.5,97,0.06,RA,,0.26,0.0,WeatherDisplay:10.37,2013-11-06 04:30:00,
2013-11-05 22:31:00,60.3,59.4,29.80,SE,145,3.6,6.0,97,0.06,RA,,0.26,0.0,WeatherDisplay:10.37,2013-11-06 04:31:00,
2013-11-05 22:32:00,60.3,59.4,29.80,South,182,2.8,5.8,97,0.07,RA,,0.27,0.0,WeatherDisplay:10.37,2013-11-06 04:32:00,
2013-11-05 22:33:00,60.3,59.4,29.81,West,265,2.7,4.6,97,0.07,RA,,0.28,0.0,WeatherDisplay:10.37,2013-11-06 04:33:00,
2013-11-05 22:34:00,60.3,59.4,29.82,NW,324,3.9,6.9,97,0.08,RA,,0.28,0.0,WeatherDisplay:10.37,2013-11-06 04:34:00,
2013-11-05 22:36:00,60.2,59.3,29.82,NW,311,8.4,13.0,97,0.10,RA,,0.31,0.0,WeatherDisplay:10.37,2013-11-06 04:36:00,
2013-11-05 22:38:00,59.7,58.6,29.83,West,265,4.7,10.4,96,0.12,RA,,0.32,0.0,WeatherDisplay:10.37,2013-11-06 04:38:00,
2013-11-05 22:39:00,59.4,57.9,29.83,WNW,291,7.0,14.0,95,0.01,RA,,0.34,0.0,WeatherDisplay:10.37,2013-11-06 04:39:00,
2013-11-05 22:41:00,58.7,57.0,29.83,NNW,336,4.8,11.5,94,0.15,RA,,0.35,0.0,WeatherDisplay:10.37,2013-11-06 04:41:00,
2013-11-05 22:43:00,58.1,56.4,29.83,West,273,5.3,6.9,94,0.16,RA,,0.36,0.0,WeatherDisplay:10.37,2013-11-06 04:43:00,
2013-11-05 22:44:00,57.8,56.1,29.83,WNW,296,1.8,9.2,94,0.17,RA,,0.37,0.0,WeatherDisplay:10.37,2013-11-06 04:44:00,
2013-11-05 22:45:00,57.7,56.0,29.83,NNW,337,3.4,6.9,94,0.17,RA,,0.37,0.0,WeatherDisplay:10.37,2013-11-06 04:45:00,
2013-11-05 22:46:00,57.3,55.6,29.82,NW,313,3.2,8.0,94,0.18,RA,,0.38,0.0,WeatherDisplay:10.37,2013-11-06 04:46:00,
2013-11-05 22:47:00,57.2,55.5,29.82,SSW,207,4.1,9.2,94,0.18,RA,,0.38,0.0,WeatherDisplay:10.37,2013-11-06 04:47:00,
2013-11-05 22:48:00,57.0,55.3,29.83,WNW,285,3.0,5.8,94,0.18,RA,,0.39,0.0,WeatherDisplay:10.37,2013-11-06 04:48:00,
2013-11-05 22:50:00,56.7,55.0,29.83,WNW,293,3.4,6.9,94,0.19,RA,,0.39,0.0,WeatherDisplay:10.37,2013-11-06 04:50:00,
2013-11-05 22:51:00,56.6,54.9,29.83,WNW,284,1.7,4.0,94,0.20,RA,,0.40,0.0,WeatherDisplay:10.37,2013-11-06 04:51:00,
2013-11-05 22:52:00,56.4,54.7,29.83,WNW,302,4.2,4.6,94,0.20,RA,,0.40,0.0,WeatherDisplay:10.37,2013-11-06 04:52:00,
2013-11-05 22:53:00,56.2,54.2,29.84,WNW,292,4.5,9.2,93,0.20,RA,,0.41,0.0,WeatherDisplay:10.37,2013-11-06 04:53:00,
2013-11-05 22:55:00,56.0,54.3,29.84,NNW,327,2.9,5.8,94,0.22,RA,,0.42,0.0,WeatherDisplay:10.37,2013-11-06 04:55:00,
2013-11-05 22:56:00,55.9,54.2,29.84,NNW,348,2.4,3.5,94,0.22,RA,,0.42,0.0,WeatherDisplay:10.37,2013-11-06 04:56:00,
2013-11-05 22:57:00,55.7,54.0,29.84,NE,42,6.7,15.0,94,0.23,RA,,0.43,0.0,WeatherDisplay:10.37,2013-11-06 04:57:00,
2013-11-05 22:59:00,55.5,53.8,29.83,West,275,1.6,4.6,94,0.24,RA,,0.44,0.0,WeatherDisplay:10.37,2013-11-06 04:59:00,
2013-11-05 23:01:00,55.3,53.6,29.83,NNW,333,3.3,6.9,94,0.24,RA,,0.44,0.0,WeatherDisplay:10.37,2013-11-06 05:01:00,
2013-11-05 23:02:00,55.1,53.4,29.83,WNW,294,1.5,5.8,94,0.25,RA,,0.45,0.0,WeatherDisplay:10.37,2013-11-06 05:02:00,
2013-11-05 23:06:00,54.9,53.2,29.83,ESE,115,1.6,3.5,94,0.26,RA,,0.47,0.0,WeatherDisplay:10.37,2013-11-06 05:06:00,
2013-11-05 23:07:00,54.8,53.1,29.84,West,261,1.8,3.5,94,0.27,RA,,0.47,0.0,WeatherDisplay:10.37,2013-11-06 05:07:00,
2013-11-05 23:11:00,54.5,52.8,29.84,West,278,4.9,9.2,94,0.28,RA,,0.49,0.0,WeatherDisplay:10.37,2013-11-06 05:11:00,
2013-11-05 23:12:00,54.4,52.7,29.84,SW,233,5.7,9.2,94,0.29,RA,,0.49,0.0,WeatherDisplay:10.37,2013-11-06 05:12:00,
2013-11-05 23:16:00,54.0,52.3,29.84,NW,321,3.1,8.1,94,0.30,RA,,0.52,0.0,WeatherDisplay:10.37,2013-11-06 05:16:00,
2013-11-05 23:17:00,53.9,52.2,29.84,West,265,2.5,4.6,94,0.31,RA,,0.52,0.0,WeatherDisplay:10.37,2013-11-06 05:17:00,
2013-11-05 23:18:00,53.8,52.1,29.84,West,279,3.6,8.0,94,0.31,RA,,0.52,0.0,WeatherDisplay:10.37,2013-11-06 05:18:00,
2013-11-05 23:21:00,53.4,51.7,29.84,WNW,285,3.4,6.9,94,0.32,RA,,0.54,0.0,WeatherDisplay:10.37,2013-11-06 05:21:00,
2013-11-05 23:22:00,53.3,51.6,29.84,WNW,300,4.1,8.1,94,0.32,RA,,0.55,0.0,WeatherDisplay:10.37,2013-11-06 05:22:00,
2013-11-05 23:23:00,53.2,51.5,29.84,NNW,340,3.0,5.8,94,0.33,RA,,0.55,0.0,WeatherDisplay:10.37,2013-11-06 05:23:00,
2013-11-05 23:26:00,52.7,51.0,29.84,WNW,297,4.9,8.1,94,0.34,RA,,0.57,0.0,WeatherDisplay:10.37,2013-11-06 05:26:00,
2013-11-05 23:27:00,52.7,51.0,29.84,West,280,5.3,11.5,94,0.33,RA,,0.57,0.0,WeatherDisplay:10.37,2013-11-06 05:27:00,
2013-11-05 23:28:00,52.4,50.7,29.85,WNW,286,3.1,10.4,94,0.33,RA,,0.58,0.0,WeatherDisplay:10.37,2013-11-06 05:28:00,
2013-11-05 23:29:00,52.2,50.5,29.85,NW,323,4.8,11.5,94,0.33,RA,,0.59,0.0,WeatherDisplay:10.37,2013-11-06 05:29:00,
2013-11-05 23:32:00,51.8,49.8,29.85,NNW,345,4.4,11.5,93,0.33,RA,,0.60,0.0,WeatherDisplay:10.37,2013-11-06 05:32:00,
2013-11-05 23:33:00,51.6,49.6,29.85,NNW,331,6.1,16.1,93,0.33,RA,,0.60,0.0,WeatherDisplay:10.37,2013-11-06 05:33:00,
2013-11-05 23:35:00,51.2,49.2,29.85,NW,305,7.2,12.7,93,0.32,RA,,0.61,0.0,WeatherDisplay:10.37,2013-11-06 05:35:00,
2013-11-05 23:37:00,50.8,49.1,29.85,NW,325,4.9,9.2,94,0.30,RA,,0.62,0.0,WeatherDisplay:10.37,2013-11-06 05:37:00,
2013-11-05 23:38:00,50.7,49.0,29.85,NW,313,6.9,10.4,94,0.30,RA,,0.62,0.0,WeatherDisplay:10.37,2013-11-06 05:38:00,
2013-11-05 23:40:00,50.4,48.7,29.86,WNW,294,5.0,16.1,94,0.28,RA,,0.62,0.0,WeatherDisplay:10.37,2013-11-06 05:40:00,
2013-11-05 23:42:00,50.2,48.5,29.86,WNW,292,5.8,10.0,94,0.26,RA,,0.63,0.0,WeatherDisplay:10.37,2013-11-06 05:42:00,
2013-11-05 23:43:00,50.0,48.3,29.86,NW,320,8.2,12.0,94,0.27,RA,,0.63,0.0,WeatherDisplay:10.37,2013-11-06 05:43:00,
2013-11-05 23:44:00,50.0,48.3,29.86,North,360,8.7,13.8,94,0.26,RA,,0.63,0.0,WeatherDisplay:10.37,2013-11-06 05:44:00,
2013-11-05 23:45:00,49.8,48.1,29.86,NNW,327,7.7,12.7,94,0.26,RA,,0.63,0.0,WeatherDisplay:10.37,2013-11-06 05:45:00,
2013-11-05 23:47:00,49.5,47.8,29.87,NW,315,7.0,11.5,94,0.26,RA,,0.64,0.0,WeatherDisplay:10.37,2013-11-06 05:47:00,
2013-11-05 23:49:00,49.1,47.2,29.87,NW,313,4.4,9.2,93,0.25,RA,,0.64,0.0,WeatherDisplay:10.37,2013-11-06 05:49:00,
2013-11-05 23:50:00,49.0,47.3,29.87,NNW,335,3.0,8.1,94,0.25,RA,,0.65,0.0,WeatherDisplay:10.37,2013-11-06 05:50:00,
2013-11-05 23:52:00,48.8,46.9,29.86,WNW,296,4.0,9.2,93,0.25,RA,,0.65,0.0,WeatherDisplay:10.37,2013-11-06 05:52:00,
2013-11-05 23:53:00,48.7,46.8,29.86,North,349,3.1,5.0,93,0.25,RA,,0.66,0.0,WeatherDisplay:10.37,2013-11-06 05:53:00,
2013-11-05 23:54:00,48.5,46.6,29.86,NW,319,4.3,11.0,93,0.25,RA,,0.67,0.0,WeatherDisplay:10.37,2013-11-06 05:54:00,
2013-11-05 23:55:00,48.5,46.9,29.86,NW,314,5.4,11.5,94,0.25,RA,,0.67,0.0,WeatherDisplay:10.37,2013-11-06 05:55:00,
2013-11-05 23:58:00,48.2,46.6,29.87,West,274,4.2,5.8,94,0.25,RA,,0.68,0.0,WeatherDisplay:10.37,2013-11-06 05:58:00,
2013-11-05 23:59:00,48.1,46.5,29.87,West,279,6.2,10.4,94,0.24,RA,,0.68,0.0,WeatherDisplay:10.37,2013-11-06 05:59:00,